
Distance (Route):
Temperature : 19.8°C
Humidity : 52.6%
Pressure : 0hPa| Receiver | Frames | First received | Last received |
|---|---|---|---|
| PETON7-10 | 322 | 2026-09-03 02:30:23 | 2026-09-03 04:04:58 |
| OE8JPQ-2 | 215 | 2026-09-03 02:25:36 | 2026-09-03 03:46:10 |
| OE5DRO-10 | 212 | 2026-09-03 02:29:17 | 2026-09-03 03:49:25 |
| PG1ADW-2 | 198 | 2026-09-03 02:29:25 | 2026-09-03 03:45:21 |
| OE3JTB-15 | 151 | 2026-09-03 02:26:49 | 2026-09-03 04:07:15 |
| OM5KV | 112 | 2026-09-03 02:28:09 | 2026-09-03 04:21:10 |
| S52SK | 95 | 2026-09-03 02:16:28 | 2026-09-03 04:43:17 |
| OE5DXL-15 | 85 | 2026-09-03 02:35:58 | 2026-09-03 03:41:14 |
| OE3OSB-13 | 16 | 2026-09-03 02:30:04 | 2026-09-03 04:09:34 |
| Receiver | Date | Latitude | Longitude | Direction | Speed | Altitude | Climb | Temperature | Humidity | Pressure | Voltage | Killtimer | Uptime | BKT | XDATA |
|---|---|---|---|---|---|---|---|---|---|---|---|---|---|---|---|
| S52SK | 2026-09-03 04:43:17 | 46.14925 | 16.71053 | 193° | 26km/h | 776m | -3.0m/s | 19.8°C | 52.6% | 0hPa | 2.7V | 00:00:00 | 00:00:00 | 00:00:00 | |
| S52SK | 2026-09-03 04:43:11 | 46.14953 | 16.71064 | 200° | 24km/h | 789m | -2.6m/s | 19.8°C | 52.6% | 0hPa | 2.7V | 00:00:00 | 00:00:00 | 00:00:00 | |
| S52SK | 2026-09-03 04:43:06 | 46.14986 | 16.71079 | 203° | 22km/h | 803m | -2.7m/s | 19.7°C | 52.8% | 0hPa | 2.7V | 00:00:00 | 00:00:00 | 00:00:00 | |
| S52SK | 2026-09-03 04:41:47 | 46.15399 | 16.71342 | 203° | 18km/h | 989m | -2.8m/s | 19.0°C | 50.9% | 0hPa | 2.7V | 00:00:00 | 00:00:00 | 00:00:00 | |
| S52SK | 2026-09-03 04:41:40 | 46.15422 | 16.71361 | 219° | 20km/h | 1005m | -2.5m/s | 18.9°C | 51.5% | 0hPa | 2.7V | 00:00:00 | 00:00:00 | 00:00:00 | |
| S52SK | 2026-09-03 04:40:38 | 46.15708 | 16.71601 | 206° | 24km/h | 1162m | -2.8m/s | 17.6°C | 58.5% | 0hPa | 2.7V | 00:00:00 | 00:00:00 | 00:00:00 | |
| S52SK | 2026-09-03 04:40:32 | 46.15738 | 16.71616 | 201° | 16km/h | 1178m | -2.5m/s | 17.5°C | 58.7% | 0hPa | 2.7V | 00:00:00 | 00:00:00 | 00:00:00 | |
| S52SK | 2026-09-03 04:39:33 | 46.15997 | 16.71777 | 204° | 22km/h | 1340m | -2.8m/s | 16.0°C | 61.8% | 0hPa | 2.7V | 00:00:00 | 00:00:00 | 00:00:00 | |
| S52SK | 2026-09-03 04:39:28 | 46.16022 | 16.71786 | 189° | 16km/h | 1354m | -2.9m/s | 15.9°C | 62.2% | 0hPa | 2.7V | 00:00:00 | 00:00:00 | 00:00:00 | |
| S52SK | 2026-09-03 04:39:22 | 46.16047 | 16.71798 | 198° | 20km/h | 1371m | -2.9m/s | 15.8°C | 62.8% | 0hPa | 2.7V | 00:00:00 | 00:00:00 | 00:00:00 | |
| S52SK | 2026-09-03 04:38:18 | 46.16301 | 16.71910 | 185° | 15km/h | 1554m | -2.8m/s | 14.2°C | 63.1% | 0hPa | 2.7V | 07:09:00 | 00:00:00 | 00:00:00 | |
| S52SK | 2026-09-03 04:38:12 | 46.16321 | 16.71916 | 197° | 15km/h | 1572m | -2.7m/s | 14.2°C | 62.7% | 0hPa | 2.7V | 07:09:00 | 00:00:00 | 00:00:00 | |
| S52SK | 2026-09-03 04:37:09 | 46.16511 | 16.71864 | 151° | 9km/h | 1752m | -2.7m/s | 12.8°C | 68.3% | 0hPa | 2.7V | 00:00:00 | 00:00:00 | 00:00:00 | |
| S52SK | 2026-09-03 04:36:00 | 46.16622 | 16.71632 | 101° | 11km/h | 1936m | -2.6m/s | 11.4°C | 72.7% | 0hPa | 2.7V | 00:00:00 | 00:00:00 | 00:00:00 | |
| S52SK | 2026-09-03 04:35:54 | 46.16627 | 16.71608 | 97° | 13km/h | 1952m | -2.6m/s | 11.2°C | 73.0% | 0hPa | 2.7V | 00:00:00 | 00:00:00 | 00:00:00 | |
| S52SK | 2026-09-03 04:34:50 | 46.16682 | 16.71350 | 116° | 11km/h | 2106m | -2.3m/s | 9.8°C | 77.9% | 0hPa | 2.7V | 07:12:00 | 00:00:00 | 00:00:00 | |
| S52SK | 2026-09-03 04:34:45 | 46.16686 | 16.71330 | 110° | 9km/h | 2118m | -2.3m/s | 9.7°C | 78.3% | 0hPa | 2.7V | 00:00:00 | 00:00:00 | 00:00:00 | |
| S52SK | 2026-09-03 04:33:46 | 46.16740 | 16.71090 | 107° | 13km/h | 2254m | -2.3m/s | 8.5°C | 84.7% | 0hPa | 2.7V | 00:00:00 | 00:00:00 | 00:00:00 | |
| S52SK | 2026-09-03 04:33:41 | 46.16747 | 16.71069 | 107° | 13km/h | 2266m | -2.3m/s | 8.5°C | 84.9% | 0hPa | 2.7V | 00:00:00 | 00:00:00 | 00:00:00 | |
| S52SK | 2026-09-03 04:33:36 | 46.16752 | 16.71050 | 120° | 13km/h | 2277m | -2.4m/s | 8.4°C | 84.6% | 0hPa | 2.7V | 00:00:00 | 00:00:00 | 00:00:00 | |
| S52SK | 2026-09-03 04:32:36 | 46.16813 | 16.70805 | 107° | 11km/h | 2421m | -2.5m/s | 7.4°C | 84.7% | 0hPa | 2.7V | 00:00:00 | 00:00:00 | 00:00:00 | |
| S52SK | 2026-09-03 04:32:31 | 46.16816 | 16.70790 | 121° | 9km/h | 2433m | -2.5m/s | 7.3°C | 83.6% | 0hPa | 2.7V | 00:00:00 | 00:00:00 | 00:00:00 | |
| S52SK | 2026-09-03 04:32:25 | 46.16820 | 16.70772 | 97° | 7km/h | 2446m | -2.5m/s | 7.2°C | 83.7% | 0hPa | 2.7V | 00:00:00 | 00:00:00 | 00:00:00 | |
| S52SK | 2026-09-03 04:31:22 | 46.16827 | 16.70593 | 99° | 9km/h | 2596m | -2.1m/s | 6.2°C | 81.6% | 0hPa | 2.7V | 00:00:00 | 00:00:00 | 00:00:00 | |
| S52SK | 2026-09-03 04:31:16 | 46.16827 | 16.70578 | 100° | 7km/h | 2609m | -2.1m/s | 6.1°C | 82.0% | 0hPa | 2.7V | 00:00:00 | 00:00:00 | 00:00:00 | |
| S52SK | 2026-09-03 04:30:17 | 46.16832 | 16.70467 | 123° | 5km/h | 2748m | -2.4m/s | 4.9°C | 85.3% | 0hPa | 2.7V | 00:00:00 | 00:00:00 | 00:00:00 | |
| S52SK | 2026-09-03 04:30:12 | 46.16833 | 16.70462 | 159° | 2km/h | 2760m | -2.4m/s | 4.8°C | 83.5% | 0hPa | 2.7V | 00:00:00 | 00:00:00 | 00:00:00 | |
| S52SK | 2026-09-03 04:30:06 | 46.16836 | 16.70456 | 94° | 4km/h | 2772m | -2.5m/s | 4.8°C | 80.5% | 0hPa | 2.7V | 00:00:00 | 00:00:00 | 00:00:00 | |
| S52SK | 2026-09-03 04:29:08 | 46.16868 | 16.70396 | 122° | 2km/h | 2916m | -2.4m/s | 3.5°C | 79.5% | 0hPa | 2.7V | 00:00:00 | 00:00:00 | 00:00:00 | |
| S52SK | 2026-09-03 04:29:03 | 46.16872 | 16.70392 | 132° | 5km/h | 2929m | -2.5m/s | 3.4°C | 79.7% | 0hPa | 2.7V | 00:00:00 | 00:00:00 | 00:00:00 | |
| S52SK | 2026-09-03 04:28:57 | 46.16878 | 16.70386 | 144° | 7km/h | 2944m | -2.6m/s | 3.3°C | 80.1% | 0hPa | 2.7V | 00:00:00 | 00:00:00 | 00:00:00 | |
| S52SK | 2026-09-03 04:27:53 | 46.16931 | 16.70206 | 124° | 9km/h | 3095m | -2.4m/s | 1.9°C | 90.3% | 0hPa | 2.7V | 00:00:00 | 00:00:00 | 00:00:00 | |
| S52SK | 2026-09-03 04:27:48 | 46.16935 | 16.70185 | 96° | 13km/h | 3107m | -2.3m/s | 1.8°C | 90.8% | 0hPa | 2.7V | 00:00:00 | 00:00:00 | 00:00:00 | |
| S52SK | 2026-09-03 04:26:45 | 46.16992 | 16.69941 | 104° | 13km/h | 3259m | -2.3m/s | 0.5°C | 92.0% | 0hPa | 2.7V | 00:00:00 | 00:00:00 | 00:00:00 | |
| S52SK | 2026-09-03 04:26:39 | 46.16997 | 16.69910 | 96° | 13km/h | 3273m | -2.6m/s | 0.3°C | 92.5% | 0hPa | 2.7V | 00:00:00 | 00:00:00 | 00:00:00 | |
| S52SK | 2026-09-03 04:25:40 | 46.17044 | 16.69536 | 96° | 27km/h | 3428m | -3.0m/s | -0.9°C | 95.0% | 0hPa | 2.7V | 00:00:00 | 00:00:00 | 00:00:00 | |
| S52SK | 2026-09-03 04:25:34 | 46.17045 | 16.69486 | 93° | 29km/h | 3444m | -3.4m/s | -0.8°C | 91.1% | 0hPa | 2.7V | 00:00:00 | 00:00:00 | 00:00:00 | |
| S52SK | 2026-09-03 04:25:29 | 46.17045 | 16.69419 | 87° | 29km/h | 3462m | -2.8m/s | -1.0°C | 91.4% | 0hPa | 2.7V | 00:00:00 | 00:00:00 | 00:00:00 | |
| S52SK | 2026-09-03 04:24:30 | 46.16978 | 16.68686 | 79° | 40km/h | 3632m | -3.2m/s | -1.7°C | 81.3% | 0hPa | 2.7V | 00:00:00 | 00:00:00 | 00:00:00 | |
| S52SK | 2026-09-03 04:24:25 | 46.16966 | 16.68619 | 76° | 35km/h | 3647m | -2.9m/s | -1.8°C | 81.9% | 0hPa | 2.7V | 00:00:00 | 00:00:00 | 00:00:00 | |
| S52SK | 2026-09-03 04:24:19 | 46.16955 | 16.68540 | 79° | 40km/h | 3664m | -2.9m/s | -1.9°C | 82.8% | 0hPa | 2.7V | 00:00:00 | 00:00:00 | 00:00:00 | |
| S52SK | 2026-09-03 04:23:16 | 46.16788 | 16.67717 | 63° | 35km/h | 3842m | -2.8m/s | -3.4°C | 83.1% | 0hPa | 2.7V | 00:00:00 | 00:00:00 | 00:00:00 | |
| S52SK | 2026-09-03 04:22:07 | 46.16559 | 16.66906 | 65° | 40km/h | 4055m | -3.2m/s | -5.0°C | 93.6% | 0hPa | 2.7V | 07:25:00 | 00:00:00 | 00:00:00 | |
| S52SK | 2026-09-03 04:22:01 | 46.16532 | 16.66834 | 64° | 35km/h | 4076m | -3.4m/s | -5.3°C | 93.0% | 0hPa | 2.7V | 00:00:00 | 00:00:00 | 00:00:00 | |
| OM5KV | 2026-09-03 04:21:10 | 46.16325 | 16.66200 | 74° | 35km/h | 4261m | -3.2m/s | -6.1°C | 95.8% | 0hPa | 2.7V | 00:00:00 | 00:00:00 | 00:00:00 | |
| OM5KV | 2026-09-03 04:21:04 | 46.16310 | 16.66136 | 71° | 40km/h | 4277m | -3.0m/s | -6.3°C | 96.7% | 0hPa | 2.7V | 00:00:00 | 00:00:00 | 00:00:00 | |
| S52SK | 2026-09-03 04:21:02 | 46.16298 | 16.66095 | 64° | 42km/h | 4287m | -3.3m/s | -6.4°C | 96.7% | 0hPa | 2.7V | 00:00:00 | 00:00:00 | 00:00:00 | |
| S52SK | 2026-09-03 04:20:57 | 46.16274 | 16.66035 | 60° | 33km/h | 4304m | -3.6m/s | -6.3°C | 95.4% | 0hPa | 2.7V | 00:00:00 | 00:00:00 | 00:00:00 | |
| S52SK | 2026-09-03 04:20:51 | 46.16253 | 16.65974 | 72° | 31km/h | 4325m | -3.5m/s | -6.3°C | 94.5% | 0hPa | 2.7V | 00:00:00 | 00:00:00 | 00:00:00 | |
| OM5KV | 2026-09-03 04:20:46 | 46.16240 | 16.65916 | 73° | 35km/h | 4342m | -3.7m/s | -6.4°C | 95.0% | 0hPa | 2.7V | 00:00:00 | 00:00:00 | 00:00:00 | |
| OM5KV | 2026-09-03 04:20:40 | 46.16222 | 16.65838 | 69° | 40km/h | 4363m | -3.2m/s | -6.5°C | 95.1% | 0hPa | 2.7V | 00:00:00 | 00:00:00 | 00:00:00 | |
| OM5KV | 2026-09-03 04:20:15 | 46.16134 | 16.65566 | 77° | 35km/h | 4450m | -3.2m/s | -7.0°C | 93.2% | 0hPa | 2.7V | 07:28:00 | 00:00:00 | 00:00:00 | |
| OM5KV | 2026-09-03 04:20:01 | 46.16088 | 16.65389 | 62° | 35km/h | 4497m | -3.4m/s | -7.4°C | 92.7% | 0hPa | 2.7V | 07:28:00 | 00:00:00 | 00:00:00 | |
| OM5KV | 2026-09-03 04:19:50 | 46.16050 | 16.65281 | 71° | 27km/h | 4533m | -3.2m/s | -7.7°C | 91.5% | 0hPa | 2.7V | 07:28:00 | 00:00:00 | 00:00:00 | |
| OM5KV | 2026-09-03 04:19:45 | 46.16040 | 16.65229 | 74° | 33km/h | 4548m | -2.9m/s | -7.8°C | 91.7% | 0hPa | 2.7V | 07:28:00 | 00:00:00 | 00:00:00 | |
| S52SK | 2026-09-03 04:19:42 | 46.16030 | 16.65197 | 64° | 31km/h | 4557m | -3.1m/s | -7.8°C | 91.9% | 0hPa | 2.7V | 00:00:00 | 00:00:00 | 00:00:00 | |
| OM5KV | 2026-09-03 04:19:40 | 46.16023 | 16.65177 | 65° | 31km/h | 4563m | -3.3m/s | -7.9°C | 91.9% | 0hPa | 2.7V | 07:28:00 | 00:00:00 | 00:00:00 | |
| OM5KV | 2026-09-03 04:19:29 | 46.15998 | 16.65077 | 78° | 26km/h | 4599m | -3.1m/s | -7.9°C | 92.5% | 0hPa | 2.7V | 07:29:00 | 00:00:00 | 00:00:00 | |
| OM5KV | 2026-09-03 04:19:24 | 46.15993 | 16.65031 | 87° | 27km/h | 4614m | -3.2m/s | -7.9°C | 93.0% | 0hPa | 2.7V | 07:29:00 | 00:00:00 | 00:00:00 | |
| OM5KV | 2026-09-03 04:19:18 | 46.15992 | 16.64971 | 92° | 29km/h | 4633m | -3.2m/s | -7.9°C | 92.1% | 0hPa | 2.7V | 07:29:00 | 00:00:00 | 00:00:00 | |
| OM5KV | 2026-09-03 04:19:12 | 46.15990 | 16.64903 | 89° | 33km/h | 4650m | -2.9m/s | -8.0°C | 92.0% | 0hPa | 2.7V | 07:29:00 | 00:00:00 | 00:00:00 | |
| OM5KV | 2026-09-03 04:19:07 | 46.15986 | 16.64838 | 81° | 37km/h | 4664m | -2.8m/s | -8.0°C | 92.5% | 0hPa | 2.7V | 07:29:00 | 00:00:00 | 00:00:00 | |
| OM5KV | 2026-09-03 04:19:01 | 46.15973 | 16.64766 | 74° | 33km/h | 4681m | -3.0m/s | -8.1°C | 92.9% | 0hPa | 2.7V | 07:29:00 | 00:00:00 | 00:00:00 | |
| OM5KV | 2026-09-03 04:18:56 | 46.15962 | 16.64713 | 78° | 27km/h | 4696m | -2.8m/s | -8.1°C | 92.6% | 0hPa | 2.7V | 07:29:00 | 00:00:00 | 00:00:00 | |
| OM5KV | 2026-09-03 04:18:50 | 46.15959 | 16.64653 | 92° | 31km/h | 4713m | -2.8m/s | -8.2°C | 92.8% | 0hPa | 2.7V | 07:29:00 | 00:00:00 | 00:00:00 | |
| OM5KV | 2026-09-03 04:18:44 | 46.15958 | 16.64578 | 87° | 37km/h | 4729m | -2.8m/s | -8.3°C | 93.0% | 0hPa | 2.7V | 07:29:00 | 00:00:00 | 00:00:00 | |
| S52SK | 2026-09-03 04:18:42 | 46.15957 | 16.64565 | 85° | 37km/h | 4732m | -2.9m/s | -8.3°C | 92.8% | 0hPa | 2.7V | 07:29:00 | 00:00:00 | 00:00:00 | |
| S52SK | 2026-09-03 04:18:37 | 46.15948 | 16.64487 | 77° | 35km/h | 4749m | -2.8m/s | -8.4°C | 92.4% | 0hPa | 2.7V | 00:00:00 | 00:00:00 | 00:00:00 | |
| OM5KV | 2026-09-03 04:18:34 | 46.15942 | 16.64451 | 74° | 33km/h | 4757m | -2.8m/s | -8.4°C | 92.3% | 0hPa | 2.7V | 07:29:00 | 00:00:00 | 00:00:00 | |
| S52SK | 2026-09-03 04:18:32 | 46.15937 | 16.64428 | 74° | 31km/h | 4763m | -2.7m/s | -8.5°C | 92.6% | 0hPa | 2.7V | 00:00:00 | 00:00:00 | 00:00:00 | |
| OM5KV | 2026-09-03 04:18:21 | 46.15925 | 16.64321 | 91° | 29km/h | 4791m | -2.5m/s | -8.7°C | 92.0% | 0hPa | 2.7V | 07:29:00 | 00:00:00 | 00:00:00 | |
| OM5KV | 2026-09-03 04:18:15 | 46.15925 | 16.64251 | 90° | 35km/h | 4807m | -2.7m/s | -8.8°C | 91.4% | 0hPa | 2.7V | 07:29:00 | 00:00:00 | 00:00:00 | |
| OM5KV | 2026-09-03 04:18:10 | 46.15923 | 16.64187 | 85° | 37km/h | 4820m | -2.5m/s | -8.9°C | 91.5% | 0hPa | 2.7V | 07:29:00 | 00:00:00 | 00:00:00 | |
| OM5KV | 2026-09-03 04:17:46 | 46.15888 | 16.63923 | 90° | 27km/h | 4877m | -2.6m/s | -9.2°C | 91.0% | 0hPa | 2.7V | 07:30:00 | 00:00:00 | 00:00:00 | |
| S52SK | 2026-09-03 04:17:28 | 46.15898 | 16.63714 | 96° | 37km/h | 4924m | -2.5m/s | -9.4°C | 91.3% | 0hPa | 2.7V | 00:00:00 | 00:00:00 | 00:00:00 | |
| S52SK | 2026-09-03 04:17:22 | 46.15899 | 16.63630 | 89° | 38km/h | 4938m | -2.4m/s | -9.5°C | 92.0% | 0hPa | 2.7V | 00:00:00 | 00:00:00 | 00:00:00 | |
| OM5KV | 2026-09-03 04:17:14 | 46.15893 | 16.63525 | 92° | 31km/h | 4955m | -2.0m/s | -9.6°C | 92.0% | 0hPa | 2.7V | 07:30:00 | 00:00:00 | 00:00:00 | |
| OM5KV | 2026-09-03 04:17:09 | 46.15896 | 16.63468 | 95° | 33km/h | 4966m | -2.5m/s | -9.6°C | 92.0% | 0hPa | 2.7V | 07:30:00 | 00:00:00 | 00:00:00 | |
| OM5KV | 2026-09-03 04:17:03 | 46.15901 | 16.63408 | 100° | 33km/h | 4978m | -2.6m/s | -9.7°C | 92.2% | 0hPa | 2.7V | 07:30:00 | 00:00:00 | 00:00:00 | |
| OM5KV | 2026-09-03 04:16:57 | 46.15911 | 16.63334 | 100° | 35km/h | 4994m | -2.7m/s | -9.8°C | 92.2% | 0hPa | 2.7V | 07:30:00 | 00:00:00 | 00:00:00 | |
| OM5KV | 2026-09-03 04:16:50 | 46.15924 | 16.63244 | 106° | 37km/h | 5012m | -2.5m/s | -9.9°C | 92.9% | 0hPa | 2.7V | 07:31:00 | 00:00:00 | 00:00:00 | |
| OM5KV | 2026-09-03 04:16:45 | 46.15937 | 16.63164 | 107° | 38km/h | 5025m | -2.3m/s | -10.0°C | 93.0% | 0hPa | 2.7V | 07:31:00 | 00:00:00 | 00:00:00 | |
| OM5KV | 2026-09-03 04:16:39 | 46.15949 | 16.63097 | 106° | 42km/h | 5039m | -2.7m/s | -10.0°C | 93.0% | 0hPa | 2.7V | 07:31:00 | 00:00:00 | 00:00:00 | |
| OM5KV | 2026-09-03 04:16:34 | 46.15968 | 16.63006 | 108° | 44km/h | 5056m | -2.8m/s | -10.0°C | 93.3% | 0hPa | 2.7V | 07:31:00 | 00:00:00 | 00:00:00 | |
| OM5KV | 2026-09-03 04:16:28 | 46.15986 | 16.62906 | 104° | 49km/h | 5070m | -2.0m/s | -10.1°C | 93.8% | 0hPa | 2.7V | 07:31:00 | 00:00:00 | 00:00:00 | |
| OM5KV | 2026-09-03 04:16:23 | 46.15997 | 16.62819 | 98° | 47km/h | 5079m | -2.0m/s | -10.2°C | 94.2% | 0hPa | 2.7V | 07:31:00 | 00:00:00 | 00:00:00 | |
| S52SK | 2026-09-03 04:16:18 | 46.16002 | 16.62755 | 98° | 42km/h | 5087m | -2.0m/s | -10.1°C | 93.8% | 0hPa | 2.7V | 00:00:00 | 00:00:00 | 00:00:00 | |
| OM5KV | 2026-09-03 04:16:17 | 46.16004 | 16.62740 | 100° | 42km/h | 5089m | -2.2m/s | -10.1°C | 93.6% | 0hPa | 2.7V | 07:31:00 | 00:00:00 | 00:00:00 | |
| S52SK | 2026-09-03 04:16:13 | 46.16013 | 16.62665 | 102° | 42km/h | 5099m | -2.2m/s | -10.2°C | 93.9% | 0hPa | 2.7V | 00:00:00 | 00:00:00 | 00:00:00 | |
| OM5KV | 2026-09-03 04:16:12 | 46.16013 | 16.62665 | 102° | 42km/h | 5099m | -2.2m/s | -10.2°C | 93.9% | 0hPa | 2.7V | 07:31:00 | 00:00:00 | 00:00:00 | |
| OM5KV | 2026-09-03 04:16:07 | 46.16026 | 16.62576 | 104° | 42km/h | 5112m | -2.5m/s | -10.2°C | 94.5% | 0hPa | 2.7V | 07:31:00 | 00:00:00 | 00:00:00 | |
| OM5KV | 2026-09-03 04:15:56 | 46.16056 | 16.62416 | 111° | 42km/h | 5140m | -2.1m/s | -10.3°C | 93.2% | 0hPa | 2.7V | 07:32:00 | 00:00:00 | 00:00:00 | |
| OM5KV | 2026-09-03 04:15:49 | 46.16080 | 16.62334 | 114° | 42km/h | 5154m | -2.3m/s | -10.3°C | 93.3% | 0hPa | 2.7V | 07:32:00 | 00:00:00 | 00:00:00 | |
| OM5KV | 2026-09-03 04:15:44 | 46.16100 | 16.62269 | 115° | 40km/h | 5165m | -2.2m/s | -10.5°C | 93.9% | 0hPa | 2.7V | 07:32:00 | 00:00:00 | 00:00:00 | |
| OM5KV | 2026-09-03 04:15:34 | 46.16155 | 16.62115 | 118° | 46km/h | 5187m | -2.3m/s | -10.4°C | 92.8% | 0hPa | 2.7V | 07:32:00 | 00:00:00 | 00:00:00 | |
| OM5KV | 2026-09-03 04:15:28 | 46.16180 | 16.62037 | 112° | 46km/h | 5197m | -1.5m/s | -10.4°C | 92.8% | 0hPa | 2.7V | 07:32:00 | 00:00:00 | 00:00:00 | |
| OM5KV | 2026-09-03 04:15:23 | 46.16201 | 16.61949 | 108° | 40km/h | 5214m | -2.9m/s | -10.6°C | 93.6% | 0hPa | 2.7V | 07:32:00 | 00:00:00 | 00:00:00 | |
| S52SK | 2026-09-03 04:15:09 | 46.16242 | 16.61771 | 113° | 37km/h | 5254m | -2.9m/s | -10.9°C | 92.8% | 0hPa | 2.7V | 00:00:00 | 00:00:00 | 00:00:00 | |
| OM5KV | 2026-09-03 04:15:05 | 46.16253 | 16.61735 | 114° | 35km/h | 5263m | -2.9m/s | -10.9°C | 93.1% | 0hPa | 2.7V | 00:00:00 | 00:00:00 | 00:00:00 | |
| S52SK | 2026-09-03 04:15:03 | 46.16259 | 16.61713 | 116° | 33km/h | 5268m | -2.8m/s | -11.0°C | 93.4% | 0hPa | 2.7V | 00:00:00 | 00:00:00 | 00:00:00 | |
| OM5KV | 2026-09-03 04:14:58 | 46.16283 | 16.61648 | 123° | 33km/h | 5284m | -2.7m/s | -11.1°C | 94.2% | 0hPa | 2.7V | 00:00:00 | 00:00:00 | 00:00:00 | |
| OM5KV | 2026-09-03 04:14:52 | 46.16314 | 16.61588 | 130° | 37km/h | 5298m | -2.1m/s | -11.1°C | 94.1% | 0hPa | 2.7V | 00:00:00 | 00:00:00 | 00:00:00 | |
| OM5KV | 2026-09-03 04:14:46 | 46.16345 | 16.61535 | 133° | 40km/h | 5309m | -2.4m/s | -11.3°C | 95.2% | 0hPa | 2.7V | 00:00:00 | 00:00:00 | 00:00:00 | |
| OM5KV | 2026-09-03 04:14:41 | 46.16381 | 16.61481 | 134° | 46km/h | 5324m | -3.0m/s | -11.2°C | 93.5% | 0hPa | 2.7V | 00:00:00 | 00:00:00 | 00:00:00 | |
| S52SK | 2026-09-03 04:14:01 | 46.16695 | 16.61029 | 142° | 44km/h | 5433m | -2.6m/s | -11.6°C | 94.7% | 0hPa | 2.7V | 00:00:00 | 00:00:00 | 00:00:00 | |
| S52SK | 2026-09-03 04:13:55 | 46.16745 | 16.60958 | 131° | 44km/h | 5447m | -2.4m/s | -11.7°C | 93.9% | 0hPa | 2.7V | 00:00:00 | 00:00:00 | 00:00:00 | |
| OM5KV | 2026-09-03 04:13:25 | 46.16982 | 16.60639 | 144° | 46km/h | 5517m | -2.3m/s | -12.2°C | 93.3% | 0hPa | 2.7V | 07:35:00 | 00:00:00 | 00:00:00 | |
| OM5KV | 2026-09-03 04:12:57 | 46.17210 | 16.60298 | 139° | 40km/h | 5577m | -2.1m/s | -12.5°C | 93.5% | 0hPa | 2.7V | 07:35:00 | 00:00:00 | 00:00:00 | |
| S52SK | 2026-09-03 04:12:51 | 46.17262 | 16.60235 | 141° | 47km/h | 5590m | -2.1m/s | -12.6°C | 93.6% | 0hPa | 2.7V | 00:00:00 | 00:00:00 | 00:00:00 | |
| S52SK | 2026-09-03 04:12:46 | 46.17306 | 16.60172 | 132° | 47km/h | 5601m | -2.4m/s | -12.7°C | 93.6% | 0hPa | 2.7V | 00:00:00 | 00:00:00 | 00:00:00 | |
| OM5KV | 2026-09-03 04:12:40 | 46.17350 | 16.60095 | 130° | 42km/h | 5615m | -2.4m/s | -12.8°C | 93.8% | 0hPa | 2.7V | 07:35:00 | 00:00:00 | 00:00:00 | |
| OM5KV | 2026-09-03 04:12:33 | 46.17406 | 16.60020 | 139° | 49km/h | 5631m | -2.3m/s | -12.9°C | 93.1% | 0hPa | 2.7V | 07:35:00 | 00:00:00 | 00:00:00 | |
| OM5KV | 2026-09-03 04:12:27 | 46.17449 | 16.59955 | 131° | 47km/h | 5642m | -2.2m/s | -13.0°C | 93.4% | 0hPa | 2.7V | 07:35:00 | 00:00:00 | 00:00:00 | |
| OM5KV | 2026-09-03 04:12:22 | 46.17492 | 16.59883 | 137° | 40km/h | 5655m | -1.9m/s | -13.1°C | 93.6% | 0hPa | 2.7V | 07:35:00 | 00:00:00 | 00:00:00 | |
| OM5KV | 2026-09-03 04:12:16 | 46.17533 | 16.59829 | 135° | 47km/h | 5665m | -1.9m/s | -13.1°C | 93.8% | 0hPa | 2.7V | 07:35:00 | 00:00:00 | 00:00:00 | |
| OM5KV | 2026-09-03 04:12:11 | 46.17577 | 16.59760 | 139° | 42km/h | 5676m | -1.9m/s | -13.2°C | 94.2% | 0hPa | 2.7V | 07:35:00 | 00:00:00 | 00:00:00 | |
| OM5KV | 2026-09-03 04:12:05 | 46.17626 | 16.59690 | 135° | 44km/h | 5688m | -2.0m/s | -13.3°C | 94.0% | 0hPa | 2.7V | 07:35:00 | 00:00:00 | 00:00:00 | |
| OM5KV | 2026-09-03 04:11:51 | 46.17736 | 16.59525 | 134° | 47km/h | 5717m | -1.9m/s | -13.5°C | 94.5% | 0hPa | 2.7V | 07:35:00 | 00:00:00 | 00:00:00 | |
| OM5KV | 2026-09-03 04:11:46 | 46.17773 | 16.59464 | 134° | 42km/h | 5727m | -2.2m/s | -13.5°C | 94.8% | 0hPa | 2.7V | 07:36:00 | 00:00:00 | 00:00:00 | |
| S52SK | 2026-09-03 04:11:42 | 46.17804 | 16.59416 | 131° | 47km/h | 5735m | -2.2m/s | -13.6°C | 94.5% | 0hPa | 2.7V | 00:00:00 | 00:00:00 | 00:00:00 | |
| OM5KV | 2026-09-03 04:11:39 | 46.17826 | 16.59376 | 128° | 44km/h | 5742m | -2.3m/s | -13.7°C | 94.3% | 0hPa | 2.7V | 07:36:00 | 00:00:00 | 00:00:00 | |
| S52SK | 2026-09-03 04:11:36 | 46.17846 | 16.59342 | 135° | 40km/h | 5749m | -2.3m/s | -13.7°C | 94.3% | 0hPa | 2.7V | 00:00:00 | 00:00:00 | 00:00:00 | |
| OM5KV | 2026-09-03 04:11:28 | 46.17906 | 16.59249 | 134° | 40km/h | 5767m | -2.4m/s | -13.8°C | 94.0% | 0hPa | 2.7V | 07:36:00 | 00:00:00 | 00:00:00 | |
| OM5KV | 2026-09-03 04:11:14 | 46.18001 | 16.59096 | 128° | 44km/h | 5797m | -2.4m/s | -14.0°C | 0% | 0hPa | 2.7V | 07:36:00 | 00:00:00 | 00:00:00 | |
| OM5KV | 2026-09-03 04:11:00 | 46.18101 | 16.58927 | 133° | 44km/h | 5829m | -2.5m/s | -14.2°C | 92.0% | 0hPa | 2.7V | 07:36:00 | 00:00:00 | 00:00:00 | |
| OM5KV | 2026-09-03 04:10:49 | 46.18181 | 16.58782 | 130° | 46km/h | 5858m | -2.3m/s | -14.3°C | 91.9% | 0hPa | 2.7V | 07:37:00 | 00:00:00 | 00:00:00 | |
| S52SK | 2026-09-03 04:10:36 | 46.18259 | 16.58645 | 130° | 42km/h | 5888m | -2.4m/s | -14.5°C | 91.7% | 0hPa | 2.7V | 00:00:00 | 00:00:00 | 00:00:00 | |
| OM5KV | 2026-09-03 04:10:33 | 46.18284 | 16.58599 | 132° | 37km/h | 5898m | -2.6m/s | -14.6°C | 91.4% | 0hPa | 2.7V | 07:37:00 | 00:00:00 | 00:00:00 | |
| S52SK | 2026-09-03 04:10:31 | 46.18297 | 16.58579 | 136° | 40km/h | 5903m | -2.4m/s | -14.6°C | 91.1% | 0hPa | 2.7V | 00:00:00 | 00:00:00 | 00:00:00 | |
| S52SK | 2026-09-03 04:10:26 | 46.18330 | 16.58523 | 128° | 38km/h | 5915m | -2.6m/s | -14.7°C | 91.0% | 0hPa | 2.7V | 00:00:00 | 00:00:00 | 00:00:00 | |
| OM5KV | 2026-09-03 04:10:19 | 46.18375 | 16.58447 | 128° | 38km/h | 5933m | -2.5m/s | -14.8°C | 91.2% | 0hPa | 2.7V | 07:37:00 | 00:00:00 | 00:00:00 | |
| OM5KV | 2026-09-03 04:10:09 | 46.18439 | 16.58343 | 132° | 37km/h | 5958m | -2.6m/s | -14.9°C | 90.7% | 0hPa | 2.7V | 07:37:00 | 00:00:00 | 00:00:00 | |
| OM5KV | 2026-09-03 04:10:02 | 46.18484 | 16.58269 | 131° | 37km/h | 5975m | -2.5m/s | -15.1°C | 91.0% | 0hPa | 2.7V | 00:00:00 | 00:00:00 | 00:00:00 | |
| OM5KV | 2026-09-03 04:09:56 | 46.18523 | 16.58205 | 127° | 38km/h | 5990m | -2.6m/s | -15.2°C | 91.3% | 0hPa | 2.7V | 00:00:00 | 00:00:00 | 00:00:00 | |
| OM5KV | 2026-09-03 04:09:51 | 46.18553 | 16.58154 | 135° | 40km/h | 6002m | -2.4m/s | -15.3°C | 91.7% | 0hPa | 2.7V | 00:00:00 | 00:00:00 | 00:00:00 | |
| OM5KV | 2026-09-03 04:09:45 | 46.18590 | 16.58091 | 134° | 37km/h | 6017m | -2.5m/s | -15.4°C | 91.9% | 0hPa | 2.7V | 00:00:00 | 00:00:00 | 00:00:00 | |
| OE3OSB-13 | 2026-09-03 04:09:34 | 46.18689 | 16.57923 | 127° | 35km/h | 6058m | -2.5m/s | -15.7°C | -1.0% | -1.0hPa | 2.7V | 00:00:00 | 00:00:00 | 00:00:00 | |
| S52SK | 2026-09-03 04:09:22 | 46.18728 | 16.57863 | 130° | 40km/h | 6073m | -2.7m/s | -15.8°C | 94.6% | 0hPa | 2.7V | 07:38:00 | 00:00:00 | 00:00:00 | |
| OE3OSB-13 | 2026-09-03 04:09:03 | 46.18858 | 16.57643 | 129° | 33km/h | 6129m | -2.8m/s | -16.2°C | -1.0% | -1.0hPa | 2.7V | 00:00:00 | 00:00:00 | 00:00:00 | |
| OM5KV | 2026-09-03 04:08:41 | 46.18991 | 16.57422 | 133° | 42km/h | 6187m | -2.8m/s | -16.7°C | 96.1% | 0hPa | 2.7V | 07:39:00 | 00:00:00 | 00:00:00 | |
| OE3OSB-13 | 2026-09-03 04:08:32 | 46.19057 | 16.57312 | 129° | 44km/h | 6215m | -2.7m/s | 0°C | -1.0% | -1.0hPa | 2.7V | 00:00:00 | 00:00:00 | 00:00:00 | |
| OM5KV | 2026-09-03 04:08:30 | 46.19057 | 16.57312 | 130° | 44km/h | 6215m | -2.7m/s | -16.9°C | 96.3% | 0hPa | 2.7V | 07:39:00 | 00:00:00 | 00:00:00 | |
| OM5KV | 2026-09-03 04:08:25 | 46.19092 | 16.57240 | 132° | 37km/h | 6231m | -2.8m/s | -17.0°C | 94.6% | 0hPa | 2.7V | 07:40:00 | 00:00:00 | 00:00:00 | |
| S52SK | 2026-09-03 04:08:18 | 46.19136 | 16.57160 | 126° | 38km/h | 6251m | -2.9m/s | -17.2°C | 95.7% | 0hPa | 2.7V | 00:00:00 | 00:00:00 | 00:00:00 | |
| S52SK | 2026-09-03 04:08:13 | 46.19169 | 16.57105 | 131° | 44km/h | 6265m | -2.9m/s | -17.3°C | 95.1% | 0hPa | 2.7V | 00:00:00 | 00:00:00 | 00:00:00 | |
| S52SK | 2026-09-03 04:08:07 | 46.19199 | 16.57043 | 127° | 38km/h | 6278m | -2.8m/s | -17.4°C | 96.6% | 0hPa | 2.7V | 00:00:00 | 00:00:00 | 00:00:00 | |
| OM5KV | 2026-09-03 04:08:00 | 46.19254 | 16.56947 | 125° | 46km/h | 6301m | -3.0m/s | -17.6°C | 98.1% | 0hPa | 2.7V | 07:40:00 | 00:00:00 | 00:00:00 | |
| OM5KV | 2026-09-03 04:07:49 | 46.19323 | 16.56815 | 127° | 42km/h | 6333m | -3.0m/s | -17.8°C | 0% | 0hPa | 2.7V | 07:40:00 | 00:00:00 | 00:00:00 | |
| OM5KV | 2026-09-03 04:07:41 | 46.19371 | 16.56731 | 126° | 46km/h | 6352m | -2.9m/s | -18.0°C | 100.0% | 0hPa | 2.7V | 07:40:00 | 00:00:00 | 00:00:00 | |
| OM5KV | 2026-09-03 04:07:36 | 46.19407 | 16.56657 | 133° | 42km/h | 6369m | -3.0m/s | -18.1°C | 0% | 0hPa | 2.7V | 07:40:00 | 00:00:00 | 00:00:00 | |
| OE3JTB-15 | 2026-09-03 04:07:15 | 46.19555 | 16.56395 | 130° | 46km/h | 6430m | -3.3m/s | -18.6°C | 0% | 0hPa | 2.7V | 00:00:00 | 02:20:45 | 00:00:00 | |
| OM5KV | 2026-09-03 04:07:10 | 46.19584 | 16.56336 | 123° | 47km/h | 6443m | -3.1m/s | -18.8°C | 0% | 0hPa | 2.7V | 07:40:00 | 00:00:00 | 00:00:00 | |
| S52SK | 2026-09-03 04:07:05 | 46.19623 | 16.56260 | 133° | 46km/h | 6462m | -3.5m/s | -18.9°C | 0% | 0hPa | 2.7V | 00:00:00 | 00:00:00 | 00:00:00 | |
| OE3JTB-15 | 2026-09-03 04:06:46 | 46.19763 | 16.56020 | 133° | 49km/h | 6523m | -3.2m/s | -19.5°C | 0% | 0hPa | 2.7V | 00:00:00 | 00:00:00 | 00:00:00 | |
| OM5KV | 2026-09-03 04:06:41 | 46.19793 | 16.55963 | 127° | 46km/h | 6536m | -3.0m/s | -19.5°C | 0% | 0hPa | 2.6V | 07:41:00 | 00:00:00 | 00:00:00 | |
| OE3JTB-15 | 2026-09-03 04:06:17 | 46.19997 | 16.55624 | 130° | 51km/h | 6609m | -2.9m/s | -19.9°C | 99.3% | 0hPa | 2.6V | 00:00:00 | 00:00:00 | 00:00:00 | |
| OM5KV | 2026-09-03 04:06:13 | 46.20021 | 16.55584 | 134° | 51km/h | 6618m | -3.0m/s | -20.0°C | 94.8% | 0hPa | 2.6V | 07:41:00 | 00:00:00 | 00:00:00 | |
| OM5KV | 2026-09-03 04:06:08 | 46.20062 | 16.55512 | 127° | 47km/h | 6632m | -3.2m/s | -20.1°C | 95.0% | 0hPa | 2.6V | 07:41:00 | 00:00:00 | 00:00:00 | |
| OM5KV | 2026-09-03 04:06:03 | 46.20111 | 16.55434 | 133° | 53km/h | 6650m | -3.0m/s | -20.2°C | 84.3% | 0hPa | 2.6V | 07:41:00 | 00:00:00 | 00:00:00 | |
| OM5KV | 2026-09-03 04:05:56 | 46.20162 | 16.55348 | 135° | 51km/h | 6669m | -3.3m/s | -20.3°C | 82.3% | 0hPa | 2.6V | 07:41:00 | 00:00:00 | 00:00:00 | |
| S52SK | 2026-09-03 04:05:55 | 46.20172 | 16.55334 | 135° | 53km/h | 6672m | -3.4m/s | -20.3°C | 82.2% | 0hPa | 2.6V | 07:41:00 | 00:00:00 | 00:00:00 | |
| S52SK | 2026-09-03 04:05:49 | 46.20221 | 16.55247 | 131° | 47km/h | 6692m | -3.3m/s | -20.5°C | 82.0% | 0hPa | 2.6V | 00:00:00 | 00:00:00 | 00:00:00 | |
| OM5KV | 2026-09-03 04:05:46 | 46.20256 | 16.55194 | 134° | 53km/h | 6705m | -3.2m/s | -20.6°C | 81.0% | 0hPa | 2.6V | 07:42:00 | 00:00:00 | 00:00:00 | |
| OM5KV | 2026-09-03 04:05:39 | 46.20304 | 16.55106 | 132° | 47km/h | 6724m | -3.1m/s | -20.8°C | 82.9% | 0hPa | 2.6V | 07:42:00 | 00:00:00 | 00:00:00 | |
| OE3JTB-15 | 2026-09-03 04:05:19 | 46.20479 | 16.54808 | 134° | 53km/h | 6784m | -2.7m/s | -21.1°C | 80.6% | 0hPa | 2.6V | 07:42:00 | 00:00:00 | 00:00:00 | |
| OM5KV | 2026-09-03 04:05:17 | 46.20488 | 16.54794 | 133° | 53km/h | 6786m | -2.7m/s | -21.1°C | 78.9% | 0hPa | 2.5V | 07:42:00 | 00:00:00 | 00:00:00 | |
| PETON7-10 | 2026-09-03 04:04:58 | 46.20652 | 16.54497 | 128° | 47km/h | 6843m | -2.7m/s | -21.5°C | 80.9% | 0hPa | 2.5V | 00:00:00 | 00:00:00 | 00:00:00 | |
| OE3JTB-15 | 2026-09-03 04:04:50 | 46.20720 | 16.54380 | 126° | 51km/h | 6864m | -2.7m/s | -21.7°C | 80.7% | 0hPa | 2.5V | 00:00:00 | 00:00:00 | 00:00:00 | |
| S52SK | 2026-09-03 04:04:45 | 46.20761 | 16.54309 | 132° | 55km/h | 6878m | -2.8m/s | -21.8°C | 77.5% | 0hPa | 2.5V | 00:00:00 | 00:00:00 | 00:00:00 | |
| OM5KV | 2026-09-03 04:04:44 | 46.20761 | 16.54309 | 132° | 55km/h | 6878m | -2.8m/s | -21.8°C | 77.5% | 0hPa | 2.5V | 07:43:00 | 00:00:00 | 00:00:00 | |
| OM5KV | 2026-09-03 04:04:39 | 46.20810 | 16.54223 | 134° | 49km/h | 6895m | -3.0m/s | -21.9°C | 75.3% | 0hPa | 2.5V | 07:43:00 | 00:00:00 | 00:00:00 | |
| OE3JTB-15 | 2026-09-03 04:04:21 | 46.20955 | 16.53969 | 129° | 51km/h | 6943m | -2.5m/s | -22.1°C | 79.2% | 0hPa | 2.5V | 00:00:00 | 02:17:51 | 00:00:00 | |
| OM5KV | 2026-09-03 04:04:16 | 46.20993 | 16.53895 | 131° | 47km/h | 6956m | -2.7m/s | -22.3°C | 77.6% | 0hPa | 2.5V | 07:43:00 | 00:00:00 | 00:00:00 | |
| OM5KV | 2026-09-03 04:04:10 | 46.21034 | 16.53824 | 128° | 49km/h | 6970m | -2.7m/s | -22.5°C | 79.8% | 0hPa | 2.5V | 07:44:00 | 00:00:00 | 00:00:00 | |
| OE3JTB-15 | 2026-09-03 04:03:52 | 46.21189 | 16.53554 | 127° | 49km/h | 7021m | -2.5m/s | -22.8°C | 80.7% | 0hPa | 2.5V | 00:00:00 | 00:00:00 | 00:00:00 | |
| OM5KV | 2026-09-03 04:03:49 | 46.21212 | 16.53514 | 134° | 49km/h | 7029m | -2.8m/s | -22.9°C | 77.9% | 0hPa | 2.6V | 07:44:00 | 00:00:00 | 00:00:00 | |
| OM5KV | 2026-09-03 04:03:43 | 46.21261 | 16.53428 | 131° | 47km/h | 7045m | -2.8m/s | -23.0°C | 79.4% | 0hPa | 2.6V | 07:44:00 | 00:00:00 | 00:00:00 | |
| S52SK | 2026-09-03 04:03:41 | 46.21277 | 16.53402 | 135° | 51km/h | 7051m | -2.9m/s | -23.0°C | 79.5% | 0hPa | 2.6V | 00:00:00 | 00:00:00 | 00:00:00 | |
| OE3JTB-15 | 2026-09-03 04:03:23 | 46.21425 | 16.53147 | 135° | 49km/h | 7102m | -2.8m/s | -23.3°C | 79.7% | 0hPa | 2.6V | 00:00:00 | 00:00:00 | 00:00:00 | |
| OE3OSB-13 | 2026-09-03 04:03:21 | 46.21497 | 16.53021 | 132° | 49km/h | 7127m | -2.9m/s | 0°C | -1.0% | -1.0hPa | 2.6V | 00:00:00 | 00:00:00 | 00:00:00 | |
| OM5KV | 2026-09-03 04:03:14 | 46.21489 | 16.53034 | 133° | 47km/h | 7124m | -2.8m/s | -23.4°C | 80.2% | 0hPa | 2.6V | 07:45:00 | 00:00:00 | 00:00:00 | |
| OE3JTB-15 | 2026-09-03 04:02:54 | 46.21657 | 16.52759 | 130° | 42km/h | 7185m | -2.9m/s | -23.7°C | 81.7% | 0hPa | 2.6V | 00:00:00 | 02:16:24 | 00:00:00 | |
| OM5KV | 2026-09-03 04:02:51 | 46.21671 | 16.52734 | 133° | 42km/h | 7191m | -3.0m/s | -23.8°C | 78.9% | 0hPa | 2.6V | 07:45:00 | 00:00:00 | 00:00:00 | |
| OE3OSB-13 | 2026-09-03 04:02:50 | 46.21686 | 16.52713 | 137° | 42km/h | 7197m | -3.1m/s | 0°C | -1.0% | -1.0hPa | 2.6V | 00:00:00 | 00:00:00 | 00:00:00 | |
| OM5KV | 2026-09-03 04:02:46 | 46.21711 | 16.52676 | 130° | 49km/h | 7205m | -2.8m/s | -23.7°C | 77.8% | 0hPa | 2.6V | 07:45:00 | 00:00:00 | 00:00:00 | |
| OE3JTB-15 | 2026-09-03 04:02:25 | 46.21874 | 16.52423 | 139° | 42km/h | 7269m | -2.9m/s | -24.1°C | 80.8% | 0hPa | 2.6V | 00:00:00 | 00:00:00 | 00:00:00 | |
| OM5KV | 2026-09-03 04:02:23 | 46.21890 | 16.52403 | 140° | 44km/h | 7275m | -3.1m/s | -24.1°C | 77.5% | 0hPa | 2.5V | 07:46:00 | 00:00:00 | 00:00:00 | |
| S52SK | 2026-09-03 04:02:21 | 46.21898 | 16.52392 | 137° | 46km/h | 7278m | -2.8m/s | -24.1°C | 77.4% | 0hPa | 2.5V | 00:00:00 | 00:00:00 | 00:00:00 | |
| OE3OSB-13 | 2026-09-03 04:02:19 | 46.21956 | 16.52304 | 138° | 42km/h | 7301m | -3.0m/s | 0°C | -1.0% | -1.0hPa | 2.5V | 00:00:00 | 00:00:00 | 00:00:00 | |
| OM5KV | 2026-09-03 04:02:17 | 46.21934 | 16.52333 | 135° | 38km/h | 7293m | -2.9m/s | -24.1°C | 75.6% | 0hPa | 2.5V | 07:46:00 | 00:00:00 | 00:00:00 | |
| OM5KV | 2026-09-03 04:02:12 | 46.21972 | 16.52281 | 133° | 44km/h | 7307m | -3.0m/s | -24.2°C | 75.5% | 0hPa | 2.5V | 07:46:00 | 00:00:00 | 00:00:00 | |
| OM5KV | 2026-09-03 04:02:06 | 46.22015 | 16.52216 | 139° | 46km/h | 7325m | -3.0m/s | -24.4°C | 74.9% | 0hPa | 2.5V | 07:46:00 | 00:00:00 | 00:00:00 | |
| OM5KV | 2026-09-03 04:02:00 | 46.22052 | 16.52156 | 130° | 38km/h | 7340m | -3.0m/s | -24.4°C | 73.7% | 0hPa | 2.5V | 07:46:00 | 00:00:00 | 00:00:00 | |
| OM5KV | 2026-09-03 04:01:54 | 46.22105 | 16.52080 | 131° | 44km/h | 7362m | -3.0m/s | -24.6°C | 74.5% | 0hPa | 2.5V | 07:46:00 | 00:00:00 | 00:00:00 | |
| OM5KV | 2026-09-03 04:01:49 | 46.22140 | 16.52030 | 144° | 40km/h | 7376m | -3.0m/s | -24.7°C | 75.2% | 0hPa | 2.5V | 07:46:00 | 00:00:00 | 00:00:00 | |
| OE3OSB-13 | 2026-09-03 04:01:48 | 46.22148 | 16.52020 | 142° | 42km/h | 7379m | -3.2m/s | -24.8°C | -1.0% | -1.0hPa | 2.5V | 00:00:00 | 00:00:00 | 00:00:00 | |
| OE3JTB-15 | 2026-09-03 04:01:27 | 46.22306 | 16.51809 | 131° | 38km/h | 7446m | -2.7m/s | -25.3°C | 81.4% | 0hPa | 2.5V | 07:46:00 | 02:14:57 | 00:00:00 | |
| OM5KV | 2026-09-03 04:01:26 | 46.22306 | 16.51809 | 132° | 44km/h | 7446m | -2.8m/s | -25.3°C | 78.4% | 0hPa | 2.5V | 07:46:00 | 00:00:00 | 00:00:00 | |
| S52SK | 2026-09-03 04:01:19 | 46.22357 | 16.51727 | 144° | 35km/h | 7469m | -2.8m/s | -25.5°C | 79.4% | 0hPa | 2.5V | 00:00:00 | 00:00:00 | 00:00:00 | |
| OE3JTB-15 | 2026-09-03 04:00:58 | 46.22512 | 16.51551 | 153° | 38km/h | 7528m | -2.9m/s | -25.9°C | 81.8% | 0hPa | 2.5V | 00:00:00 | 00:00:00 | 00:00:00 | |
| OM5KV | 2026-09-03 04:00:57 | 46.22521 | 16.51546 | 154° | 37km/h | 7531m | -2.9m/s | -26.0°C | 78.8% | 0hPa | 2.5V | 07:46:00 | 00:00:00 | 00:00:00 | |
| OM5KV | 2026-09-03 04:00:51 | 46.22569 | 16.51495 | 136° | 37km/h | 7547m | -2.6m/s | -26.1°C | 79.4% | 0hPa | 2.5V | 07:46:00 | 00:00:00 | 00:00:00 | |
| OE3JTB-15 | 2026-09-03 04:00:29 | 46.22744 | 16.51339 | 156° | 46km/h | 7614m | -4.0m/s | -26.5°C | 80.1% | 0hPa | 2.5V | 00:00:00 | 00:00:00 | 00:00:00 | |
| OM5KV | 2026-09-03 04:00:27 | 46.22763 | 16.51326 | 158° | 42km/h | 7622m | -4.5m/s | -26.5°C | 76.2% | 0hPa | 2.5V | 07:47:00 | 00:00:00 | 00:00:00 | |
| PETON7-10 | 2026-09-03 04:00:06 | 46.22977 | 16.51148 | 149° | 47km/h | 7698m | -2.8m/s | -26.9°C | 77.0% | 0hPa | 2.5V | 00:00:00 | 02:13:36 | 00:00:00 | |
| OE3JTB-15 | 2026-09-03 04:00:00 | 46.23034 | 16.51115 | 161° | 49km/h | 7715m | -3.2m/s | -27.0°C | 76.4% | 0hPa | 2.5V | 00:00:00 | 02:13:30 | 00:00:00 | |
| PETON7-10 | 2026-09-03 03:59:51 | 46.23143 | 16.51048 | 148° | 46km/h | 7746m | -2.6m/s | -27.3°C | 76.0% | 0hPa | 2.5V | 00:00:00 | 00:00:00 | 00:00:00 | |
| PETON7-10 | 2026-09-03 03:59:36 | 46.23301 | 16.50939 | 163° | 58km/h | 7793m | -3.3m/s | -27.6°C | 74.7% | 0hPa | 2.5V | 00:00:00 | 00:00:00 | 00:00:00 | |
| OE3JTB-15 | 2026-09-03 03:59:31 | 46.23368 | 16.50905 | 158° | 57km/h | 7810m | -2.7m/s | -27.8°C | 76.5% | 0hPa | 2.5V | 00:00:00 | 00:00:00 | 00:00:00 | |
| PETON7-10 | 2026-09-03 03:59:21 | 46.23503 | 16.50810 | 148° | 57km/h | 7846m | -3.6m/s | -28.1°C | 73.4% | 0hPa | 2.6V | 00:00:00 | 02:12:51 | 00:00:00 | |
| PETON7-10 | 2026-09-03 03:59:06 | 46.23676 | 16.50632 | 142° | 53km/h | 7900m | -3.1m/s | -28.3°C | 64.5% | 0hPa | 2.6V | 00:00:00 | 00:00:00 | 00:00:00 | |
| PETON7-10 | 2026-09-03 03:58:51 | 46.23834 | 16.50441 | 138° | 53km/h | 7947m | -2.9m/s | -28.2°C | 46.0% | 0hPa | 2.5V | 00:00:00 | 00:00:00 | 00:00:00 | |
| PETON7-10 | 2026-09-03 03:58:36 | 46.23987 | 16.50260 | 151° | 53km/h | 7990m | -3.0m/s | -28.7°C | 48.3% | 0hPa | 2.5V | 07:49:00 | 02:12:06 | 00:00:00 | |
| OE3JTB-15 | 2026-09-03 03:58:33 | 46.24024 | 16.50232 | 153° | 53km/h | 7999m | -2.9m/s | -28.8°C | 51.2% | 0hPa | 2.5V | 00:00:00 | 02:12:03 | 00:00:00 | |
| PETON7-10 | 2026-09-03 03:58:21 | 46.24159 | 16.50110 | 148° | 53km/h | 8029m | -2.6m/s | -29.0°C | 50.0% | 0hPa | 2.5V | 00:00:00 | 00:00:00 | 00:00:00 | |
| PETON7-10 | 2026-09-03 03:58:06 | 46.24326 | 16.49949 | 144° | 55km/h | 8062m | -3.0m/s | -29.4°C | 53.9% | 0hPa | 2.6V | 00:00:00 | 00:00:00 | 00:00:00 | |
| OE3JTB-15 | 2026-09-03 03:58:04 | 46.24348 | 16.49925 | 143° | 60km/h | 8068m | -3.4m/s | -29.5°C | 54.3% | 0hPa | 2.6V | 00:00:00 | 00:00:00 | 00:00:00 | |
| PETON7-10 | 2026-09-03 03:57:51 | 46.24497 | 16.49774 | 148° | 64km/h | 8108m | -3.0m/s | -29.9°C | 53.7% | 0hPa | 2.5V | 00:00:00 | 02:11:21 | 00:00:00 | |
| PETON7-10 | 2026-09-03 03:57:36 | 46.24702 | 16.49584 | 148° | 71km/h | 8153m | -3.4m/s | -30.1°C | 44.1% | 0hPa | 2.5V | 00:00:00 | 00:00:00 | 00:00:00 | |
| OE3JTB-15 | 2026-09-03 03:57:35 | 46.24717 | 16.49571 | 147° | 73km/h | 8156m | -3.3m/s | -30.2°C | 44.6% | 0hPa | 2.5V | 07:50:00 | 00:00:00 | 00:00:00 | |
| PETON7-10 | 2026-09-03 03:57:21 | 46.24926 | 16.49365 | 145° | 75km/h | 8207m | -3.2m/s | -30.6°C | 44.9% | 0hPa | 2.5V | 00:00:00 | 00:00:00 | 00:00:00 | |
| PETON7-10 | 2026-09-03 03:57:06 | 46.25155 | 16.49129 | 145° | 78km/h | 8250m | -3.1m/s | -31.0°C | 44.5% | 0hPa | 2.5V | 00:00:00 | 02:10:36 | 00:00:00 | |
| PETON7-10 | 2026-09-03 03:56:50 | 46.25405 | 16.48853 | 143° | 82km/h | 8300m | -3.2m/s | -31.4°C | 42.9% | 0hPa | 2.5V | 00:00:00 | 00:00:00 | 00:00:00 | |
| OE3JTB-15 | 2026-09-03 03:56:37 | 46.25624 | 16.48629 | 146° | 78km/h | 8339m | -2.5m/s | -31.5°C | 38.1% | 0hPa | 2.5V | 00:00:00 | 00:00:00 | 00:00:00 | |
| PETON7-10 | 2026-09-03 03:56:35 | 46.25658 | 16.48597 | 148° | 80km/h | 8344m | -2.5m/s | -31.6°C | 38.4% | 0hPa | 2.5V | 07:51:00 | 00:00:00 | 00:00:00 | |
| PETON7-10 | 2026-09-03 03:56:20 | 46.25916 | 16.48367 | 149° | 78km/h | 8385m | -2.4m/s | -32.0°C | 41.3% | 0hPa | 2.5V | 00:00:00 | 02:09:50 | 00:00:00 | |
| OE3JTB-15 | 2026-09-03 03:56:08 | 46.26120 | 16.48193 | 149° | 82km/h | 8418m | -2.6m/s | -32.3°C | 41.0% | 0hPa | 2.5V | 00:00:00 | 00:00:00 | 00:00:00 | |
| PETON7-10 | 2026-09-03 03:56:05 | 46.26173 | 16.48147 | 149° | 84km/h | 8425m | -2.7m/s | -32.4°C | 40.8% | 0hPa | 2.5V | 00:00:00 | 00:00:00 | 00:00:00 | |
| PETON7-10 | 2026-09-03 03:55:50 | 46.26440 | 16.47907 | 149° | 82km/h | 8464m | -2.5m/s | -32.5°C | 37.9% | 0hPa | 2.5V | 00:00:00 | 00:00:00 | 00:00:00 | |
| OE3JTB-15 | 2026-09-03 03:55:39 | 46.26634 | 16.47736 | 149° | 86km/h | 8494m | -2.6m/s | -32.8°C | 37.8% | 0hPa | 2.5V | 00:00:00 | 02:09:09 | 00:00:00 | |
| PETON7-10 | 2026-09-03 03:55:35 | 46.26706 | 16.47672 | 149° | 84km/h | 8505m | -2.8m/s | -32.9°C | 37.2% | 0hPa | 2.5V | 00:00:00 | 02:09:05 | 00:00:00 | |
| PETON7-10 | 2026-09-03 03:55:20 | 46.26975 | 16.47423 | 146° | 88km/h | 8546m | -2.5m/s | -33.3°C | 37.6% | 0hPa | 2.5V | 00:00:00 | 00:00:00 | 00:00:00 | |
| OE3JTB-15 | 2026-09-03 03:55:10 | 46.27153 | 16.47234 | 144° | 84km/h | 8573m | -2.7m/s | -33.5°C | 37.8% | 0hPa | 2.5V | 00:00:00 | 00:00:00 | 00:00:00 | |
| PETON7-10 | 2026-09-03 03:55:05 | 46.27241 | 16.47138 | 143° | 86km/h | 8587m | -2.7m/s | -33.6°C | 37.8% | 0hPa | 2.5V | 00:00:00 | 00:00:00 | 00:00:00 | |
| OE3OSB-13 | 2026-09-03 03:55:04 | 46.27276 | 16.47099 | 141° | 86km/h | 8592m | -2.6m/s | -33.7°C | 35.3% | -1.0hPa | 2.5V | 00:00:00 | 00:00:00 | 00:00:00 | |
| PETON7-10 | 2026-09-03 03:54:50 | 46.27487 | 16.46836 | 138° | 80km/h | 8626m | -2.6m/s | -34.0°C | 36.3% | 0hPa | 2.5V | 00:00:00 | 02:08:20 | 00:00:00 | |
| OM5KV | 2026-09-03 03:54:43 | 46.27580 | 16.46714 | 138° | 80km/h | 8641m | -2.6m/s | -34.2°C | 33.5% | 0hPa | 2.5V | 07:53:00 | 00:00:00 | 00:00:00 | |
| OM5KV | 2026-09-03 03:54:38 | 46.27655 | 16.46614 | 138° | 80km/h | 8654m | -2.6m/s | -34.3°C | 32.8% | 0hPa | 2.5V | 07:53:00 | 00:00:00 | 00:00:00 | |
| PETON7-10 | 2026-09-03 03:54:20 | 46.27929 | 16.46276 | 138° | 75km/h | 8702m | -2.5m/s | -34.7°C | 36.8% | 0hPa | 2.5V | 00:00:00 | 00:00:00 | 00:00:00 | |
| OE3JTB-15 | 2026-09-03 03:54:12 | 46.28043 | 16.46127 | 140° | 73km/h | 8723m | -2.6m/s | -34.9°C | 39.1% | 0hPa | 2.5V | 00:00:00 | 02:07:42 | 00:00:00 | |
| PETON7-10 | 2026-09-03 03:54:05 | 46.28146 | 16.46012 | 146° | 73km/h | 8741m | -2.5m/s | -35.0°C | 46.9% | 0hPa | 2.5V | 00:00:00 | 02:07:35 | 00:00:00 | |
| PETON7-10 | 2026-09-03 03:53:50 | 46.28375 | 16.45792 | 149° | 75km/h | 8782m | -2.8m/s | -35.4°C | 60.2% | 0hPa | 2.5V | 00:00:00 | 00:00:00 | 00:00:00 | |
| OE3JTB-15 | 2026-09-03 03:53:43 | 46.28486 | 16.45694 | 150° | 80km/h | 8802m | -2.7m/s | -35.6°C | 66.1% | 0hPa | 2.6V | 07:53:00 | 00:00:00 | 00:00:00 | |
| PETON7-10 | 2026-09-03 03:53:35 | 46.28619 | 16.45587 | 152° | 80km/h | 8824m | -2.8m/s | -35.7°C | 61.4% | 0hPa | 2.5V | 00:00:00 | 00:00:00 | 00:00:00 | |
| PETON7-10 | 2026-09-03 03:53:20 | 46.28883 | 16.45363 | 146° | 82km/h | 8866m | -2.8m/s | -36.0°C | 62.3% | 0hPa | 2.5V | 00:00:00 | 02:06:50 | 00:00:00 | |
| OE3JTB-15 | 2026-09-03 03:53:14 | 46.28986 | 16.45258 | 146° | 80km/h | 8883m | -2.9m/s | -36.1°C | 61.2% | 0hPa | 2.5V | 00:00:00 | 00:00:00 | 00:00:00 | |
| PETON7-10 | 2026-09-03 03:53:05 | 46.29134 | 16.45094 | 140° | 78km/h | 8910m | -3.0m/s | -36.4°C | 61.9% | 0hPa | 2.5V | 00:00:00 | 00:00:00 | 00:00:00 | |
| PETON7-10 | 2026-09-03 03:52:50 | 46.29357 | 16.44803 | 137° | 80km/h | 8956m | -3.0m/s | -36.7°C | 60.4% | 0hPa | 2.5V | 00:00:00 | 00:00:00 | 00:00:00 | |
| PETON7-10 | 2026-09-03 03:52:35 | 46.29578 | 16.44501 | 138° | 84km/h | 9005m | -3.2m/s | -37.0°C | 52.3% | 0hPa | 2.5V | 07:55:00 | 02:06:05 | 00:00:00 | |
| PETON7-10 | 2026-09-03 03:52:20 | 46.29818 | 16.44197 | 139° | 84km/h | 9053m | -3.0m/s | -37.3°C | 49.9% | 0hPa | 2.5V | 00:00:00 | 00:00:00 | 00:00:00 | |
| OE3JTB-15 | 2026-09-03 03:52:16 | 46.29882 | 16.44113 | 136° | 78km/h | 9065m | -3.1m/s | -37.4°C | 49.8% | 0hPa | 2.6V | 00:00:00 | 00:00:00 | 00:00:00 | |
| PETON7-10 | 2026-09-03 03:52:05 | 46.30043 | 16.43876 | 134° | 75km/h | 9099m | -3.0m/s | -37.7°C | 51.5% | 0hPa | 2.5V | 00:00:00 | 00:00:00 | 00:00:00 | |
| PETON7-10 | 2026-09-03 03:51:50 | 46.30241 | 16.43581 | 135° | 73km/h | 9148m | -3.3m/s | -38.0°C | 51.4% | 0hPa | 2.5V | 00:00:00 | 02:05:20 | 00:00:00 | |
| OE3JTB-15 | 2026-09-03 03:51:47 | 46.30281 | 16.43523 | 135° | 75km/h | 9158m | -3.3m/s | -38.1°C | 50.5% | 0hPa | 2.5V | 00:00:00 | 00:00:00 | 00:00:00 | |
| PETON7-10 | 2026-09-03 03:51:35 | 46.30449 | 16.43321 | 144° | 77km/h | 9197m | -3.6m/s | -38.5°C | 51.5% | 0hPa | 2.5V | 00:00:00 | 00:00:00 | 00:00:00 | |
| PETON7-10 | 2026-09-03 03:51:20 | 46.30689 | 16.43086 | 147° | 80km/h | 9248m | -3.8m/s | -38.9°C | 52.5% | 0hPa | 2.5V | 00:00:00 | 00:00:00 | 00:00:00 | |
| OE3JTB-15 | 2026-09-03 03:51:18 | 46.30721 | 16.43056 | 147° | 84km/h | 9256m | -3.7m/s | -39.0°C | 52.6% | 0hPa | 2.5V | 00:00:00 | 02:04:48 | 00:00:00 | |
| PETON7-10 | 2026-09-03 03:51:05 | 46.30945 | 16.42849 | 148° | 88km/h | 9302m | -3.4m/s | -39.4°C | 54.1% | 0hPa | 2.5V | 00:00:00 | 02:04:35 | 00:00:00 | |
| PETON7-10 | 2026-09-03 03:50:50 | 46.31225 | 16.42586 | 147° | 91km/h | 9358m | -3.7m/s | -39.9°C | 54.9% | 0hPa | 2.5V | 00:00:00 | 00:00:00 | 00:00:00 | |
| OE3JTB-15 | 2026-09-03 03:50:49 | 46.31243 | 16.42568 | 147° | 93km/h | 9362m | -3.7m/s | -39.9°C | 55.1% | 0hPa | 2.6V | 00:00:00 | 00:00:00 | 00:00:00 | |
| PETON7-10 | 2026-09-03 03:50:35 | 46.31518 | 16.42316 | 149° | 97km/h | 9414m | -4.2m/s | -40.4°C | 54.0% | 0hPa | 2.5V | 07:57:00 | 00:00:00 | 00:00:00 | |
| OE3JTB-15 | 2026-09-03 03:50:20 | 46.31828 | 16.42040 | 149° | 102km/h | 9477m | -4.8m/s | -40.8°C | 49.5% | 0hPa | 2.5V | 00:00:00 | 00:00:00 | 00:00:00 | |
| PETON7-10 | 2026-09-03 03:50:05 | 46.32160 | 16.41767 | 152° | 104km/h | 9542m | -4.0m/s | -41.3°C | 44.1% | 0hPa | 2.5V | 00:00:00 | 00:00:00 | 00:00:00 | |
| OE3JTB-15 | 2026-09-03 03:49:51 | 46.32484 | 16.41518 | 150° | 113km/h | 9601m | -4.5m/s | -41.7°C | 40.8% | 0hPa | 2.5V | 07:57:00 | 02:03:21 | 00:00:00 | |
| PETON7-10 | 2026-09-03 03:49:50 | 46.32507 | 16.41497 | 149° | 111km/h | 9605m | -4.2m/s | -41.7°C | 40.6% | 0hPa | 2.5V | 00:00:00 | 00:00:00 | 00:00:00 | |
| PETON7-10 | 2026-09-03 03:49:35 | 46.32871 | 16.41182 | 150° | 115km/h | 9672m | -4.8m/s | -42.3°C | 40.9% | 0hPa | 2.5V | 00:00:00 | 02:03:05 | 00:00:00 | |
| OE5DRO-10 | 2026-09-03 03:49:25 | 46.33123 | 16.40973 | 150° | 120km/h | 9722m | -4.4m/s | -42.8°C | 41.0% | 0hPa | 2.5V | 00:00:00 | 00:00:00 | 00:00:00 | |
| OE3JTB-15 | 2026-09-03 03:49:22 | 46.33201 | 16.40909 | 151° | 124km/h | 9736m | -4.7m/s | -42.9°C | 40.3% | 0hPa | 2.5V | 00:00:00 | 00:00:00 | 00:00:00 | |
| PETON7-10 | 2026-09-03 03:49:20 | 46.33253 | 16.40866 | 151° | 122km/h | 9745m | -4.9m/s | -43.0°C | 38.9% | 0hPa | 2.5V | 00:00:00 | 00:00:00 | 00:00:00 | |
| OE5DRO-10 | 2026-09-03 03:49:06 | 46.33625 | 16.40544 | 149° | 128km/h | 9812m | -5.1m/s | -43.1°C | 26.2% | 0hPa | 2.6V | 00:00:00 | 00:00:00 | 00:00:00 | |
| PETON7-10 | 2026-09-03 03:49:05 | 46.33652 | 16.40521 | 149° | 128km/h | 9816m | -4.9m/s | -43.1°C | 25.5% | 0hPa | 2.5V | 00:00:00 | 00:00:00 | 00:00:00 | |
| OE3JTB-15 | 2026-09-03 03:48:53 | 46.33982 | 16.40231 | 150° | 131km/h | 9875m | -5.1m/s | -43.3°C | 20.7% | 0hPa | 2.5V | 00:00:00 | 00:00:00 | 00:00:00 | |
| PETON7-10 | 2026-09-03 03:48:50 | 46.34067 | 16.40159 | 151° | 131km/h | 9890m | -5.3m/s | -43.3°C | 20.6% | 0hPa | 2.5V | 00:00:00 | 02:02:20 | 00:00:00 | |
| OE5DRO-10 | 2026-09-03 03:48:47 | 46.34153 | 16.40086 | 151° | 131km/h | 9905m | -5.2m/s | -43.3°C | 20.9% | 0hPa | 2.5V | 00:00:00 | 00:00:00 | 00:00:00 | |
| PETON7-10 | 2026-09-03 03:48:35 | 46.34497 | 16.39793 | 149° | 133km/h | 9966m | -5.1m/s | -43.6°C | 23.5% | 0hPa | 2.5V | 07:59:00 | 00:00:00 | 00:00:00 | |
| OE5DRO-10 | 2026-09-03 03:48:27 | 46.34723 | 16.39584 | 148° | 131km/h | 10007m | -5.2m/s | -43.9°C | 25.9% | 0hPa | 2.5V | 00:00:00 | 00:00:00 | 00:00:00 | |
| OE3JTB-15 | 2026-09-03 03:48:24 | 46.34808 | 16.39504 | 147° | 131km/h | 10023m | -5.4m/s | -44.1°C | 27.1% | 0hPa | 2.5V | 00:00:00 | 02:01:54 | 00:00:00 | |
| PETON7-10 | 2026-09-03 03:48:20 | 46.34919 | 16.39396 | 147° | 131km/h | 10044m | -5.5m/s | -44.2°C | 28.4% | 0hPa | 2.5V | 00:00:00 | 00:00:00 | 00:00:00 | |
| OE5DRO-10 | 2026-09-03 03:48:08 | 46.35250 | 16.39069 | 145° | 130km/h | 10106m | -5.2m/s | -44.7°C | 34.9% | 0hPa | 2.5V | 00:00:00 | 00:00:00 | 00:00:00 | |
| PETON7-10 | 2026-09-03 03:48:05 | 46.35331 | 16.38987 | 146° | 130km/h | 10121m | -5.2m/s | -44.8°C | 36.4% | 0hPa | 2.6V | 00:00:00 | 02:01:35 | 00:00:00 | |
| OE3JTB-15 | 2026-09-03 03:47:55 | 46.35596 | 16.38713 | 144° | 128km/h | 10172m | -5.0m/s | -45.2°C | 41.8% | 0hPa | 2.6V | 00:00:00 | 00:00:00 | 00:00:00 | |
| PETON7-10 | 2026-09-03 03:47:50 | 46.35730 | 16.38572 | 144° | 130km/h | 10197m | -5.2m/s | -45.4°C | 47.4% | 0hPa | 2.5V | 00:00:00 | 00:00:00 | 00:00:00 | |
| OE5DRO-10 | 2026-09-03 03:47:49 | 46.35756 | 16.38543 | 143° | 128km/h | 10202m | -5.0m/s | -45.5°C | 48.5% | 0hPa | 2.5V | 07:59:00 | 00:00:00 | 00:00:00 | |
| PETON7-10 | 2026-09-03 03:47:35 | 46.36122 | 16.38148 | 144° | 128km/h | 10271m | -4.9m/s | -46.0°C | 53.5% | 0hPa | 2.5V | 00:00:00 | 00:00:00 | 00:00:00 | |
| OE5DRO-10 | 2026-09-03 03:47:30 | 46.36250 | 16.38007 | 143° | 131km/h | 10295m | -5.1m/s | -46.2°C | 53.8% | 0hPa | 2.5V | 00:00:00 | 00:00:00 | 00:00:00 | |
| OE3JTB-15 | 2026-09-03 03:47:26 | 46.36352 | 16.37893 | 143° | 130km/h | 10314m | -4.9m/s | -46.3°C | 54.6% | 0hPa | 2.5V | 00:00:00 | 00:00:00 | 00:00:00 | |
| PETON7-10 | 2026-09-03 03:47:20 | 46.36509 | 16.37718 | 143° | 131km/h | 10343m | -4.6m/s | -46.6°C | 55.4% | 0hPa | 2.5V | 00:00:00 | 02:00:50 | 00:00:00 | |
| OE5DRO-10 | 2026-09-03 03:47:11 | 46.36754 | 16.37453 | 143° | 124km/h | 10384m | -4.5m/s | -46.9°C | 55.2% | 0hPa | 2.5V | 00:00:00 | 00:00:00 | 00:00:00 | |
| PETON7-10 | 2026-09-03 03:47:05 | 46.36908 | 16.37284 | 143° | 124km/h | 10411m | -4.4m/s | -47.1°C | 54.6% | 0hPa | 2.5V | 08:00:00 | 00:00:00 | 00:00:00 | |
| OE3JTB-15 | 2026-09-03 03:46:57 | 46.37109 | 16.37062 | 143° | 122km/h | 10448m | -5.1m/s | -47.4°C | 52.9% | 0hPa | 2.5V | 00:00:00 | 02:00:27 | 00:00:00 | |
| OE5DRO-10 | 2026-09-03 03:46:52 | 46.37233 | 16.36929 | 145° | 122km/h | 10471m | -4.3m/s | -47.6°C | 53.1% | 0hPa | 2.5V | 00:00:00 | 00:00:00 | 00:00:00 | |
| PETON7-10 | 2026-09-03 03:46:50 | 46.37282 | 16.36877 | 145° | 122km/h | 10480m | -4.2m/s | -47.6°C | 53.1% | 0hPa | 2.5V | 00:00:00 | 00:00:00 | 00:00:00 | |
| PETON7-10 | 2026-09-03 03:46:35 | 46.37667 | 16.36509 | 148° | 126km/h | 10543m | -4.0m/s | -48.0°C | 51.9% | 0hPa | 2.5V | 00:00:00 | 02:00:05 | 00:00:00 | |
| OE5DRO-10 | 2026-09-03 03:46:33 | 46.37720 | 16.36460 | 148° | 126km/h | 10552m | -4.4m/s | -48.1°C | 51.8% | 0hPa | 2.5V | 00:00:00 | 00:00:00 | 00:00:00 | |
| OE3JTB-15 | 2026-09-03 03:46:28 | 46.37853 | 16.36339 | 148° | 128km/h | 10573m | -4.2m/s | -48.3°C | 51.1% | 0hPa | 2.5V | 00:00:00 | 00:00:00 | 00:00:00 | |
| PETON7-10 | 2026-09-03 03:46:20 | 46.38069 | 16.36144 | 149° | 128km/h | 10607m | -4.7m/s | -48.4°C | 49.1% | 0hPa | 2.5V | 00:00:00 | 00:00:00 | 00:00:00 | |
| OE5DRO-10 | 2026-09-03 03:46:14 | 46.38236 | 16.35994 | 149° | 128km/h | 10633m | -4.1m/s | -48.6°C | 47.8% | 0hPa | 2.5V | 08:01:00 | 00:00:00 | 00:00:00 | |
| OE8JPQ-2 | 2026-09-03 03:46:10 | 46.38347 | 16.35895 | 149° | 128km/h | 10649m | -4.2m/s | -48.7°C | 47.1% | 0hPa | 2.5V | 00:00:00 | 00:00:00 | 00:00:00 | |
| PETON7-10 | 2026-09-03 03:46:05 | 46.38485 | 16.35776 | 150° | 130km/h | 10670m | -4.2m/s | -48.8°C | 46.5% | 0hPa | 2.6V | 00:00:00 | 00:00:00 | 00:00:00 | |
| OE3JTB-15 | 2026-09-03 03:45:56 | 46.38736 | 16.35564 | 151° | 128km/h | 10708m | -4.1m/s | -49.1°C | 46.5% | 0hPa | 2.6V | 00:00:00 | 00:00:00 | 00:00:00 | |
| OE5DRO-10 | 2026-09-03 03:45:55 | 46.38764 | 16.35540 | 151° | 130km/h | 10712m | -4.1m/s | -49.1°C | 46.5% | 0hPa | 2.6V | 00:00:00 | 00:00:00 | 00:00:00 | |
| OE8JPQ-2 | 2026-09-03 03:45:50 | 46.38907 | 16.35424 | 151° | 130km/h | 10733m | -4.1m/s | -49.3°C | 46.3% | 0hPa | 2.6V | 00:00:00 | 00:00:00 | 00:00:00 | |
| PETON7-10 | 2026-09-03 03:45:49 | 46.38935 | 16.35401 | 151° | 130km/h | 10737m | -4.2m/s | -49.4°C | 46.3% | 0hPa | 2.6V | 00:00:00 | 01:59:19 | 00:00:00 | |
| OE5DRO-10 | 2026-09-03 03:45:36 | 46.39307 | 16.35111 | 153° | 135km/h | 10790m | -4.2m/s | -49.8°C | 45.8% | 0hPa | 2.6V | 00:00:00 | 00:00:00 | 00:00:00 | |
| PETON7-10 | 2026-09-03 03:45:34 | 46.39366 | 16.35066 | 153° | 135km/h | 10798m | -4.1m/s | -49.8°C | 45.8% | 0hPa | 2.6V | 00:00:00 | 00:00:00 | 00:00:00 | |
| OE8JPQ-2 | 2026-09-03 03:45:30 | 46.39486 | 16.34975 | 153° | 137km/h | 10814m | -3.9m/s | -49.9°C | 45.1% | 0hPa | 2.5V | 00:00:00 | 01:59:00 | 00:00:00 | |
| PG1ADW-2 | 2026-09-03 03:45:21 | 46.39761 | 16.34770 | 153° | 139km/h | 10850m | -3.8m/s | -50.1°C | 44.1% | 0hPa | 2.5V | 00:00:00 | 00:00:00 | 00:00:00 | |
| PETON7-10 | 2026-09-03 03:45:19 | 46.39822 | 16.34724 | 153° | 139km/h | 10858m | -4.0m/s | -50.2°C | 43.9% | 0hPa | 2.6V | 00:00:00 | 00:00:00 | 00:00:00 | |
| OE5DRO-10 | 2026-09-03 03:45:17 | 46.39884 | 16.34677 | 153° | 139km/h | 10866m | -4.2m/s | -50.2°C | 43.9% | 0hPa | 2.6V | 00:00:00 | 00:00:00 | 00:00:00 | |
| OE8JPQ-2 | 2026-09-03 03:45:10 | 46.40102 | 16.34518 | 153° | 141km/h | 10894m | -3.9m/s | -50.4°C | 44.3% | 0hPa | 2.6V | 08:02:00 | 00:00:00 | 00:00:00 | |
| PETON7-10 | 2026-09-03 03:45:04 | 46.40287 | 16.34370 | 150° | 141km/h | 10917m | -4.4m/s | -50.6°C | 45.4% | 0hPa | 2.5V | 00:00:00 | 01:58:34 | 00:00:00 | |
| PG1ADW-2 | 2026-09-03 03:45:01 | 46.40378 | 16.34290 | 149° | 141km/h | 10930m | -4.1m/s | -50.7°C | 45.9% | 0hPa | 2.5V | 00:00:00 | 00:00:00 | 00:00:00 | |
| OE5DRO-10 | 2026-09-03 03:44:58 | 46.40469 | 16.34210 | 149° | 141km/h | 10941m | -4.0m/s | -50.8°C | 46.8% | 0hPa | 2.5V | 00:00:00 | 00:00:00 | 00:00:00 | |
| OE8JPQ-2 | 2026-09-03 03:44:50 | 46.40714 | 16.34000 | 150° | 141km/h | 10974m | -3.9m/s | -51.1°C | 48.3% | 0hPa | 2.5V | 00:00:00 | 00:00:00 | 00:00:00 | |
| PETON7-10 | 2026-09-03 03:44:49 | 46.40745 | 16.33973 | 150° | 141km/h | 10978m | -3.9m/s | -51.1°C | 48.6% | 0hPa | 2.5V | 08:02:00 | 00:00:00 | 00:00:00 | |
| PG1ADW-2 | 2026-09-03 03:44:41 | 46.40991 | 16.33761 | 149° | 137km/h | 11011m | -3.9m/s | -51.4°C | 49.8% | 0hPa | 2.5V | 00:00:00 | 00:00:00 | 00:00:00 | |
| OE5DRO-10 | 2026-09-03 03:44:39 | 46.41051 | 16.33707 | 149° | 135km/h | 11019m | -4.0m/s | -51.5°C | 50.4% | 0hPa | 2.5V | 00:00:00 | 00:00:00 | 00:00:00 | |
| PETON7-10 | 2026-09-03 03:44:34 | 46.41200 | 16.33570 | 148° | 135km/h | 11039m | -4.1m/s | -51.7°C | 51.1% | 0hPa | 2.5V | 00:00:00 | 00:00:00 | 00:00:00 | |
| OE8JPQ-2 | 2026-09-03 03:44:30 | 46.41317 | 16.33460 | 147° | 131km/h | 11055m | -3.9m/s | -51.8°C | 51.4% | 0hPa | 2.5V | 00:00:00 | 01:58:00 | 00:00:00 | |
| PG1ADW-2 | 2026-09-03 03:44:21 | 46.41571 | 16.33219 | 147° | 128km/h | 11091m | -4.2m/s | -52.1°C | 51.0% | 0hPa | 2.5V | 00:00:00 | 01:57:51 | 00:00:00 | |
| OE5DRO-10 | 2026-09-03 03:44:20 | 46.41598 | 16.33193 | 147° | 128km/h | 11095m | -3.9m/s | -52.1°C | 51.0% | 0hPa | 2.6V | 00:00:00 | 00:00:00 | 00:00:00 | |
| PETON7-10 | 2026-09-03 03:44:19 | 46.41626 | 16.33167 | 147° | 130km/h | 11099m | -4.0m/s | -52.2°C | 50.9% | 0hPa | 2.5V | 00:00:00 | 01:57:49 | 00:00:00 | |
| OE8JPQ-2 | 2026-09-03 03:44:10 | 46.41874 | 16.32934 | 148° | 126km/h | 11135m | -4.2m/s | -52.4°C | 50.2% | 0hPa | 2.5V | 00:00:00 | 00:00:00 | 00:00:00 | |
| PETON7-10 | 2026-09-03 03:44:04 | 46.42038 | 16.32784 | 150° | 124km/h | 11159m | -3.7m/s | -52.6°C | 50.7% | 0hPa | 2.5V | 00:00:00 | 00:00:00 | 00:00:00 | |
| OE5DRO-10 | 2026-09-03 03:44:01 | 46.42120 | 16.32716 | 152° | 124km/h | 11170m | -3.8m/s | -52.7°C | 50.7% | 0hPa | 2.6V | 00:00:00 | 00:00:00 | 00:00:00 | |
| OE8JPQ-2 | 2026-09-03 03:43:50 | 46.42427 | 16.32481 | 152° | 126km/h | 11213m | -3.8m/s | -53.1°C | 50.3% | 0hPa | 2.6V | 00:00:00 | 00:00:00 | 00:00:00 | |
| PETON7-10 | 2026-09-03 03:43:49 | 46.42455 | 16.32460 | 152° | 124km/h | 11216m | -3.8m/s | -53.1°C | 50.4% | 0hPa | 2.6V | 00:00:00 | 00:00:00 | 00:00:00 | |
| OE5DRO-10 | 2026-09-03 03:43:42 | 46.42648 | 16.32308 | 152° | 126km/h | 11244m | -4.1m/s | -53.3°C | 49.7% | 0hPa | 2.6V | 00:00:00 | 00:00:00 | 00:00:00 | |
| PG1ADW-2 | 2026-09-03 03:43:41 | 46.42676 | 16.32287 | 152° | 126km/h | 11248m | -3.8m/s | -53.4°C | 49.6% | 0hPa | 2.6V | 00:00:00 | 00:00:00 | 00:00:00 | |
| PETON7-10 | 2026-09-03 03:43:34 | 46.42869 | 16.32131 | 150° | 128km/h | 11274m | -3.6m/s | -53.5°C | 48.5% | 0hPa | 2.6V | 00:00:00 | 01:57:04 | 00:00:00 | |
| OE3JTB-15 | 2026-09-03 03:43:32 | 46.42925 | 16.32084 | 150° | 126km/h | 11281m | -3.8m/s | -53.6°C | 48.0% | 0hPa | 2.6V | 00:00:00 | 01:57:02 | 00:00:00 | |
| OE8JPQ-2 | 2026-09-03 03:43:29 | 46.43009 | 16.32012 | 150° | 126km/h | 11292m | -3.7m/s | -53.7°C | 47.7% | 0hPa | 2.6V | 00:00:00 | 01:56:59 | 00:00:00 | |
| OE5DRO-10 | 2026-09-03 03:43:23 | 46.43175 | 16.31869 | 150° | 126km/h | 11315m | -4.0m/s | -53.7°C | 47.0% | 0hPa | 2.6V | 08:04:00 | 00:00:00 | 00:00:00 | |
| PETON7-10 | 2026-09-03 03:43:19 | 46.43285 | 16.31775 | 151° | 126km/h | 11330m | -3.5m/s | -53.8°C | 47.2% | 0hPa | 2.5V | 00:00:00 | 00:00:00 | 00:00:00 | |
| OE8JPQ-2 | 2026-09-03 03:43:09 | 46.43562 | 16.31547 | 151° | 128km/h | 11367m | -3.4m/s | -54.0°C | 47.7% | 0hPa | 2.5V | 00:00:00 | 00:00:00 | 00:00:00 | |
| PETON7-10 | 2026-09-03 03:43:04 | 46.43701 | 16.31431 | 151° | 128km/h | 11384m | -3.4m/s | -54.1°C | 47.8% | 0hPa | 2.5V | 00:00:00 | 00:00:00 | 00:00:00 | |
| OE3JTB-15 | 2026-09-03 03:43:03 | 46.43730 | 16.31407 | 150° | 128km/h | 11388m | -3.5m/s | -54.2°C | 47.7% | 0hPa | 2.5V | 08:04:00 | 00:00:00 | 00:00:00 | |
| PG1ADW-2 | 2026-09-03 03:43:01 | 46.43787 | 16.31360 | 151° | 128km/h | 11394m | -3.8m/s | -54.2°C | 47.5% | 0hPa | 2.6V | 00:00:00 | 01:56:31 | 00:00:00 | |
| PETON7-10 | 2026-09-03 03:42:49 | 46.44124 | 16.31081 | 151° | 130km/h | 11438m | -3.9m/s | -54.5°C | 48.4% | 0hPa | 2.6V | 00:00:00 | 01:56:19 | 00:00:00 | |
| OE8JPQ-2 | 2026-09-03 03:42:48 | 46.44152 | 16.31058 | 151° | 130km/h | 11442m | -3.8m/s | -54.5°C | 48.5% | 0hPa | 2.6V | 00:00:00 | 00:00:00 | 00:00:00 | |
| OE5DRO-10 | 2026-09-03 03:42:45 | 46.44238 | 16.30988 | 151° | 128km/h | 11454m | -3.7m/s | -54.5°C | 48.6% | 0hPa | 2.6V | 00:00:00 | 00:00:00 | 00:00:00 | |
| PG1ADW-2 | 2026-09-03 03:42:41 | 46.44352 | 16.30895 | 150° | 128km/h | 11469m | -3.4m/s | -54.6°C | 49.1% | 0hPa | 2.6V | 00:00:00 | 00:00:00 | 00:00:00 | |
| PETON7-10 | 2026-09-03 03:42:34 | 46.44550 | 16.30733 | 151° | 128km/h | 11494m | -3.5m/s | -54.8°C | 49.9% | 0hPa | 2.6V | 08:05:00 | 00:00:00 | 00:00:00 | |
| OE3JTB-15 | 2026-09-03 03:42:33 | 46.44578 | 16.30710 | 150° | 128km/h | 11498m | -3.4m/s | -54.9°C | 50.0% | 0hPa | 2.5V | 00:00:00 | 00:00:00 | 00:00:00 | |
| OE8JPQ-2 | 2026-09-03 03:42:28 | 46.44719 | 16.30593 | 151° | 128km/h | 11516m | -3.7m/s | -55.0°C | 50.4% | 0hPa | 2.5V | 00:00:00 | 01:55:58 | 00:00:00 | |
| OE5DRO-10 | 2026-09-03 03:42:26 | 46.44775 | 16.30546 | 150° | 128km/h | 11523m | -3.3m/s | -55.1°C | 50.6% | 0hPa | 2.5V | 00:00:00 | 00:00:00 | 00:00:00 | |
| PG1ADW-2 | 2026-09-03 03:42:21 | 46.44914 | 16.30429 | 150° | 128km/h | 11541m | -3.8m/s | -55.3°C | 50.9% | 0hPa | 2.6V | 00:00:00 | 00:00:00 | 00:00:00 | |
| PETON7-10 | 2026-09-03 03:42:19 | 46.44968 | 16.30382 | 149° | 128km/h | 11548m | -3.6m/s | -55.3°C | 51.1% | 0hPa | 2.6V | 00:00:00 | 00:00:00 | 00:00:00 | |
| OE8JPQ-2 | 2026-09-03 03:42:08 | 46.45273 | 16.30118 | 149° | 128km/h | 11588m | -3.6m/s | -55.6°C | 51.5% | 0hPa | 2.6V | 08:05:00 | 00:00:00 | 00:00:00 | |
| OE5DRO-10 | 2026-09-03 03:42:07 | 46.45300 | 16.30093 | 149° | 128km/h | 11592m | -4.1m/s | -55.6°C | 51.1% | 0hPa | 2.6V | 00:00:00 | 00:00:00 | 00:00:00 | |
| OE3JTB-15 | 2026-09-03 03:42:04 | 46.45383 | 16.30019 | 148° | 126km/h | 11603m | -3.5m/s | -55.7°C | 51.5% | 0hPa | 2.6V | 00:00:00 | 01:55:34 | 00:00:00 | |
| PG1ADW-2 | 2026-09-03 03:42:01 | 46.45466 | 16.29945 | 149° | 126km/h | 11614m | -4.0m/s | -55.7°C | 51.4% | 0hPa | 2.6V | 00:00:00 | 00:00:00 | 00:00:00 | |
| PETON7-10 | 2026-09-03 03:41:49 | 46.45795 | 16.29644 | 147° | 124km/h | 11659m | -4.0m/s | -56.0°C | 51.1% | 0hPa | 2.6V | 00:00:00 | 00:00:00 | 00:00:00 | |
| OE8JPQ-2 | 2026-09-03 03:41:48 | 46.45821 | 16.29619 | 147° | 124km/h | 11663m | -4.2m/s | -56.0°C | 51.0% | 0hPa | 2.5V | 00:00:00 | 00:00:00 | 00:00:00 | |
| PG1ADW-2 | 2026-09-03 03:41:41 | 46.46004 | 16.29441 | 147° | 120km/h | 11689m | -4.1m/s | -56.2°C | 50.6% | 0hPa | 2.5V | 00:00:00 | 01:55:12 | 00:00:00 | |
| OE3JTB-15 | 2026-09-03 03:41:35 | 46.46160 | 16.29288 | 146° | 119km/h | 11712m | -4.3m/s | -56.4°C | 50.6% | 0hPa | 2.5V | 00:00:00 | 00:00:00 | 00:00:00 | |
| PETON7-10 | 2026-09-03 03:41:34 | 46.46186 | 16.29262 | 146° | 119km/h | 11716m | -3.9m/s | -56.4°C | 50.6% | 0hPa | 2.5V | 00:00:00 | 00:00:00 | 00:00:00 | |
| OE5DRO-10 | 2026-09-03 03:41:29 | 46.46312 | 16.29136 | 145° | 117km/h | 11737m | -3.9m/s | -56.6°C | 50.0% | 0hPa | 2.5V | 00:00:00 | 00:00:00 | 00:00:00 | |
| OE8JPQ-2 | 2026-09-03 03:41:28 | 46.46338 | 16.29111 | 147° | 117km/h | 11741m | -4.1m/s | -56.7°C | 49.8% | 0hPa | 2.5V | 00:00:00 | 01:54:59 | 00:00:00 | |
| PG1ADW-2 | 2026-09-03 03:41:21 | 46.46512 | 16.28940 | 146° | 117km/h | 11772m | -4.7m/s | -56.9°C | 48.6% | 0hPa | 2.5V | 00:00:00 | 00:00:00 | 00:00:00 | |
| PETON7-10 | 2026-09-03 03:41:19 | 46.46560 | 16.28892 | 146° | 117km/h | 11781m | -4.5m/s | -57.0°C | 47.9% | 0hPa | 2.5V | 00:00:00 | 01:54:50 | 00:00:00 | |
| OE5DXL-15 | 2026-09-03 03:41:14 | 46.46681 | 16.28771 | 145° | 120km/h | 11802m | -4.8m/s | -57.1°C | 45.4% | 0hPa | 2.5V | 00:00:00 | 00:00:00 | 00:00:00 | |
| OE5DRO-10 | 2026-09-03 03:41:10 | 46.46777 | 16.28671 | 145° | 117km/h | 11820m | -4.4m/s | -57.1°C | 42.4% | 0hPa | 2.5V | 00:00:00 | 00:00:00 | 00:00:00 | |
| OE8JPQ-2 | 2026-09-03 03:41:08 | 46.46825 | 16.28620 | 145° | 117km/h | 11828m | -4.4m/s | -57.1°C | 41.0% | 0hPa | 2.5V | 00:00:00 | 00:00:00 | 00:00:00 | |
| OE3JTB-15 | 2026-09-03 03:41:06 | 46.46872 | 16.28570 | 145° | 120km/h | 11836m | -4.5m/s | -57.1°C | 40.2% | 0hPa | 2.5V | 00:00:00 | 00:00:00 | 00:00:00 | |
| PETON7-10 | 2026-09-03 03:41:04 | 46.46919 | 16.28520 | 144° | 117km/h | 11845m | -4.6m/s | -57.0°C | 39.2% | 0hPa | 2.5V | 00:00:00 | 00:00:00 | 00:00:00 | |
| PG1ADW-2 | 2026-09-03 03:41:01 | 46.46989 | 16.28443 | 143° | 120km/h | 11858m | -4.7m/s | -57.0°C | 38.0% | 0hPa | 2.5V | 00:00:00 | 00:00:00 | 00:00:00 | |
| OE5DRO-10 | 2026-09-03 03:40:51 | 46.47222 | 16.28174 | 141° | 124km/h | 11904m | -4.8m/s | -57.0°C | 34.7% | 0hPa | 2.5V | 00:00:00 | 00:00:00 | 00:00:00 | |
| PETON7-10 | 2026-09-03 03:40:49 | 46.47269 | 16.28118 | 141° | 124km/h | 11914m | -4.5m/s | -57.1°C | 34.0% | 0hPa | 2.5V | 00:00:00 | 00:00:00 | 00:00:00 | |
| OE8JPQ-2 | 2026-09-03 03:40:48 | 46.47294 | 16.28089 | 141° | 122km/h | 11918m | -4.4m/s | -57.1°C | 33.5% | 0hPa | 2.5V | 00:00:00 | 00:00:00 | 00:00:00 | |
| OE5DXL-15 | 2026-09-03 03:40:44 | 46.47393 | 16.27976 | 143° | 119km/h | 11936m | -5.0m/s | -57.0°C | 31.6% | 0hPa | 2.5V | 00:00:00 | 00:00:00 | 00:00:00 | |
| PG1ADW-2 | 2026-09-03 03:40:41 | 46.47467 | 16.27892 | 142° | 120km/h | 11951m | -4.6m/s | -57.0°C | 30.6% | 0hPa | 2.5V | 00:00:00 | 00:00:00 | 00:00:00 | |
| OE3JTB-15 | 2026-09-03 03:40:37 | 46.47564 | 16.27778 | 141° | 115km/h | 11970m | -4.7m/s | -56.9°C | 29.4% | 0hPa | 2.5V | 00:00:00 | 01:54:08 | 00:00:00 | |
| PETON7-10 | 2026-09-03 03:40:34 | 46.47636 | 16.27692 | 140° | 117km/h | 11984m | -4.5m/s | -56.8°C | 28.5% | 0hPa | 2.5V | 00:00:00 | 01:54:05 | 00:00:00 | |
| OE5DRO-10 | 2026-09-03 03:40:32 | 46.47683 | 16.27634 | 139° | 115km/h | 11994m | -4.8m/s | -56.8°C | 28.2% | 0hPa | 2.5V | 08:07:00 | 00:00:00 | 00:00:00 | |
| OE8JPQ-2 | 2026-09-03 03:40:28 | 46.47773 | 16.27519 | 139° | 113km/h | 12013m | -4.7m/s | -56.8°C | 27.5% | 0hPa | 2.5V | 00:00:00 | 01:53:59 | 00:00:00 | |
| PG1ADW-2 | 2026-09-03 03:40:21 | 46.47927 | 16.27324 | 140° | 111km/h | 12046m | -4.6m/s | -56.7°C | 26.2% | 0hPa | 2.5V | 08:07:00 | 01:53:52 | 00:00:00 | |
| PETON7-10 | 2026-09-03 03:40:19 | 46.47971 | 16.27270 | 141° | 111km/h | 12055m | -4.9m/s | -56.8°C | 25.8% | 0hPa | 2.5V | 08:07:00 | 00:00:00 | 00:00:00 | |
| OE5DXL-15 | 2026-09-03 03:40:14 | 46.48080 | 16.27140 | 142° | 111km/h | 12080m | -5.0m/s | -56.9°C | 25.3% | 0hPa | 2.5V | 00:00:00 | 00:00:00 | 00:00:00 | |
| OE5DRO-10 | 2026-09-03 03:40:13 | 46.48101 | 16.27115 | 141° | 110km/h | 12085m | -5.3m/s | -57.0°C | 25.2% | 0hPa | 2.5V | 00:00:00 | 00:00:00 | 00:00:00 | |
| OE8JPQ-2 | 2026-09-03 03:40:08 | 46.48212 | 16.26989 | 144° | 111km/h | 12109m | -4.8m/s | -57.0°C | 24.1% | 0hPa | 2.5V | 00:00:00 | 00:00:00 | 00:00:00 | |
| OE3OSB-13 | 2026-09-03 03:40:04 | 46.48348 | 16.26847 | 145° | 108km/h | 12137m | -5.0m/s | -57.0°C | 17.8% | -1.0hPa | 2.6V | 00:00:00 | 00:00:00 | 00:00:00 | |
| PG1ADW-2 | 2026-09-03 03:40:01 | 46.48371 | 16.26824 | 146° | 113km/h | 12142m | -5.1m/s | -57.0°C | 22.8% | 0hPa | 2.6V | 00:00:00 | 00:00:00 | 00:00:00 | |
| OE5DRO-10 | 2026-09-03 03:39:54 | 46.48533 | 16.26668 | 148° | 115km/h | 12177m | -5.0m/s | -56.8°C | 22.1% | 0hPa | 2.6V | 00:00:00 | 00:00:00 | 00:00:00 | |
| PETON7-10 | 2026-09-03 03:39:49 | 46.48650 | 16.26551 | 144° | 117km/h | 12202m | -5.1m/s | -56.9°C | 21.7% | 0hPa | 2.6V | 00:00:00 | 01:53:20 | 00:00:00 | |
| OE8JPQ-2 | 2026-09-03 03:39:48 | 46.48673 | 16.26526 | 144° | 117km/h | 12207m | -4.8m/s | -56.9°C | 21.6% | 0hPa | 2.6V | 00:00:00 | 00:00:00 | 00:00:00 | |
| OE5DXL-15 | 2026-09-03 03:39:44 | 46.48766 | 16.26423 | 142° | 119km/h | 12229m | -5.3m/s | -57.0°C | 21.1% | 0hPa | 2.6V | 00:00:00 | 00:00:00 | 00:00:00 | |
| PG1ADW-2 | 2026-09-03 03:39:41 | 46.48836 | 16.26342 | 142° | 119km/h | 12245m | -5.8m/s | -57.1°C | 20.9% | 0hPa | 2.6V | 00:00:00 | 00:00:00 | 00:00:00 | |
| OE5DRO-10 | 2026-09-03 03:39:35 | 46.48977 | 16.26182 | 143° | 119km/h | 12278m | -5.4m/s | -56.9°C | 19.6% | 0hPa | 2.6V | 00:00:00 | 00:00:00 | 00:00:00 | |
| PETON7-10 | 2026-09-03 03:39:34 | 46.49001 | 16.26156 | 142° | 119km/h | 12283m | -5.0m/s | -56.8°C | 19.3% | 0hPa | 2.5V | 00:00:00 | 00:00:00 | 00:00:00 | |
| OE8JPQ-2 | 2026-09-03 03:39:28 | 46.49140 | 16.25992 | 141° | 120km/h | 12312m | -5.3m/s | -56.5°C | 18.6% | 0hPa | 2.5V | 00:00:00 | 01:52:59 | 00:00:00 | |
| PG1ADW-2 | 2026-09-03 03:39:21 | 46.49300 | 16.25794 | 140° | 122km/h | 12347m | -5.3m/s | -56.7°C | 18.7% | 0hPa | 2.5V | 00:00:00 | 00:00:00 | 00:00:00 | |
| PETON7-10 | 2026-09-03 03:39:19 | 46.49345 | 16.25737 | 139° | 122km/h | 12357m | -5.5m/s | -56.7°C | 18.8% | 0hPa | 2.5V | 00:00:00 | 00:00:00 | 00:00:00 | |
| OE5DRO-10 | 2026-09-03 03:39:16 | 46.49411 | 16.25649 | 139° | 124km/h | 12371m | -4.5m/s | -56.7°C | 18.8% | 0hPa | 2.5V | 00:00:00 | 00:00:00 | 00:00:00 | |
| OE5DXL-15 | 2026-09-03 03:39:14 | 46.49457 | 16.25590 | 139° | 124km/h | 12381m | -4.6m/s | -56.7°C | 18.9% | 0hPa | 2.5V | 08:08:00 | 00:00:00 | 00:00:00 | |
| OE8JPQ-2 | 2026-09-03 03:39:08 | 46.49599 | 16.25413 | 141° | 124km/h | 12410m | -5.0m/s | -56.7°C | 18.8% | 0hPa | 2.5V | 08:08:00 | 00:00:00 | 00:00:00 | |
| PETON7-10 | 2026-09-03 03:39:04 | 46.49697 | 16.25296 | 142° | 124km/h | 12429m | -4.6m/s | -56.7°C | 18.6% | 0hPa | 2.5V | 00:00:00 | 01:52:35 | 00:00:00 | |
| PG1ADW-2 | 2026-09-03 03:39:01 | 46.49773 | 16.25212 | 144° | 124km/h | 12443m | -4.9m/s | -56.7°C | 18.4% | 0hPa | 2.5V | 00:00:00 | 01:52:32 | 00:00:00 | |
| OE5DRO-10 | 2026-09-03 03:38:57 | 46.49873 | 16.25101 | 143° | 122km/h | 12461m | -4.8m/s | -56.7°C | 18.5% | 0hPa | 2.5V | 00:00:00 | 00:00:00 | 00:00:00 | |
| PETON7-10 | 2026-09-03 03:38:49 | 46.50070 | 16.24872 | 139° | 119km/h | 12496m | -3.9m/s | -56.7°C | 18.0% | 0hPa | 2.5V | 00:00:00 | 00:00:00 | 00:00:00 | |
| OE8JPQ-2 | 2026-09-03 03:38:48 | 46.50094 | 16.24841 | 139° | 117km/h | 12500m | -4.5m/s | -56.7°C | 17.8% | 0hPa | 2.5V | 00:00:00 | 00:00:00 | 00:00:00 | |
| OE5DXL-15 | 2026-09-03 03:38:44 | 46.50186 | 16.24720 | 137° | 110km/h | 12517m | -4.2m/s | -56.7°C | 17.7% | 0hPa | 2.5V | 00:00:00 | 00:00:00 | 00:00:00 | |
| PG1ADW-2 | 2026-09-03 03:38:41 | 46.50252 | 16.24629 | 136° | 113km/h | 12529m | -4.0m/s | -56.8°C | 17.7% | 0hPa | 2.5V | 00:00:00 | 00:00:00 | 00:00:00 | |
| OE5DRO-10 | 2026-09-03 03:38:38 | 46.50316 | 16.24540 | 136° | 111km/h | 12543m | -4.5m/s | -56.8°C | 17.4% | 0hPa | 2.5V | 00:00:00 | 00:00:00 | 00:00:00 | |
| PETON7-10 | 2026-09-03 03:38:34 | 46.50399 | 16.24422 | 136° | 110km/h | 12560m | -4.7m/s | -56.8°C | 16.6% | 0hPa | 2.5V | 00:00:00 | 00:00:00 | 00:00:00 | |
| OE8JPQ-2 | 2026-09-03 03:38:28 | 46.50522 | 16.24252 | 137° | 108km/h | 12586m | -4.4m/s | -56.7°C | 15.1% | 0hPa | 2.5V | 00:00:00 | 01:51:59 | 00:00:00 | |
| PG1ADW-2 | 2026-09-03 03:38:21 | 46.50660 | 16.24057 | 135° | 106km/h | 12617m | -4.0m/s | -56.6°C | 13.3% | 0hPa | 2.5V | 00:00:00 | 00:00:00 | 00:00:00 | |
| PETON7-10 | 2026-09-03 03:38:19 | 46.50699 | 16.24000 | 135° | 106km/h | 12625m | -3.9m/s | -56.4°C | 12.6% | 0hPa | 2.5V | 00:00:00 | 01:51:50 | 00:00:00 | |
| OE8JPQ-2 | 2026-09-03 03:38:08 | 46.50907 | 16.23698 | 137° | 102km/h | 12671m | -3.8m/s | -56.2°C | 10.6% | 0hPa | 2.5V | 00:00:00 | 00:00:00 | 00:00:00 | |
| PETON7-10 | 2026-09-03 03:38:04 | 46.50983 | 16.23595 | 137° | 102km/h | 12686m | -3.9m/s | -56.0°C | 9.7% | 0hPa | 2.5V | 08:09:00 | 00:00:00 | 00:00:00 | |
| PG1ADW-2 | 2026-09-03 03:38:01 | 46.51038 | 16.23517 | 136° | 100km/h | 12699m | -4.6m/s | -56.0°C | 9.6% | 0hPa | 2.5V | 00:00:00 | 00:00:00 | 00:00:00 | |
| OE5DRO-10 | 2026-09-03 03:38:00 | 46.51056 | 16.23491 | 136° | 100km/h | 12703m | -4.2m/s | -56.0°C | 9.5% | 0hPa | 2.5V | 00:00:00 | 00:00:00 | 00:00:00 | |
| PETON7-10 | 2026-09-03 03:37:49 | 46.51255 | 16.23197 | 137° | 97km/h | 12744m | -4.1m/s | -55.2°C | 7.7% | 0hPa | 2.5V | 00:00:00 | 00:00:00 | 00:00:00 | |
| OE8JPQ-2 | 2026-09-03 03:37:48 | 46.51273 | 16.23172 | 136° | 97km/h | 12748m | -4.1m/s | -54.9°C | 7.4% | 0hPa | 2.5V | 00:00:00 | 00:00:00 | 00:00:00 | |
| PG1ADW-2 | 2026-09-03 03:37:41 | 46.51395 | 16.22997 | 137° | 97km/h | 12775m | -4.2m/s | -53.7°C | 7.0% | 0hPa | 2.5V | 00:00:00 | 01:51:12 | 00:00:00 | |
| OE5DXL-15 | 2026-09-03 03:37:38 | 46.51448 | 16.22923 | 135° | 97km/h | 12787m | -3.5m/s | -53.7°C | 7.3% | 0hPa | 2.5V | 00:00:00 | 00:00:00 | 00:00:00 | |
| PETON7-10 | 2026-09-03 03:37:34 | 46.51517 | 16.22821 | 136° | 97km/h | 12803m | -3.6m/s | -53.4°C | 7.5% | 0hPa | 2.5V | 00:00:00 | 01:51:05 | 00:00:00 | |
| OE8JPQ-2 | 2026-09-03 03:37:28 | 46.51623 | 16.22675 | 139° | 97km/h | 12826m | -4.1m/s | -53.1°C | 7.7% | 0hPa | 2.5V | 00:00:00 | 01:50:59 | 00:00:00 | |
| OE5DRO-10 | 2026-09-03 03:37:22 | 46.51734 | 16.22539 | 140° | 95km/h | 12850m | -4.2m/s | -53.0°C | 7.7% | 0hPa | 2.5V | 00:00:00 | 00:00:00 | 00:00:00 | |
| PG1ADW-2 | 2026-09-03 03:37:21 | 46.51753 | 16.22516 | 140° | 95km/h | 12854m | -4.2m/s | -53.0°C | 7.7% | 0hPa | 2.5V | 08:10:00 | 00:00:00 | 00:00:00 | |
| PETON7-10 | 2026-09-03 03:37:19 | 46.51790 | 16.22470 | 140° | 95km/h | 12862m | -4.1m/s | -53.0°C | 7.6% | 0hPa | 2.5V | 00:00:00 | 00:00:00 | 00:00:00 | |
| OE8JPQ-2 | 2026-09-03 03:37:08 | 46.51990 | 16.22213 | 139° | 97km/h | 12908m | -3.6m/s | -53.2°C | 7.4% | 0hPa | 2.5V | 00:00:00 | 00:00:00 | 00:00:00 | |
| PETON7-10 | 2026-09-03 03:37:04 | 46.52062 | 16.22121 | 141° | 97km/h | 12923m | -4.2m/s | -53.2°C | 7.2% | 0hPa | 2.5V | 00:00:00 | 00:00:00 | 00:00:00 | |
| PG1ADW-2 | 2026-09-03 03:37:01 | 46.52118 | 16.22055 | 142° | 100km/h | 12935m | -4.2m/s | -53.3°C | 7.1% | 0hPa | 2.5V | 00:00:00 | 00:00:00 | 00:00:00 | |
| OE3JTB-15 | 2026-09-03 03:36:56 | 46.52212 | 16.21949 | 144° | 102km/h | 12956m | -4.0m/s | -53.3°C | 7.0% | 0hPa | 2.5V | 00:00:00 | 00:00:00 | 00:00:00 | |
| PETON7-10 | 2026-09-03 03:36:49 | 46.52354 | 16.21795 | 144° | 104km/h | 12984m | -3.8m/s | -53.4°C | 6.8% | 0hPa | 2.5V | 00:00:00 | 01:50:20 | 00:00:00 | |
| OE8JPQ-2 | 2026-09-03 03:36:48 | 46.52375 | 16.21773 | 144° | 104km/h | 12988m | -4.5m/s | -53.4°C | 6.8% | 0hPa | 2.5V | 00:00:00 | 00:00:00 | 00:00:00 | |
| OE5DRO-10 | 2026-09-03 03:36:44 | 46.52460 | 16.21682 | 144° | 102km/h | 13005m | -4.5m/s | -53.5°C | 6.8% | 0hPa | 2.5V | 00:00:00 | 00:00:00 | 00:00:00 | |
| PG1ADW-2 | 2026-09-03 03:36:41 | 46.52524 | 16.21614 | 144° | 102km/h | 13018m | -4.0m/s | -53.6°C | 6.8% | 0hPa | 2.6V | 00:00:00 | 00:00:00 | 00:00:00 | |
| OE5DXL-15 | 2026-09-03 03:36:38 | 46.52587 | 16.21547 | 144° | 99km/h | 13031m | -4.3m/s | -53.7°C | 6.8% | 0hPa | 2.6V | 00:00:00 | 00:00:00 | 00:00:00 | |
| PETON7-10 | 2026-09-03 03:36:34 | 46.52671 | 16.21457 | 144° | 100km/h | 13048m | -4.6m/s | -53.8°C | 6.8% | 0hPa | 2.6V | 00:00:00 | 00:00:00 | 00:00:00 | |
| OE8JPQ-2 | 2026-09-03 03:36:28 | 46.52795 | 16.21323 | 144° | 99km/h | 13074m | -4.5m/s | -53.9°C | 7.1% | 0hPa | 2.5V | 00:00:00 | 01:49:59 | 00:00:00 | |
| OE3JTB-15 | 2026-09-03 03:36:27 | 46.52815 | 16.21300 | 142° | 97km/h | 13079m | -4.0m/s | -53.9°C | 7.2% | 0hPa | 2.5V | 00:00:00 | 01:49:58 | 00:00:00 | |
| PG1ADW-2 | 2026-09-03 03:36:21 | 46.52930 | 16.21163 | 142° | 97km/h | 13104m | -4.1m/s | -54.1°C | 7.4% | 0hPa | 2.5V | 00:00:00 | 01:49:52 | 00:00:00 | |
| PETON7-10 | 2026-09-03 03:36:19 | 46.52969 | 16.21118 | 142° | 97km/h | 13113m | -4.4m/s | -54.1°C | 7.4% | 0hPa | 2.5V | 00:00:00 | 00:00:00 | 00:00:00 | |
| OE8JPQ-2 | 2026-09-03 03:36:08 | 46.53182 | 16.20871 | 141° | 95km/h | 13164m | -5.0m/s | -54.1°C | 7.2% | 0hPa | 2.5V | 08:11:00 | 00:00:00 | 00:00:00 | |
| OE5DRO-10 | 2026-09-03 03:36:06 | 46.53219 | 16.20826 | 141° | 93km/h | 13173m | -5.0m/s | -54.0°C | 7.0% | 0hPa | 2.6V | 00:00:00 | 00:00:00 | 00:00:00 | |
| PETON7-10 | 2026-09-03 03:36:04 | 46.53256 | 16.20781 | 140° | 93km/h | 13182m | -4.5m/s | -54.0°C | 6.9% | 0hPa | 2.6V | 00:00:00 | 01:49:35 | 00:00:00 | |
| PG1ADW-2 | 2026-09-03 03:36:01 | 46.53311 | 16.20712 | 138° | 93km/h | 13196m | -4.3m/s | -54.0°C | 6.9% | 0hPa | 2.6V | 00:00:00 | 00:00:00 | 00:00:00 | |
| OE5DXL-15 | 2026-09-03 03:35:58 | 46.53363 | 16.20642 | 138° | 91km/h | 13209m | -4.7m/s | -53.9°C | 6.8% | 0hPa | 2.6V | 00:00:00 | 00:00:00 | 00:00:00 | |
| PETON7-10 | 2026-09-03 03:35:49 | 46.53520 | 16.20432 | 137° | 91km/h | 13251m | -4.9m/s | -53.7°C | 6.4% | 0hPa | 2.5V | 08:11:00 | 00:00:00 | 00:00:00 | |
| OE8JPQ-2 | 2026-09-03 03:35:48 | 46.53537 | 16.20409 | 138° | 91km/h | 13255m | -5.2m/s | -53.7°C | 6.3% | 0hPa | 2.6V | 00:00:00 | 00:00:00 | 00:00:00 | |
| OE5DRO-10 | 2026-09-03 03:35:47 | 46.53554 | 16.20387 | 138° | 91km/h | 13260m | -4.9m/s | -53.6°C | 6.3% | 0hPa | 2.6V | 00:00:00 | 00:00:00 | 00:00:00 | |
| PG1ADW-2 | 2026-09-03 03:35:41 | 46.53656 | 16.20249 | 137° | 89km/h | 13288m | -4.8m/s | -53.8°C | 6.2% | 0hPa | 2.5V | 00:00:00 | 00:00:00 | 00:00:00 | |
| OE3JTB-15 | 2026-09-03 03:35:29 | 46.53855 | 16.19975 | 136° | 89km/h | 13347m | -5.1m/s | -54.1°C | 6.3% | 0hPa | 2.5V | 00:00:00 | 00:00:00 | 00:00:00 | |
| OE8JPQ-2 | 2026-09-03 03:35:28 | 46.53871 | 16.19953 | 137° | 89km/h | 13352m | -4.6m/s | -54.1°C | 6.3% | 0hPa | 2.5V | 00:00:00 | 01:48:59 | 00:00:00 | |
| PG1ADW-2 | 2026-09-03 03:35:21 | 46.53984 | 16.19789 | 134° | 89km/h | 13387m | -4.8m/s | -54.2°C | 6.2% | 0hPa | 2.5V | 00:00:00 | 00:00:00 | 00:00:00 | |
| PETON7-10 | 2026-09-03 03:35:19 | 46.54015 | 16.19742 | 134° | 91km/h | 13397m | -4.7m/s | -54.3°C | 6.2% | 0hPa | 2.5V | 00:00:00 | 01:48:50 | 00:00:00 | |
| OE5DRO-10 | 2026-09-03 03:35:09 | 46.54170 | 16.19498 | 132° | 89km/h | 13446m | -5.5m/s | -54.6°C | 6.1% | 0hPa | 2.5V | 00:00:00 | 00:00:00 | 00:00:00 | |
| OE8JPQ-2 | 2026-09-03 03:35:08 | 46.54186 | 16.19473 | 133° | 89km/h | 13451m | -4.7m/s | -54.6°C | 6.1% | 0hPa | 2.5V | 00:00:00 | 00:00:00 | 00:00:00 | |
| PETON7-10 | 2026-09-03 03:35:04 | 46.54246 | 16.19373 | 132° | 89km/h | 13470m | -4.7m/s | -54.7°C | 6.0% | 0hPa | 2.6V | 00:00:00 | 00:00:00 | 00:00:00 | |
| PG1ADW-2 | 2026-09-03 03:35:01 | 46.54290 | 16.19297 | 130° | 86km/h | 13485m | -4.5m/s | -54.8°C | 6.0% | 0hPa | 2.5V | 00:00:00 | 01:48:32 | 00:00:00 | |
| OE3JTB-15 | 2026-09-03 03:35:00 | 46.54305 | 16.19272 | 130° | 82km/h | 13490m | -5.5m/s | -54.9°C | 6.0% | 0hPa | 2.5V | 00:00:00 | 01:48:31 | 00:00:00 | |
| OE5DXL-15 | 2026-09-03 03:34:58 | 46.54334 | 16.19221 | 129° | 82km/h | 13500m | -5.0m/s | -54.9°C | 6.0% | 0hPa | 2.5V | 00:00:00 | 00:00:00 | 00:00:00 | |
| OE5DRO-10 | 2026-09-03 03:34:50 | 46.54444 | 16.19015 | 127° | 80km/h | 13539m | -4.9m/s | -55.1°C | 6.0% | 0hPa | 2.5V | 08:12:00 | 00:00:00 | 00:00:00 | |
| PETON7-10 | 2026-09-03 03:34:49 | 46.54457 | 16.18990 | 128° | 80km/h | 13544m | -4.9m/s | -55.1°C | 5.9% | 0hPa | 2.5V | 00:00:00 | 00:00:00 | 00:00:00 | |
| OE8JPQ-2 | 2026-09-03 03:34:48 | 46.54470 | 16.18966 | 128° | 78km/h | 13549m | -4.4m/s | -55.1°C | 5.9% | 0hPa | 2.5V | 00:00:00 | 00:00:00 | 00:00:00 | |
| PG1ADW-2 | 2026-09-03 03:34:41 | 46.54557 | 16.18800 | 128° | 77km/h | 13584m | -5.1m/s | -55.3°C | 6.0% | 0hPa | 2.5V | 00:00:00 | 00:00:00 | 00:00:00 | |
| PETON7-10 | 2026-09-03 03:34:34 | 46.54642 | 16.18642 | 129° | 75km/h | 13617m | -5.1m/s | -55.3°C | 5.9% | 0hPa | 2.5V | 00:00:00 | 01:48:05 | 00:00:00 | |
| OE3JTB-15 | 2026-09-03 03:34:31 | 46.54678 | 16.18576 | 130° | 73km/h | 13632m | -4.8m/s | -55.3°C | 5.9% | 0hPa | 2.5V | 00:00:00 | 00:00:00 | 00:00:00 | |
| OE8JPQ-2 | 2026-09-03 03:34:28 | 46.54714 | 16.18512 | 131° | 75km/h | 13646m | -4.7m/s | -55.1°C | 5.8% | 0hPa | 2.5V | 00:00:00 | 01:47:59 | 00:00:00 | |
| PG1ADW-2 | 2026-09-03 03:34:21 | 46.54798 | 16.18362 | 129° | 75km/h | 13679m | -4.4m/s | -54.8°C | 5.6% | 0hPa | 2.5V | 08:13:00 | 00:00:00 | 00:00:00 | |
| PETON7-10 | 2026-09-03 03:34:19 | 46.54822 | 16.18318 | 127° | 75km/h | 13689m | -4.4m/s | -54.6°C | 5.5% | 0hPa | 2.5V | 00:00:00 | 00:00:00 | 00:00:00 | |
| OE5DRO-10 | 2026-09-03 03:34:12 | 46.54903 | 16.18166 | 129° | 73km/h | 13721m | -5.3m/s | -54.4°C | 5.3% | 0hPa | 2.5V | 00:00:00 | 00:00:00 | 00:00:00 | |
| OE8JPQ-2 | 2026-09-03 03:34:08 | 46.54949 | 16.18083 | 128° | 71km/h | 13740m | -5.2m/s | -54.5°C | 5.3% | 0hPa | 2.5V | 00:00:00 | 00:00:00 | 00:00:00 | |
| PETON7-10 | 2026-09-03 03:34:04 | 46.54995 | 16.17997 | 128° | 71km/h | 13761m | -5.3m/s | -54.7°C | 5.3% | 0hPa | 2.6V | 00:00:00 | 00:00:00 | 00:00:00 | |
| PG1ADW-2 | 2026-09-03 03:34:01 | 46.55028 | 16.17933 | 128° | 71km/h | 13777m | -4.6m/s | -54.7°C | 5.3% | 0hPa | 2.6V | 00:00:00 | 00:00:00 | 00:00:00 | |
| OE3JTB-15 | 2026-09-03 03:34:00 | 46.55040 | 16.17911 | 127° | 71km/h | 13782m | -5.1m/s | -54.7°C | 5.3% | 0hPa | 2.6V | 00:00:00 | 00:00:00 | 00:00:00 | |
| OE5DXL-15 | 2026-09-03 03:33:58 | 46.55062 | 16.17870 | 128° | 73km/h | 13792m | -4.9m/s | -54.7°C | 5.3% | 0hPa | 2.6V | 00:00:00 | 00:00:00 | 00:00:00 | |
| OE5DRO-10 | 2026-09-03 03:33:53 | 46.55117 | 16.17770 | 130° | 73km/h | 13818m | -4.8m/s | -54.5°C | 5.2% | 0hPa | 2.6V | 00:00:00 | 00:00:00 | 00:00:00 | |
| PETON7-10 | 2026-09-03 03:33:49 | 46.55165 | 16.17697 | 138° | 73km/h | 13837m | -4.5m/s | -54.5°C | 5.1% | 0hPa | 2.6V | 00:00:00 | 01:47:20 | 00:00:00 | |
| OE8JPQ-2 | 2026-09-03 03:33:48 | 46.55178 | 16.17680 | 138° | 77km/h | 13841m | -4.9m/s | -54.5°C | 5.1% | 0hPa | 2.6V | 00:00:00 | 00:00:00 | 00:00:00 | |
| PG1ADW-2 | 2026-09-03 03:33:41 | 46.55273 | 16.17556 | 138° | 80km/h | 13873m | -4.9m/s | -54.8°C | 5.1% | 0hPa | 2.6V | 00:00:00 | 01:47:12 | 00:00:00 | |
| PETON7-10 | 2026-09-03 03:33:34 | 46.55371 | 16.17417 | 134° | 82km/h | 13907m | -5.0m/s | -55.0°C | 5.3% | 0hPa | 2.6V | 08:14:00 | 00:00:00 | 00:00:00 | |
| OE3JTB-15 | 2026-09-03 03:33:31 | 46.55412 | 16.17352 | 133° | 80km/h | 13921m | -5.0m/s | -55.1°C | 5.3% | 0hPa | 2.5V | 00:00:00 | 01:47:02 | 00:00:00 | |
| OE5DXL-15 | 2026-09-03 03:33:28 | 46.55454 | 16.17285 | 132° | 80km/h | 13935m | -4.9m/s | -55.2°C | 5.3% | 0hPa | 2.5V | 00:00:00 | 00:00:00 | 00:00:00 | |
| PG1ADW-2 | 2026-09-03 03:33:21 | 46.55553 | 16.17129 | 133° | 80km/h | 13971m | -5.4m/s | -55.4°C | 5.3% | 0hPa | 2.5V | 00:00:00 | 00:00:00 | 00:00:00 | |
| PETON7-10 | 2026-09-03 03:33:19 | 46.55581 | 16.17085 | 133° | 80km/h | 13981m | -5.2m/s | -55.4°C | 5.2% | 0hPa | 2.5V | 00:00:00 | 00:00:00 | 00:00:00 | |
| OE5DRO-10 | 2026-09-03 03:33:15 | 46.55636 | 16.17000 | 135° | 80km/h | 14001m | -5.0m/s | -55.4°C | 5.2% | 0hPa | 2.5V | 00:00:00 | 00:00:00 | 00:00:00 | |
| OE8JPQ-2 | 2026-09-03 03:33:08 | 46.55737 | 16.16851 | 135° | 80km/h | 14034m | -4.6m/s | -55.3°C | 5.3% | 0hPa | 2.5V | 08:14:00 | 00:00:00 | 00:00:00 | |
| PETON7-10 | 2026-09-03 03:33:04 | 46.55795 | 16.16768 | 135° | 80km/h | 14052m | -4.7m/s | -55.4°C | 5.3% | 0hPa | 2.5V | 00:00:00 | 01:46:35 | 00:00:00 | |
| OE3JTB-15 | 2026-09-03 03:33:02 | 46.55823 | 16.16726 | 136° | 73km/h | 14062m | -5.2m/s | -55.5°C | 5.3% | 0hPa | 2.5V | 00:00:00 | 00:00:00 | 00:00:00 | |
| PG1ADW-2 | 2026-09-03 03:33:01 | 46.55837 | 16.16706 | 136° | 84km/h | 14067m | -5.3m/s | -55.5°C | 5.3% | 0hPa | 2.6V | 00:00:00 | 00:00:00 | 00:00:00 | |
| OE5DXL-15 | 2026-09-03 03:32:58 | 46.55880 | 16.16647 | 137° | 86km/h | 14083m | -4.9m/s | -55.6°C | 5.3% | 0hPa | 2.6V | 00:00:00 | 00:00:00 | 00:00:00 | |
| OE5DRO-10 | 2026-09-03 03:32:56 | 46.55908 | 16.16608 | 136° | 88km/h | 14092m | -5.4m/s | -55.6°C | 5.3% | 0hPa | 2.5V | 00:00:00 | 00:00:00 | 00:00:00 | |
| PETON7-10 | 2026-09-03 03:32:49 | 46.56013 | 16.16464 | 137° | 91km/h | 14128m | -4.6m/s | -55.6°C | 5.3% | 0hPa | 2.5V | 00:00:00 | 00:00:00 | 00:00:00 | |
| OE8JPQ-2 | 2026-09-03 03:32:48 | 46.56030 | 16.16442 | 136° | 88km/h | 14133m | -4.3m/s | -55.6°C | 5.3% | 0hPa | 2.5V | 00:00:00 | 00:00:00 | 00:00:00 | |
| PG1ADW-2 | 2026-09-03 03:32:41 | 46.56143 | 16.16269 | 132° | 84km/h | 14167m | -5.3m/s | -55.3°C | 5.2% | 0hPa | 2.5V | 00:00:00 | 00:00:00 | 00:00:00 | |
| OE5DRO-10 | 2026-09-03 03:32:37 | 46.56201 | 16.16166 | 126° | 80km/h | 14187m | -5.3m/s | -55.2°C | 5.2% | 0hPa | 2.5V | 00:00:00 | 00:00:00 | 00:00:00 | |
| PETON7-10 | 2026-09-03 03:32:34 | 46.56237 | 16.16089 | 123° | 80km/h | 14202m | -4.7m/s | -55.3°C | 5.2% | 0hPa | 2.5V | 00:00:00 | 00:00:00 | 00:00:00 | |
| OE8JPQ-2 | 2026-09-03 03:32:28 | 46.56303 | 16.15937 | 122° | 77km/h | 14231m | -4.7m/s | -55.3°C | 5.2% | 0hPa | 2.5V | 00:00:00 | 01:45:59 | 00:00:00 | |
| PG1ADW-2 | 2026-09-03 03:32:21 | 46.56376 | 16.15765 | 123° | 73km/h | 14266m | -4.7m/s | -55.2°C | 5.1% | 0hPa | 2.5V | 00:00:00 | 01:45:52 | 00:00:00 | |
| PETON7-10 | 2026-09-03 03:32:19 | 46.56397 | 16.15716 | 121° | 73km/h | 14276m | -5.3m/s | -55.3°C | 5.1% | 0hPa | 2.5V | 00:00:00 | 01:45:50 | 00:00:00 | |
| OE5DRO-10 | 2026-09-03 03:32:18 | 46.56407 | 16.15692 | 121° | 71km/h | 14281m | -5.6m/s | -55.3°C | 5.1% | 0hPa | 2.5V | 00:00:00 | 00:00:00 | 00:00:00 | |
| OE8JPQ-2 | 2026-09-03 03:32:08 | 46.56501 | 16.15459 | 120° | 69km/h | 14331m | -4.4m/s | -55.5°C | 5.1% | 0hPa | 2.5V | 00:00:00 | 00:00:00 | 00:00:00 | |
| PETON7-10 | 2026-09-03 03:32:04 | 46.56535 | 16.15371 | 118° | 69km/h | 14351m | -5.4m/s | -55.5°C | 5.1% | 0hPa | 2.6V | 00:00:00 | 00:00:00 | 00:00:00 | |
| PG1ADW-2 | 2026-09-03 03:32:01 | 46.56560 | 16.15303 | 117° | 69km/h | 14367m | -5.8m/s | -55.5°C | 5.0% | 0hPa | 2.6V | 00:00:00 | 00:00:00 | 00:00:00 | |
| OE5DRO-10 | 2026-09-03 03:31:59 | 46.56575 | 16.15258 | 117° | 69km/h | 14378m | -5.1m/s | -55.5°C | 5.0% | 0hPa | 2.6V | 08:15:00 | 00:00:00 | 00:00:00 | |
| OE5DXL-15 | 2026-09-03 03:31:58 | 46.56583 | 16.15236 | 117° | 68km/h | 14384m | -6.0m/s | -55.5°C | 5.0% | 0hPa | 2.5V | 00:00:00 | 00:00:00 | 00:00:00 | |
| PETON7-10 | 2026-09-03 03:31:49 | 46.56656 | 16.15028 | 115° | 68km/h | 14430m | -5.4m/s | -55.4°C | 4.9% | 0hPa | 2.5V | 00:00:00 | 00:00:00 | 00:00:00 | |
| PG1ADW-2 | 2026-09-03 03:31:41 | 46.56711 | 16.14843 | 112° | 62km/h | 14472m | -5.5m/s | -55.6°C | 4.9% | 0hPa | 2.5V | 00:00:00 | 00:00:00 | 00:00:00 | |
| OE5DRO-10 | 2026-09-03 03:31:40 | 46.56717 | 16.14821 | 113° | 62km/h | 14477m | -4.8m/s | -55.6°C | 4.9% | 0hPa | 2.5V | 00:00:00 | 00:00:00 | 00:00:00 | |
| PETON7-10 | 2026-09-03 03:31:34 | 46.56752 | 16.14686 | 109° | 60km/h | 14509m | -5.2m/s | -55.8°C | 4.9% | 0hPa | 2.5V | 00:00:00 | 01:45:05 | 00:00:00 | |
| OE8JPQ-2 | 2026-09-03 03:31:28 | 46.56784 | 16.14554 | 110° | 58km/h | 14541m | -5.6m/s | -55.9°C | 5.1% | 0hPa | 2.5V | 00:00:00 | 01:44:59 | 00:00:00 | |
| OE3JTB-15 | 2026-09-03 03:31:24 | 46.56806 | 16.14476 | 114° | 62km/h | 14562m | -5.3m/s | -55.5°C | 4.9% | 0hPa | 2.5V | 00:00:00 | 01:44:55 | 00:00:00 | |
| PG1ADW-2 | 2026-09-03 03:31:21 | 46.56823 | 16.14419 | 115° | 62km/h | 14577m | -4.7m/s | -55.1°C | 4.8% | 0hPa | 2.5V | 08:16:00 | 00:00:00 | 00:00:00 | |
| PETON7-10 | 2026-09-03 03:31:19 | 46.56836 | 16.14380 | 115° | 60km/h | 14587m | -5.5m/s | -55.1°C | 4.8% | 0hPa | 2.5V | 08:16:00 | 00:00:00 | 00:00:00 | |
| OE8JPQ-2 | 2026-09-03 03:31:08 | 46.56908 | 16.14164 | 118° | 66km/h | 14644m | -5.4m/s | -54.2°C | 4.5% | 0hPa | 2.5V | 00:00:00 | 00:00:00 | 00:00:00 | |
| PETON7-10 | 2026-09-03 03:31:04 | 46.56940 | 16.14083 | 122° | 68km/h | 14664m | -5.4m/s | -53.6°C | 4.2% | 0hPa | 2.5V | 00:00:00 | 00:00:00 | 00:00:00 | |
| OE5DRO-10 | 2026-09-03 03:31:02 | 46.56958 | 16.14042 | 124° | 68km/h | 14675m | -5.1m/s | -53.6°C | 4.2% | 0hPa | 2.5V | 00:00:00 | 00:00:00 | 00:00:00 | |
| PG1ADW-2 | 2026-09-03 03:31:01 | 46.56967 | 16.14022 | 122° | 68km/h | 14680m | -5.2m/s | -53.6°C | 4.2% | 0hPa | 2.5V | 00:00:00 | 01:44:32 | 00:00:00 | |
| OE5DXL-15 | 2026-09-03 03:30:58 | 46.56994 | 16.13960 | 122° | 69km/h | 14696m | -5.3m/s | 0°C | 0% | 0hPa | 2.5V | 00:00:00 | 00:00:00 | 00:00:00 | |
| OE3JTB-15 | 2026-09-03 03:30:55 | 46.57021 | 16.13898 | 123° | 69km/h | 14713m | -5.4m/s | -53.6°C | 4.2% | 0hPa | 2.5V | 08:16:00 | 00:00:00 | 00:00:00 | |
| PETON7-10 | 2026-09-03 03:30:49 | 46.57078 | 16.13773 | 123° | 69km/h | 14744m | -5.2m/s | -53.9°C | 4.3% | 0hPa | 2.6V | 00:00:00 | 01:44:20 | 00:00:00 | |
| OE8JPQ-2 | 2026-09-03 03:30:48 | 46.57087 | 16.13752 | 124° | 71km/h | 14750m | -5.8m/s | -53.9°C | 4.3% | 0hPa | 2.6V | 00:00:00 | 00:00:00 | 00:00:00 | |
| OE5DRO-10 | 2026-09-03 03:30:43 | 46.57136 | 16.13648 | 127° | 71km/h | 14777m | -6.0m/s | -54.1°C | 4.3% | 0hPa | 2.6V | 00:00:00 | 00:00:00 | 00:00:00 | |
| PG1ADW-2 | 2026-09-03 03:30:41 | 46.57157 | 16.13607 | 126° | 71km/h | 14788m | -5.9m/s | -54.1°C | 4.3% | 0hPa | 2.6V | 00:00:00 | 00:00:00 | 00:00:00 | |
| PETON7-10 | 2026-09-03 03:30:34 | 46.57233 | 16.13461 | 128° | 73km/h | 14827m | -5.3m/s | -54.4°C | 4.4% | 0hPa | 2.6V | 00:00:00 | 00:00:00 | 00:00:00 | |
| OE8JPQ-2 | 2026-09-03 03:30:28 | 46.57302 | 16.13339 | 131° | 73km/h | 14860m | -5.4m/s | -54.5°C | 4.4% | 0hPa | 2.5V | 00:00:00 | 01:43:59 | 00:00:00 | |
| OE3JTB-15 | 2026-09-03 03:30:26 | 46.57327 | 16.13299 | 132° | 71km/h | 14872m | -6.2m/s | -54.6°C | 4.4% | 0hPa | 2.5V | 00:00:00 | 00:00:00 | 00:00:00 | |
| OE5DRO-10 | 2026-09-03 03:30:24 | 46.57352 | 16.13259 | 134° | 73km/h | 14882m | -5.4m/s | -54.6°C | 4.5% | 0hPa | 2.5V | 00:00:00 | 00:00:00 | 00:00:00 | |
| PG1ADW-2 | 2026-09-03 03:30:21 | 46.57390 | 16.13201 | 134° | 71km/h | 14900m | -5.3m/s | -54.6°C | 4.4% | 0hPa | 2.5V | 00:00:00 | 00:00:00 | 00:00:00 | |
| PETON7-10 | 2026-09-03 03:30:19 | 46.57417 | 16.13162 | 136° | 71km/h | 14910m | -6.1m/s | -54.7°C | 4.5% | 0hPa | 2.5V | 00:00:00 | 00:00:00 | 00:00:00 | |
| OE8JPQ-2 | 2026-09-03 03:30:08 | 46.57570 | 16.12968 | 143° | 64km/h | 14972m | -5.4m/s | -54.6°C | 4.4% | 0hPa | 2.5V | 08:17:00 | 00:00:00 | 00:00:00 | |
| OE5DRO-10 | 2026-09-03 03:30:05 | 46.57612 | 16.12922 | 144° | 62km/h | 14989m | -5.5m/s | -54.7°C | 4.4% | 0hPa | 2.6V | 00:00:00 | 00:00:00 | 00:00:00 | |
| PETON7-10 | 2026-09-03 03:30:04 | 46.57626 | 16.12907 | 144° | 62km/h | 14995m | -6.2m/s | -54.7°C | 4.5% | 0hPa | 2.6V | 00:00:00 | 01:43:35 | 00:00:00 | |
| PG1ADW-2 | 2026-09-03 03:30:01 | 46.57665 | 16.12864 | 143° | 60km/h | 15011m | -6.1m/s | -54.7°C | 4.4% | 0hPa | 2.6V | 00:00:00 | 00:00:00 | 00:00:00 | |
| OE5DXL-15 | 2026-09-03 03:29:58 | 46.57703 | 16.12822 | 142° | 57km/h | 15028m | -5.6m/s | -54.8°C | 4.5% | 0hPa | 2.6V | 08:17:00 | 00:00:00 | 00:00:00 | |
| OE3JTB-15 | 2026-09-03 03:29:57 | 46.57716 | 16.12808 | 144° | 57km/h | 15034m | -5.4m/s | -54.8°C | 4.5% | 0hPa | 2.5V | 00:00:00 | 01:43:28 | 00:00:00 | |
| PETON7-10 | 2026-09-03 03:29:49 | 46.57811 | 16.12699 | 142° | 57km/h | 15078m | -6.1m/s | -54.7°C | 4.4% | 0hPa | 2.5V | 00:00:00 | 00:00:00 | 00:00:00 | |
| OE8JPQ-2 | 2026-09-03 03:29:48 | 46.57823 | 16.12686 | 142° | 55km/h | 15083m | -5.1m/s | -54.7°C | 4.5% | 0hPa | 2.6V | 00:00:00 | 00:00:00 | 00:00:00 | |
| OE5DRO-10 | 2026-09-03 03:29:46 | 46.57845 | 16.12660 | 141° | 55km/h | 15095m | -5.4m/s | -54.7°C | 4.4% | 0hPa | 2.6V | 00:00:00 | 00:00:00 | 00:00:00 | |
| PG1ADW-2 | 2026-09-03 03:29:41 | 46.57902 | 16.12597 | 142° | 53km/h | 15122m | -5.5m/s | -54.7°C | 4.4% | 0hPa | 2.6V | 00:00:00 | 01:43:12 | 00:00:00 | |
| PETON7-10 | 2026-09-03 03:29:34 | 46.57975 | 16.12506 | 138° | 51km/h | 15163m | -6.7m/s | -54.9°C | 4.4% | 0hPa | 2.6V | 00:00:00 | 00:00:00 | 00:00:00 | |
| OE3JTB-15 | 2026-09-03 03:29:28 | 46.58033 | 16.12429 | 137° | 47km/h | 15197m | -6.6m/s | -55.1°C | 4.5% | 0hPa | 2.6V | 00:00:00 | 00:00:00 | 00:00:00 | |
| OE5DRO-10 | 2026-09-03 03:29:27 | 46.58042 | 16.12416 | 135° | 47km/h | 15203m | -5.2m/s | -55.2°C | 4.5% | 0hPa | 2.5V | 00:00:00 | 00:00:00 | 00:00:00 | |
| PG1ADW-2 | 2026-09-03 03:29:21 | 46.58095 | 16.12338 | 136° | 46km/h | 15237m | -5.4m/s | -55.3°C | 4.5% | 0hPa | 2.5V | 00:00:00 | 00:00:00 | 00:00:00 | |
| PETON7-10 | 2026-09-03 03:29:19 | 46.58112 | 16.12313 | 135° | 46km/h | 15248m | -5.0m/s | -55.4°C | 4.5% | 0hPa | 2.5V | 00:00:00 | 01:42:50 | 00:00:00 | |
| OE8JPQ-2 | 2026-09-03 03:29:08 | 46.58196 | 16.12177 | 128° | 47km/h | 15310m | -5.9m/s | -55.7°C | 4.6% | 0hPa | 2.5V | 00:00:00 | 00:00:00 | 00:00:00 | |
| PETON7-10 | 2026-09-03 03:29:04 | 46.58224 | 16.12123 | 126° | 47km/h | 15333m | -6.3m/s | -55.9°C | 4.7% | 0hPa | 2.6V | 08:18:00 | 00:00:00 | 00:00:00 | |
| PG1ADW-2 | 2026-09-03 03:29:01 | 46.58251 | 16.12066 | 125° | 49km/h | 15356m | -5.7m/s | -56.1°C | 4.7% | 0hPa | 2.5V | 00:00:00 | 00:00:00 | 00:00:00 | |
| OE3JTB-15 | 2026-09-03 03:28:59 | 46.58257 | 16.12052 | 124° | 51km/h | 15362m | -6.1m/s | -56.1°C | 4.7% | 0hPa | 2.5V | 00:00:00 | 00:00:00 | 00:00:00 | |
| OE5DXL-15 | 2026-09-03 03:28:58 | 46.58264 | 16.12037 | 123° | 51km/h | 15367m | -5.7m/s | -56.2°C | 4.7% | 0hPa | 2.5V | 00:00:00 | 00:00:00 | 00:00:00 | |
| PETON7-10 | 2026-09-03 03:28:49 | 46.58325 | 16.11901 | 123° | 51km/h | 15419m | -6.2m/s | -56.4°C | 4.8% | 0hPa | 2.5V | 00:00:00 | 00:00:00 | 00:00:00 | |
| OE8JPQ-2 | 2026-09-03 03:28:48 | 46.58332 | 16.11886 | 121° | 51km/h | 15425m | -5.6m/s | -56.4°C | 4.8% | 0hPa | 2.5V | 00:00:00 | 00:00:00 | 00:00:00 | |
| PG1ADW-2 | 2026-09-03 03:28:41 | 46.58381 | 16.11773 | 121° | 51km/h | 15466m | -5.6m/s | -56.2°C | 4.7% | 0hPa | 2.5V | 00:00:00 | 00:00:00 | 00:00:00 | |
| PETON7-10 | 2026-09-03 03:28:34 | 46.58427 | 16.11657 | 117° | 49km/h | 15508m | -6.4m/s | -56.4°C | 4.8% | 0hPa | 2.5V | 00:00:00 | 01:42:05 | 00:00:00 | |
| OE3JTB-15 | 2026-09-03 03:28:30 | 46.58449 | 16.11589 | 113° | 51km/h | 15532m | -6.2m/s | -56.6°C | 4.9% | 0hPa | 2.5V | 00:00:00 | 01:42:01 | 00:00:00 | |
| OE8JPQ-2 | 2026-09-03 03:28:28 | 46.58458 | 16.11555 | 113° | 51km/h | 15543m | -5.5m/s | -56.7°C | 4.9% | 0hPa | 2.5V | 00:00:00 | 01:41:59 | 00:00:00 | |
| PG1ADW-2 | 2026-09-03 03:28:21 | 46.58487 | 16.11435 | 110° | 51km/h | 15584m | -5.3m/s | -57.0°C | 4.9% | 0hPa | 2.5V | 08:19:00 | 01:41:52 | 00:00:00 | |
| PETON7-10 | 2026-09-03 03:28:19 | 46.58496 | 16.11399 | 109° | 51km/h | 15596m | -5.7m/s | -56.9°C | 4.9% | 0hPa | 2.5V | 00:00:00 | 00:00:00 | 00:00:00 | |
| OE5DRO-10 | 2026-09-03 03:28:11 | 46.58525 | 16.11254 | 106° | 53km/h | 15644m | -5.3m/s | -56.7°C | 4.8% | 0hPa | 2.5V | 00:00:00 | 00:00:00 | 00:00:00 | |
| OE8JPQ-2 | 2026-09-03 03:28:08 | 46.58534 | 16.11201 | 103° | 51km/h | 15662m | -6.4m/s | -56.9°C | 4.8% | 0hPa | 2.5V | 00:00:00 | 00:00:00 | 00:00:00 | |
| PETON7-10 | 2026-09-03 03:28:04 | 46.58546 | 16.11128 | 103° | 53km/h | 15685m | -6.5m/s | -57.1°C | 4.8% | 0hPa | 2.6V | 00:00:00 | 00:00:00 | 00:00:00 | |
| OE3JTB-15 | 2026-09-03 03:28:01 | 46.58555 | 16.11071 | 105° | 49km/h | 15703m | -5.3m/s | -57.2°C | 4.8% | 0hPa | 2.6V | 00:00:00 | 00:00:00 | 00:00:00 | |
| OE5DXL-15 | 2026-09-03 03:27:58 | 46.58564 | 16.11014 | 101° | 49km/h | 15721m | -6.7m/s | -57.3°C | 4.9% | 0hPa | 2.5V | 00:00:00 | 00:00:00 | 00:00:00 | |
| OE5DRO-10 | 2026-09-03 03:27:52 | 46.58581 | 16.10897 | 103° | 46km/h | 15755m | -4.9m/s | -57.6°C | 5.0% | 0hPa | 2.5V | 00:00:00 | 00:00:00 | 00:00:00 | |
| PETON7-10 | 2026-09-03 03:27:49 | 46.58589 | 16.10848 | 107° | 46km/h | 15772m | -6.0m/s | -57.7°C | 5.0% | 0hPa | 2.5V | 00:00:00 | 01:41:20 | 00:00:00 | |
| OE8JPQ-2 | 2026-09-03 03:27:48 | 46.58592 | 16.10833 | 110° | 47km/h | 15777m | -6.2m/s | -57.7°C | 5.0% | 0hPa | 2.5V | 00:00:00 | 00:00:00 | 00:00:00 | |
| PG1ADW-2 | 2026-09-03 03:27:41 | 46.58628 | 16.10734 | 120° | 55km/h | 15819m | -6.3m/s | -57.9°C | 5.2% | 0hPa | 2.5V | 00:00:00 | 00:00:00 | 00:00:00 | |
| PETON7-10 | 2026-09-03 03:27:34 | 46.58674 | 16.10626 | 125° | 58km/h | 15860m | -6.1m/s | -57.9°C | 5.2% | 0hPa | 2.5V | 00:00:00 | 00:00:00 | 00:00:00 | |
| OE5DRO-10 | 2026-09-03 03:27:33 | 46.58682 | 16.10611 | 127° | 60km/h | 15866m | -6.6m/s | -57.9°C | 5.2% | 0hPa | 2.5V | 00:00:00 | 00:00:00 | 00:00:00 | |
| OE3JTB-15 | 2026-09-03 03:27:32 | 46.58689 | 16.10596 | 127° | 62km/h | 15872m | -6.3m/s | -57.8°C | 5.2% | 0hPa | 2.5V | 00:00:00 | 00:00:00 | 00:00:00 | |
| OE5DXL-15 | 2026-09-03 03:27:28 | 46.58723 | 16.10535 | 129° | 64km/h | 15899m | -7.0m/s | -57.8°C | 5.2% | 0hPa | 2.5V | 00:00:00 | 00:00:00 | 00:00:00 | |
| PG1ADW-2 | 2026-09-03 03:27:21 | 46.58791 | 16.10412 | 126° | 66km/h | 15942m | -5.5m/s | -57.4°C | 5.2% | 0hPa | 2.5V | 00:00:00 | 00:00:00 | 00:00:00 | |
| PETON7-10 | 2026-09-03 03:27:19 | 46.58810 | 16.10371 | 122° | 66km/h | 15953m | -5.6m/s | -57.1°C | 4.9% | 0hPa | 2.6V | 00:00:00 | 00:00:00 | 00:00:00 | |
| OE5DRO-10 | 2026-09-03 03:27:14 | 46.58853 | 16.10268 | 122° | 66km/h | 15983m | -5.5m/s | -56.7°C | 4.9% | 0hPa | 2.6V | 00:00:00 | 00:00:00 | 00:00:00 | |
| OE8JPQ-2 | 2026-09-03 03:27:08 | 46.58904 | 16.10144 | 122° | 66km/h | 16020m | -6.5m/s | -55.9°C | 4.6% | 0hPa | 2.6V | 08:20:00 | 00:00:00 | 00:00:00 | |
| PETON7-10 | 2026-09-03 03:27:04 | 46.58937 | 16.10060 | 119° | 66km/h | 16045m | -6.9m/s | -55.7°C | 4.4% | 0hPa | 2.5V | 00:00:00 | 01:40:35 | 00:00:00 | |
| PG1ADW-2 | 2026-09-03 03:27:01 | 46.58962 | 16.09996 | 120° | 69km/h | 16064m | -5.8m/s | -55.7°C | 4.4% | 0hPa | 2.5V | 00:00:00 | 01:40:32 | 00:00:00 | |
| OE5DXL-15 | 2026-09-03 03:26:58 | 46.58986 | 16.09932 | 119° | 73km/h | 16082m | -6.6m/s | -55.7°C | 4.4% | 0hPa | 2.5V | 00:00:00 | 00:00:00 | 00:00:00 | |
| OE5DRO-10 | 2026-09-03 03:26:55 | 46.59010 | 16.09869 | 120° | 71km/h | 16101m | -6.3m/s | -55.8°C | 4.4% | 0hPa | 2.5V | 00:00:00 | 00:00:00 | 00:00:00 | |
| PETON7-10 | 2026-09-03 03:26:49 | 46.59063 | 16.09742 | 122° | 75km/h | 16138m | -6.7m/s | -55.9°C | 4.4% | 0hPa | 2.5V | 08:20:00 | 00:00:00 | 00:00:00 | |
| OE8JPQ-2 | 2026-09-03 03:26:48 | 46.59072 | 16.09719 | 121° | 75km/h | 16144m | -6.2m/s | -55.9°C | 4.4% | 0hPa | 2.6V | 00:00:00 | 00:00:00 | 00:00:00 | |
| PG1ADW-2 | 2026-09-03 03:26:41 | 46.59138 | 16.09561 | 121° | 77km/h | 16187m | -5.7m/s | -56.0°C | 4.5% | 0hPa | 2.6V | 00:00:00 | 00:00:00 | 00:00:00 | |
| OE5DRO-10 | 2026-09-03 03:26:36 | 46.59184 | 16.09438 | 116° | 77km/h | 16216m | -6.0m/s | -56.1°C | 4.6% | 0hPa | 2.6V | 00:00:00 | 00:00:00 | 00:00:00 | |
| OE3JTB-15 | 2026-09-03 03:26:34 | 46.59200 | 16.09386 | 116° | 69km/h | 16227m | -5.3m/s | -56.0°C | 4.6% | 0hPa | 2.6V | 08:21:00 | 00:00:00 | 00:00:00 | |
| PETON7-10 | 2026-09-03 03:26:33 | 46.59208 | 16.09360 | 114° | 77km/h | 16233m | -5.6m/s | -55.8°C | 4.5% | 0hPa | 2.6V | 00:00:00 | 00:00:00 | 00:00:00 | |
| OE5DXL-15 | 2026-09-03 03:26:28 | 46.59247 | 16.09230 | 114° | 66km/h | 16261m | -5.6m/s | -55.8°C | 4.4% | 0hPa | 2.6V | 00:00:00 | 00:00:00 | 00:00:00 | |
| PG1ADW-2 | 2026-09-03 03:26:21 | 46.59296 | 16.09047 | 108° | 64km/h | 16302m | -6.0m/s | -55.6°C | 4.4% | 0hPa | 2.6V | 00:00:00 | 00:00:00 | 00:00:00 | |
| PETON7-10 | 2026-09-03 03:26:18 | 46.59312 | 16.08973 | 107° | 62km/h | 16319m | -6.0m/s | -55.4°C | 4.4% | 0hPa | 2.6V | 00:00:00 | 01:39:49 | 00:00:00 | |
| OE5DRO-10 | 2026-09-03 03:26:17 | 46.59318 | 16.08949 | 107° | 60km/h | 16325m | -5.6m/s | -55.4°C | 4.4% | 0hPa | 2.6V | 08:21:00 | 00:00:00 | 00:00:00 | |
| OE8JPQ-2 | 2026-09-03 03:26:08 | 46.59374 | 16.08764 | 124° | 60km/h | 16376m | -6.0m/s | -55.1°C | 4.3% | 0hPa | 2.5V | 00:00:00 | 00:00:00 | 00:00:00 | |
| OE3JTB-15 | 2026-09-03 03:26:05 | 46.59400 | 16.08710 | 126° | 57km/h | 16394m | -6.1m/s | -55.0°C | 4.3% | 0hPa | 2.5V | 00:00:00 | 00:00:00 | 00:00:00 | |
| OE3OSB-13 | 2026-09-03 03:26:04 | 46.59409 | 16.08692 | 124° | 62km/h | 16399m | -5.6m/s | -55.0°C | 1.4% | -1.0hPa | 2.5V | 00:00:00 | 00:00:00 | 00:00:00 | |
| PG1ADW-2 | 2026-09-03 03:26:01 | 46.59435 | 16.08636 | 125° | 57km/h | 16416m | -5.9m/s | -54.6°C | 4.2% | 0hPa | 2.5V | 00:00:00 | 00:00:00 | 00:00:00 | |
| OE5DXL-15 | 2026-09-03 03:25:58 | 46.59460 | 16.08581 | 124° | 60km/h | 16433m | -5.8m/s | -54.4°C | 4.2% | 0hPa | 2.5V | 00:00:00 | 00:00:00 | 00:00:00 | |
| OE8JPQ-2 | 2026-09-03 03:25:48 | 46.59546 | 16.08409 | 123° | 60km/h | 16490m | -5.2m/s | -54.3°C | 4.2% | 0hPa | 2.5V | 00:00:00 | 00:00:00 | 00:00:00 | |
| PG1ADW-2 | 2026-09-03 03:25:41 | 46.59597 | 16.08301 | 137° | 62km/h | 16536m | -6.4m/s | -54.2°C | 4.1% | 0hPa | 2.5V | 00:00:00 | 01:39:12 | 00:00:00 | |
| OE5DRO-10 | 2026-09-03 03:25:39 | 46.59616 | 16.08277 | 142° | 62km/h | 16547m | -5.2m/s | -54.1°C | 4.1% | 0hPa | 2.5V | 00:00:00 | 00:00:00 | 00:00:00 | |
| OE3JTB-15 | 2026-09-03 03:25:36 | 46.59653 | 16.08234 | 138° | 58km/h | 16562m | -5.0m/s | -54.0°C | 4.2% | 0hPa | 2.5V | 00:00:00 | 01:39:07 | 00:00:00 | |
| PETON7-10 | 2026-09-03 03:25:33 | 46.59690 | 16.08175 | 127° | 57km/h | 16580m | -6.4m/s | -54.0°C | 4.3% | 0hPa | 2.5V | 00:00:00 | 01:39:04 | 00:00:00 | |
| OE8JPQ-2 | 2026-09-03 03:25:28 | 46.59732 | 16.08063 | 113° | 53km/h | 16609m | -5.6m/s | -53.8°C | 4.2% | 0hPa | 2.5V | 00:00:00 | 01:38:59 | 00:00:00 | |
| PG1ADW-2 | 2026-09-03 03:25:21 | 46.59762 | 16.07935 | 109° | 55km/h | 16653m | -6.1m/s | -53.4°C | 4.0% | 0hPa | 2.5V | 08:22:00 | 00:00:00 | 00:00:00 | |
| OE5DRO-10 | 2026-09-03 03:25:20 | 46.59766 | 16.07921 | 115° | 57km/h | 16660m | -6.3m/s | -53.4°C | 4.0% | 0hPa | 2.5V | 00:00:00 | 00:00:00 | 00:00:00 | |
| PETON7-10 | 2026-09-03 03:25:18 | 46.59776 | 16.07896 | 126° | 58km/h | 16673m | -5.7m/s | -53.3°C | 4.0% | 0hPa | 2.6V | 00:00:00 | 00:00:00 | 00:00:00 | |
| OE8JPQ-2 | 2026-09-03 03:25:08 | 46.59857 | 16.07732 | 120° | 51km/h | 16732m | -6.3m/s | -52.5°C | 3.6% | 0hPa | 2.5V | 00:00:00 | 00:00:00 | 00:00:00 | |
| OE3JTB-15 | 2026-09-03 03:25:07 | 46.59864 | 16.07712 | 116° | 46km/h | 16738m | -6.7m/s | -52.5°C | 3.7% | 0hPa | 2.7V | 00:00:00 | 00:00:00 | 00:00:00 | |
| PETON7-10 | 2026-09-03 03:25:03 | 46.59886 | 16.07623 | 103° | 47km/h | 16766m | -6.7m/s | -52.8°C | 3.7% | 0hPa | 2.7V | 00:00:00 | 00:00:00 | 00:00:00 | |
| PG1ADW-2 | 2026-09-03 03:25:01 | 46.59889 | 16.07580 | 92° | 42km/h | 16778m | -5.5m/s | -52.8°C | 3.7% | 0hPa | 2.7V | 00:00:00 | 00:00:00 | 00:00:00 | |
| OE5DXL-15 | 2026-09-03 03:24:58 | 46.59888 | 16.07525 | 88° | 38km/h | 16795m | -5.1m/s | -52.8°C | 3.7% | 0hPa | 2.7V | 00:00:00 | 00:00:00 | 00:00:00 | |
| OE8JPQ-2 | 2026-09-03 03:24:48 | 46.59881 | 16.07367 | 91° | 35km/h | 16855m | -6.2m/s | -53.4°C | 3.9% | 0hPa | 2.7V | 00:00:00 | 00:00:00 | 00:00:00 | |
| OE5DRO-10 | 2026-09-03 03:24:42 | 46.59884 | 16.07287 | 93° | 35km/h | 16891m | -7.1m/s | -53.7°C | 4.0% | 0hPa | 2.7V | 00:00:00 | 00:00:00 | 00:00:00 | |
| PG1ADW-2 | 2026-09-03 03:24:41 | 46.59885 | 16.07274 | 96° | 33km/h | 16898m | -6.6m/s | -53.7°C | 4.1% | 0hPa | 2.7V | 00:00:00 | 00:00:00 | 00:00:00 | |
| OE3JTB-15 | 2026-09-03 03:24:38 | 46.59886 | 16.07234 | 91° | 27km/h | 16919m | -6.9m/s | -53.7°C | 4.1% | 0hPa | 2.7V | 00:00:00 | 00:00:00 | 00:00:00 | |
| PETON7-10 | 2026-09-03 03:24:33 | 46.59886 | 16.07169 | 88° | 31km/h | 16951m | -6.2m/s | -53.2°C | 3.9% | 0hPa | 2.7V | 08:23:00 | 00:00:00 | 00:00:00 | |
| OE5DXL-15 | 2026-09-03 03:24:28 | 46.59882 | 16.07108 | 81° | 24km/h | 16983m | -6.2m/s | -53.4°C | 3.9% | 0hPa | 2.5V | 00:00:00 | 00:00:00 | 00:00:00 | |
| OE5DRO-10 | 2026-09-03 03:24:23 | 46.59873 | 16.07051 | 74° | 20km/h | 17013m | -6.5m/s | -53.5°C | 4.0% | 0hPa | 2.5V | 00:00:00 | 00:00:00 | 00:00:00 | |
| PG1ADW-2 | 2026-09-03 03:24:21 | 46.59870 | 16.07032 | 74° | 20km/h | 17026m | -5.8m/s | -53.1°C | 3.9% | 0hPa | 2.7V | 00:00:00 | 01:37:52 | 00:00:00 | |
| PETON7-10 | 2026-09-03 03:24:18 | 46.59866 | 16.07006 | 77° | 18km/h | 17044m | -6.5m/s | -52.6°C | 3.6% | 0hPa | 2.5V | 00:00:00 | 00:00:00 | 00:00:00 | |
| OE3JTB-15 | 2026-09-03 03:24:09 | 46.59869 | 16.06951 | 112° | 29km/h | 17100m | -5.9m/s | -53.0°C | 3.7% | 0hPa | 2.5V | 00:00:00 | 01:37:40 | 00:00:00 | |
| OE8JPQ-2 | 2026-09-03 03:24:08 | 46.59871 | 16.06945 | 123° | 27km/h | 17106m | -5.5m/s | -53.0°C | 3.7% | 0hPa | 2.5V | 08:23:00 | 00:00:00 | 00:00:00 | |
| OE5DRO-10 | 2026-09-03 03:24:04 | 46.59882 | 16.06917 | 119° | 31km/h | 17130m | -6.3m/s | -53.1°C | 3.8% | 0hPa | 2.7V | 00:00:00 | 00:00:00 | 00:00:00 | |
| PG1ADW-2 | 2026-09-03 03:24:01 | 46.59891 | 16.06891 | 115° | 33km/h | 17149m | -6.0m/s | -53.2°C | 3.8% | 0hPa | 2.7V | 00:00:00 | 00:00:00 | 00:00:00 | |
| OE5DXL-15 | 2026-09-03 03:23:58 | 46.59898 | 16.06860 | 106° | 37km/h | 17168m | -5.9m/s | -53.4°C | 3.8% | 0hPa | 2.7V | 00:00:00 | 00:00:00 | 00:00:00 | |
| PETON7-10 | 2026-09-03 03:23:48 | 46.59919 | 16.06748 | 101° | 37km/h | 17229m | -6.5m/s | -53.9°C | 3.9% | 0hPa | 2.5V | 00:00:00 | 00:00:00 | 00:00:00 | |
| OE5DRO-10 | 2026-09-03 03:23:45 | 46.59924 | 16.06710 | 101° | 40km/h | 17247m | -5.7m/s | -54.0°C | 4.0% | 0hPa | 2.6V | 00:00:00 | 00:00:00 | 00:00:00 | |
| PG1ADW-2 | 2026-09-03 03:23:41 | 46.59929 | 16.06658 | 95° | 40km/h | 17273m | -6.7m/s | -54.1°C | 4.0% | 0hPa | 2.6V | 00:00:00 | 00:00:00 | 00:00:00 | |
| OE3JTB-15 | 2026-09-03 03:23:40 | 46.59930 | 16.06644 | 96° | 44km/h | 17279m | -5.8m/s | -54.1°C | 3.9% | 0hPa | 2.6V | 00:00:00 | 00:00:00 | 00:00:00 | |
| PETON7-10 | 2026-09-03 03:23:33 | 46.59935 | 16.06541 | 96° | 42km/h | 17324m | -6.4m/s | -54.3°C | 4.0% | 0hPa | 2.5V | 00:00:00 | 00:00:00 | 00:00:00 | |
| OE5DXL-15 | 2026-09-03 03:23:28 | 46.59943 | 16.06468 | 98° | 47km/h | 17355m | -6.9m/s | -54.5°C | 4.0% | 0hPa | 2.5V | 00:00:00 | 00:00:00 | 00:00:00 | |
| OE5DRO-10 | 2026-09-03 03:23:26 | 46.59947 | 16.06438 | 102° | 47km/h | 17368m | -6.8m/s | -54.6°C | 4.0% | 0hPa | 2.5V | 08:24:00 | 00:00:00 | 00:00:00 | |
| PG1ADW-2 | 2026-09-03 03:23:21 | 46.59957 | 16.06361 | 102° | 49km/h | 17401m | -6.2m/s | -54.9°C | 4.1% | 0hPa | 2.5V | 00:00:00 | 00:00:00 | 00:00:00 | |
| PETON7-10 | 2026-09-03 03:23:18 | 46.59962 | 16.06312 | 101° | 49km/h | 17421m | -6.6m/s | -55.1°C | 4.1% | 0hPa | 2.5V | 00:00:00 | 01:36:49 | 00:00:00 | |
| OE3JTB-15 | 2026-09-03 03:23:11 | 46.59968 | 16.06186 | 89° | 49km/h | 17466m | -6.3m/s | -55.4°C | 4.2% | 0hPa | 2.5V | 00:00:00 | 00:00:00 | 00:00:00 | |
| OE8JPQ-2 | 2026-09-03 03:23:08 | 46.59965 | 16.06130 | 86° | 49km/h | 17485m | -6.0m/s | -55.6°C | 4.3% | 0hPa | 2.5V | 00:00:00 | 00:00:00 | 00:00:00 | |
| OE5DRO-10 | 2026-09-03 03:23:07 | 46.59964 | 16.06112 | 83° | 49km/h | 17491m | -6.6m/s | -55.6°C | 4.3% | 0hPa | 2.5V | 00:00:00 | 00:00:00 | 00:00:00 | |
| PETON7-10 | 2026-09-03 03:23:03 | 46.59959 | 16.06038 | 85° | 47km/h | 17516m | -6.5m/s | -55.7°C | 4.4% | 0hPa | 2.5V | 00:00:00 | 00:00:00 | 00:00:00 | |
| PG1ADW-2 | 2026-09-03 03:23:01 | 46.59957 | 16.06001 | 87° | 47km/h | 17528m | -6.4m/s | -55.6°C | 4.4% | 0hPa | 2.5V | 00:00:00 | 01:36:32 | 00:00:00 | |
| OE5DXL-15 | 2026-09-03 03:22:58 | 46.59956 | 16.05946 | 88° | 40km/h | 17546m | -6.3m/s | -55.7°C | 4.4% | 0hPa | 2.5V | 00:00:00 | 00:00:00 | 00:00:00 | |
| PETON7-10 | 2026-09-03 03:22:48 | 46.59955 | 16.05773 | 93° | 40km/h | 17610m | -6.7m/s | -55.5°C | 4.3% | 0hPa | 2.5V | 00:00:00 | 00:00:00 | 00:00:00 | |
| OE3JTB-15 | 2026-09-03 03:22:42 | 46.59959 | 16.05673 | 95° | 31km/h | 17649m | -6.4m/s | -55.1°C | 4.2% | 0hPa | 2.5V | 00:00:00 | 01:36:13 | 00:00:00 | |
| PG1ADW-2 | 2026-09-03 03:22:41 | 46.59960 | 16.05658 | 95° | 31km/h | 17655m | -7.0m/s | -55.1°C | 4.2% | 0hPa | 2.5V | 00:00:00 | 00:00:00 | 00:00:00 | |
| PETON7-10 | 2026-09-03 03:22:33 | 46.59968 | 16.05558 | 98° | 29km/h | 17710m | -6.4m/s | -55.4°C | 4.3% | 0hPa | 2.5V | 00:00:00 | 01:36:04 | 00:00:00 | |
| OE5DRO-10 | 2026-09-03 03:22:29 | 46.59973 | 16.05512 | 99° | 29km/h | 17736m | -7.3m/s | -55.4°C | 4.3% | 0hPa | 2.5V | 00:00:00 | 00:00:00 | 00:00:00 | |
| OE8JPQ-2 | 2026-09-03 03:22:28 | 46.59974 | 16.05500 | 104° | 29km/h | 17743m | -6.0m/s | -55.4°C | 4.2% | 0hPa | 2.7V | 00:00:00 | 01:35:59 | 00:00:00 | |
| PG1ADW-2 | 2026-09-03 03:22:21 | 46.59987 | 16.05429 | 114° | 31km/h | 17791m | -6.7m/s | -55.3°C | 4.3% | 0hPa | 2.7V | 08:25:00 | 00:00:00 | 00:00:00 | |
| PETON7-10 | 2026-09-03 03:22:18 | 46.59996 | 16.05402 | 122° | 31km/h | 17811m | -6.7m/s | -55.3°C | 4.3% | 0hPa | 2.5V | 08:25:00 | 00:00:00 | 00:00:00 | |
| OE3JTB-15 | 2026-09-03 03:22:13 | 46.60015 | 16.05357 | 122° | 31km/h | 17843m | -6.6m/s | -55.2°C | 4.2% | 0hPa | 2.5V | 08:25:00 | 00:00:00 | 00:00:00 | |
| OE5DRO-10 | 2026-09-03 03:22:10 | 46.60028 | 16.05327 | 126° | 31km/h | 17863m | -6.0m/s | -55.3°C | 4.3% | 0hPa | 2.5V | 00:00:00 | 00:00:00 | 00:00:00 | |
| OE8JPQ-2 | 2026-09-03 03:22:08 | 46.60037 | 16.05307 | 126° | 31km/h | 17876m | -6.6m/s | -55.3°C | 4.3% | 0hPa | 2.5V | 00:00:00 | 00:00:00 | 00:00:00 | |
| PETON7-10 | 2026-09-03 03:22:03 | 46.60059 | 16.05256 | 118° | 29km/h | 17910m | -7.0m/s | -55.2°C | 4.4% | 0hPa | 2.5V | 00:00:00 | 00:00:00 | 00:00:00 | |
| PG1ADW-2 | 2026-09-03 03:22:01 | 46.60066 | 16.05237 | 113° | 29km/h | 17923m | -6.9m/s | -55.0°C | 4.3% | 0hPa | 2.5V | 00:00:00 | 00:00:00 | 00:00:00 | |
| OE5DXL-15 | 2026-09-03 03:21:58 | 46.60075 | 16.05207 | 111° | 29km/h | 17943m | -6.8m/s | -54.7°C | 4.1% | 0hPa | 2.5V | 00:00:00 | 00:00:00 | 00:00:00 | |
| OE5DRO-10 | 2026-09-03 03:21:51 | 46.60092 | 16.05136 | 102° | 29km/h | 17990m | -6.9m/s | -54.7°C | 4.2% | 0hPa | 2.5V | 00:00:00 | 00:00:00 | 00:00:00 | |
| OE8JPQ-2 | 2026-09-03 03:21:48 | 46.60097 | 16.05104 | 106° | 29km/h | 18010m | -7.0m/s | -54.7°C | 4.2% | 0hPa | 2.5V | 00:00:00 | 00:00:00 | 00:00:00 | |
| OE3JTB-15 | 2026-09-03 03:21:44 | 46.60107 | 16.05062 | 116° | 27km/h | 18037m | -6.9m/s | -54.7°C | 4.2% | 0hPa | 2.5V | 00:00:00 | 00:00:00 | 00:00:00 | |
| PG1ADW-2 | 2026-09-03 03:21:41 | 46.60118 | 16.05033 | 119° | 27km/h | 18056m | -7.0m/s | -54.7°C | 4.2% | 0hPa | 2.5V | 00:00:00 | 01:35:12 | 00:00:00 | |
| PETON7-10 | 2026-09-03 03:21:33 | 46.60142 | 16.04955 | 111° | 27km/h | 18112m | -6.7m/s | -54.7°C | 4.2% | 0hPa | 2.5V | 00:00:00 | 00:00:00 | 00:00:00 | |
| OE5DRO-10 | 2026-09-03 03:21:32 | 46.60145 | 16.04946 | 108° | 26km/h | 18119m | -7.6m/s | -54.6°C | 4.1% | 0hPa | 2.5V | 00:00:00 | 00:00:00 | 00:00:00 | |
| OE8JPQ-2 | 2026-09-03 03:21:28 | 46.60153 | 16.04908 | 106° | 24km/h | 18147m | -7.0m/s | -54.5°C | 4.1% | 0hPa | 2.5V | 00:00:00 | 01:34:59 | 00:00:00 | |
| PG1ADW-2 | 2026-09-03 03:21:21 | 46.60161 | 16.04840 | 95° | 22km/h | 18196m | -7.0m/s | -54.3°C | 4.1% | 0hPa | 2.5V | 00:00:00 | 00:00:00 | 00:00:00 | |
| PETON7-10 | 2026-09-03 03:21:18 | 46.60164 | 16.04813 | 104° | 22km/h | 18216m | -6.8m/s | -54.3°C | 4.2% | 0hPa | 2.7V | 00:00:00 | 00:00:00 | 00:00:00 | |
| OE3JTB-15 | 2026-09-03 03:21:15 | 46.60169 | 16.04790 | 115° | 22km/h | 18236m | -6.8m/s | -54.2°C | 4.2% | 0hPa | 2.7V | 00:00:00 | 01:34:46 | 00:00:00 | |
| OE5DRO-10 | 2026-09-03 03:21:13 | 46.60174 | 16.04777 | 120° | 22km/h | 18250m | -7.1m/s | -54.0°C | 4.1% | 0hPa | 2.7V | 00:00:00 | 00:00:00 | 00:00:00 | |
| OE8JPQ-2 | 2026-09-03 03:21:08 | 46.60187 | 16.04745 | 119° | 22km/h | 18285m | -7.2m/s | -53.9°C | 4.0% | 0hPa | 2.7V | 08:26:00 | 00:00:00 | 00:00:00 | |
| PG1ADW-2 | 2026-09-03 03:21:01 | 46.60210 | 16.04696 | 125° | 22km/h | 18332m | -7.1m/s | -53.7°C | 3.9% | 0hPa | 2.5V | 00:00:00 | 00:00:00 | 00:00:00 | |
| OE5DXL-15 | 2026-09-03 03:20:58 | 46.60219 | 16.04676 | 120° | 27km/h | 18353m | -6.5m/s | -53.5°C | 3.9% | 0hPa | 2.5V | 08:26:00 | 00:00:00 | 00:00:00 | |
| OE5DRO-10 | 2026-09-03 03:20:54 | 46.60228 | 16.04649 | 114° | 22km/h | 18379m | -7.0m/s | -53.5°C | 3.8% | 0hPa | 2.5V | 00:00:00 | 00:00:00 | 00:00:00 | |
| PETON7-10 | 2026-09-03 03:20:48 | 46.60246 | 16.04604 | 122° | 24km/h | 18419m | -7.0m/s | -53.5°C | 3.9% | 0hPa | 2.5V | 00:00:00 | 00:00:00 | 00:00:00 | |
| OE3JTB-15 | 2026-09-03 03:20:46 | 46.60252 | 16.04588 | 115° | 26km/h | 18432m | -6.3m/s | -53.6°C | 3.9% | 0hPa | 2.5V | 00:00:00 | 00:00:00 | 00:00:00 | |
| PG1ADW-2 | 2026-09-03 03:20:41 | 46.60257 | 16.04551 | 99° | 38km/h | 18467m | -7.3m/s | -53.8°C | 3.9% | 0hPa | 2.5V | 00:00:00 | 00:00:00 | 00:00:00 | |
| OE5DRO-10 | 2026-09-03 03:20:35 | 46.60271 | 16.04512 | 132° | 40km/h | 18513m | -7.0m/s | -54.2°C | 4.0% | 0hPa | 2.5V | 08:27:00 | 00:00:00 | 00:00:00 | |
| PETON7-10 | 2026-09-03 03:20:33 | 46.60284 | 16.04490 | 127° | 44km/h | 18525m | -6.9m/s | -54.2°C | 4.0% | 0hPa | 2.5V | 00:00:00 | 00:00:00 | 00:00:00 | |
| OE8JPQ-2 | 2026-09-03 03:20:28 | 46.60308 | 16.04404 | 100° | 31km/h | 18561m | -7.1m/s | -53.9°C | 3.9% | 0hPa | 2.5V | 00:00:00 | 01:33:59 | 00:00:00 | |
| PG1ADW-2 | 2026-09-03 03:20:21 | 46.60297 | 16.04292 | 67° | 31km/h | 18611m | -7.0m/s | -54.3°C | 4.1% | 0hPa | 2.5V | 00:00:00 | 01:33:52 | 00:00:00 | |
| PETON7-10 | 2026-09-03 03:20:18 | 46.60291 | 16.04269 | 88° | 29km/h | 18634m | -6.9m/s | -54.5°C | 4.1% | 0hPa | 2.5V | 00:00:00 | 01:33:49 | 00:00:00 | |
| OE5DRO-10 | 2026-09-03 03:20:16 | 46.60292 | 16.04256 | 112° | 38km/h | 18648m | -6.6m/s | -54.6°C | 4.2% | 0hPa | 2.5V | 00:00:00 | 00:00:00 | 00:00:00 | |
| OE8JPQ-2 | 2026-09-03 03:20:08 | 46.60327 | 16.04203 | 133° | 46km/h | 18703m | -6.8m/s | -54.2°C | 4.1% | 0hPa | 2.5V | 00:00:00 | 00:00:00 | 00:00:00 | |
| PETON7-10 | 2026-09-03 03:20:03 | 46.60360 | 16.04136 | 122° | 47km/h | 18737m | -6.8m/s | -53.8°C | 4.0% | 0hPa | 2.5V | 08:27:00 | 00:00:00 | 00:00:00 | |
| PG1ADW-2 | 2026-09-03 03:20:01 | 46.60372 | 16.04103 | 117° | 38km/h | 18752m | -6.7m/s | -53.8°C | 4.0% | 0hPa | 2.7V | 00:00:00 | 00:00:00 | 00:00:00 | |
| OE5DXL-15 | 2026-09-03 03:19:58 | 46.60389 | 16.04052 | 116° | 42km/h | 18772m | -6.9m/s | -53.8°C | 3.9% | 0hPa | 2.7V | 00:00:00 | 00:00:00 | 00:00:00 | |
| OE5DRO-10 | 2026-09-03 03:19:57 | 46.60394 | 16.04034 | 113° | 35km/h | 18779m | -7.0m/s | -53.8°C | 3.9% | 0hPa | 2.7V | 00:00:00 | 00:00:00 | 00:00:00 | |
| OE8JPQ-2 | 2026-09-03 03:19:48 | 46.60414 | 16.03896 | 95° | 40km/h | 18843m | -7.2m/s | -54.1°C | 4.0% | 0hPa | 2.7V | 00:00:00 | 00:00:00 | 00:00:00 | |
| OE5DRO-10 | 2026-09-03 03:19:38 | 46.60466 | 16.03836 | 136° | 49km/h | 18916m | -6.5m/s | -54.3°C | 4.0% | 0hPa | 2.7V | 00:00:00 | 00:00:00 | 00:00:00 | |
| PETON7-10 | 2026-09-03 03:19:33 | 46.60506 | 16.03764 | 126° | 47km/h | 18951m | -7.2m/s | -54.4°C | 4.0% | 0hPa | 2.7V | 00:00:00 | 01:33:04 | 00:00:00 | |
| OE8JPQ-2 | 2026-09-03 03:19:28 | 46.60548 | 16.03684 | 134° | 33km/h | 18985m | -7.6m/s | -54.5°C | 4.0% | 0hPa | 2.7V | 00:00:00 | 01:32:59 | 00:00:00 | |
| PG1ADW-2 | 2026-09-03 03:19:21 | 46.60617 | 16.03616 | 155° | 20km/h | 19034m | -7.0m/s | -54.6°C | 4.2% | 0hPa | 2.7V | 08:28:00 | 00:00:00 | 00:00:00 | |
| OE5DRO-10 | 2026-09-03 03:19:19 | 46.60634 | 16.03606 | 162° | 16km/h | 19048m | -7.0m/s | -54.6°C | 4.2% | 0hPa | 2.5V | 00:00:00 | 00:00:00 | 00:00:00 | |
| PETON7-10 | 2026-09-03 03:19:18 | 46.60641 | 16.03603 | 157° | 18km/h | 19055m | -7.2m/s | -54.7°C | 4.2% | 0hPa | 2.5V | 00:00:00 | 00:00:00 | 00:00:00 | |
| OE8JPQ-2 | 2026-09-03 03:19:08 | 46.60684 | 16.03564 | 144° | 15km/h | 19131m | -7.8m/s | -54.8°C | 4.2% | 0hPa | 2.5V | 00:00:00 | 00:00:00 | 00:00:00 | |
| PG1ADW-2 | 2026-09-03 03:19:01 | 46.60700 | 16.03545 | 114° | 20km/h | 19182m | -7.9m/s | -54.4°C | 4.1% | 0hPa | 2.5V | 00:00:00 | 01:32:32 | 00:00:00 | |
| OE5DRO-10 | 2026-09-03 03:19:00 | 46.60701 | 16.03543 | 98° | 20km/h | 19190m | -7.1m/s | -54.4°C | 4.1% | 0hPa | 2.5V | 00:00:00 | 00:00:00 | 00:00:00 | |
| OE5DXL-15 | 2026-09-03 03:18:58 | 46.60701 | 16.03536 | 99° | 24km/h | 19204m | -7.5m/s | -54.3°C | 4.1% | 0hPa | 2.5V | 00:00:00 | 00:00:00 | 00:00:00 | |
| OE8JPQ-2 | 2026-09-03 03:18:48 | 46.60691 | 16.03468 | 79° | 27km/h | 19277m | -7.8m/s | -54.5°C | 4.2% | 0hPa | 2.5V | 00:00:00 | 00:00:00 | 00:00:00 | |
| PG1ADW-2 | 2026-09-03 03:18:41 | 46.60681 | 16.03399 | 79° | 24km/h | 19328m | -7.6m/s | -53.7°C | 3.9% | 0hPa | 2.5V | 00:00:00 | 00:00:00 | 00:00:00 | |
| PETON7-10 | 2026-09-03 03:18:33 | 46.60694 | 16.03320 | 126° | 18km/h | 19386m | -7.4m/s | -54.2°C | 4.0% | 0hPa | 2.5V | 00:00:00 | 00:00:00 | 00:00:00 | |
| OE8JPQ-2 | 2026-09-03 03:18:28 | 46.60714 | 16.03290 | 151° | 11km/h | 19422m | -7.6m/s | -54.4°C | 4.1% | 0hPa | 2.5V | 00:00:00 | 01:31:59 | 00:00:00 | |
| OE5DRO-10 | 2026-09-03 03:18:22 | 46.60737 | 16.03280 | 190° | 9km/h | 19464m | -7.6m/s | -54.5°C | 4.1% | 0hPa | 2.5V | 00:00:00 | 00:00:00 | 00:00:00 | |
| PG1ADW-2 | 2026-09-03 03:18:21 | 46.60741 | 16.03280 | 193° | 9km/h | 19472m | -8.1m/s | -54.5°C | 4.1% | 0hPa | 2.5V | 00:00:00 | 00:00:00 | 00:00:00 | |
| PETON7-10 | 2026-09-03 03:18:18 | 46.60750 | 16.03285 | 220° | 9km/h | 19495m | -8.7m/s | -54.6°C | 4.1% | 0hPa | 2.7V | 00:00:00 | 00:00:00 | 00:00:00 | |
| OE8JPQ-2 | 2026-09-03 03:18:08 | 46.60752 | 16.03301 | 354° | 18km/h | 19568m | -7.9m/s | -54.6°C | 4.0% | 0hPa | 2.7V | 00:00:00 | 00:00:00 | 08:30:00 | |
| OE3JTB-15 | 2026-09-03 03:18:04 | 46.60742 | 16.03301 | 349° | 24km/h | 19600m | -8.5m/s | -54.8°C | 4.0% | 0hPa | 2.5V | 00:00:00 | 01:31:35 | 00:00:00 | |
| PG1ADW-2 | 2026-09-03 03:18:01 | 46.60738 | 16.03306 | 265° | 24km/h | 19625m | -8.0m/s | -55.0°C | 4.1% | 0hPa | 2.5V | 00:00:00 | 00:00:00 | 00:00:00 | |
| OE5DXL-15 | 2026-09-03 03:17:58 | 46.60744 | 16.03313 | 185° | 29km/h | 19646m | -6.8m/s | -54.8°C | 4.0% | 0hPa | 2.5V | 00:00:00 | 00:00:00 | 00:00:00 | |
| OE8JPQ-2 | 2026-09-03 03:17:48 | 46.60803 | 16.03283 | 145° | 31km/h | 19719m | -7.4m/s | -55.3°C | 4.2% | 0hPa | 2.5V | 00:00:00 | 00:00:00 | 00:00:00 | |
| OE5DRO-10 | 2026-09-03 03:17:44 | 46.60816 | 16.03249 | 100° | 33km/h | 19750m | -7.9m/s | -55.6°C | 4.2% | 0hPa | 2.5V | 00:00:00 | 00:00:00 | 08:30:00 | |
| PG1ADW-2 | 2026-09-03 03:17:41 | 46.60816 | 16.03219 | 85° | 33km/h | 19774m | -7.9m/s | -55.8°C | 4.2% | 0hPa | 2.7V | 00:00:00 | 01:31:12 | 00:00:00 | |
| OE3JTB-15 | 2026-09-03 03:17:35 | 46.60814 | 16.03148 | 103° | 29km/h | 19819m | -7.2m/s | -55.9°C | 4.2% | 0hPa | 2.7V | 00:00:00 | 00:00:00 | 00:00:00 | |
| PETON7-10 | 2026-09-03 03:17:33 | 46.60818 | 16.03123 | 111° | 29km/h | 19834m | -7.8m/s | -56.0°C | 4.3% | 0hPa | 2.5V | 00:00:00 | 00:00:00 | 00:00:00 | |
| OE8JPQ-2 | 2026-09-03 03:17:28 | 46.60840 | 16.03071 | 133° | 27km/h | 19871m | -7.6m/s | -56.2°C | 4.5% | 0hPa | 2.5V | 00:00:00 | 01:30:59 | 00:00:00 | |
| OE5DRO-10 | 2026-09-03 03:17:25 | 46.60857 | 16.03045 | 136° | 26km/h | 19893m | -8.2m/s | -56.3°C | 4.5% | 0hPa | 2.5V | 00:00:00 | 00:00:00 | 00:00:00 | |
| PG1ADW-2 | 2026-09-03 03:17:21 | 46.60873 | 16.03013 | 119° | 24km/h | 19924m | -7.6m/s | -56.5°C | 4.5% | 0hPa | 2.5V | 00:00:00 | 00:00:00 | 00:00:00 | |
| PETON7-10 | 2026-09-03 03:17:18 | 46.60881 | 16.02990 | 119° | 24km/h | 19960m | -22.0m/s | -56.5°C | 4.2% | 0hPa | 2.6V | 00:00:00 | 01:30:49 | 00:00:00 | |
| OE8JPQ-2 | 2026-09-03 03:17:08 | 46.60925 | 16.02919 | 128° | 22km/h | 20042m | 5.0m/s | -56.1°C | 4.3% | 0hPa | 2.6V | 00:00:00 | 00:00:00 | 00:00:00 | |
| OE3JTB-15 | 2026-09-03 03:17:06 | 46.60932 | 16.02908 | 134° | 24km/h | 20031m | 4.2m/s | -56.3°C | 4.4% | 0hPa | 2.6V | 00:00:00 | 00:00:00 | 00:00:00 | |
| PETON7-10 | 2026-09-03 03:17:03 | 46.60941 | 16.02890 | 124° | 22km/h | 20013m | 6.0m/s | -56.5°C | 4.5% | 0hPa | 2.6V | 00:00:00 | 00:00:00 | 00:00:00 | |
| PG1ADW-2 | 2026-09-03 03:17:01 | 46.60947 | 16.02877 | 121° | 24km/h | 20002m | 5.3m/s | -56.5°C | 4.5% | 0hPa | 2.6V | 00:00:00 | 00:00:00 | 00:00:00 | |
| OE5DXL-15 | 2026-09-03 03:16:58 | 46.60956 | 16.02853 | 124° | 22km/h | 19986m | 6.2m/s | -56.6°C | 4.5% | 0hPa | 2.6V | 00:00:00 | 00:00:00 | 00:00:00 | |
| OE8JPQ-2 | 2026-09-03 03:16:48 | 46.60984 | 16.02783 | 101° | 22km/h | 19932m | 6.7m/s | -56.5°C | 4.6% | 0hPa | 2.6V | 00:00:00 | 00:00:00 | 00:00:00 | |
| OE5DRO-10 | 2026-09-03 03:16:47 | 46.60986 | 16.02774 | 104° | 22km/h | 19925m | 5.8m/s | -56.5°C | 4.6% | 0hPa | 2.6V | 00:00:00 | 00:00:00 | 00:00:00 | |
| PG1ADW-2 | 2026-09-03 03:16:41 | 46.60994 | 16.02718 | 101° | 18km/h | 19893m | 5.5m/s | -56.3°C | 4.5% | 0hPa | 2.6V | 00:00:00 | 00:00:00 | 00:00:00 | |
| OE3JTB-15 | 2026-09-03 03:16:37 | 46.60998 | 16.02687 | 100° | 15km/h | 19870m | 5.0m/s | -56.1°C | 4.5% | 0hPa | 2.6V | 00:00:00 | 01:30:08 | 00:00:00 | |
| PETON7-10 | 2026-09-03 03:16:33 | 46.61000 | 16.02661 | 98° | 16km/h | 19847m | 5.7m/s | -56.1°C | 4.4% | 0hPa | 2.6V | 00:00:00 | 01:30:04 | 00:00:00 | |
| OE8JPQ-2 | 2026-09-03 03:16:28 | 46.61004 | 16.02623 | 102° | 11km/h | 19818m | 6.7m/s | -55.9°C | 4.4% | 0hPa | 2.6V | 00:00:00 | 01:29:59 | 00:00:00 | |
| PG1ADW-2 | 2026-09-03 03:16:21 | 46.61011 | 16.02584 | 99° | 9km/h | 19777m | 6.8m/s | -55.8°C | 4.4% | 0hPa | 2.6V | 00:00:00 | 01:29:52 | 08:30:00 | |
| PETON7-10 | 2026-09-03 03:16:18 | 46.61012 | 16.02574 | 86° | 9km/h | 19759m | 4.7m/s | -55.6°C | 4.5% | 0hPa | 2.6V | 00:00:00 | 00:00:00 | 00:00:00 | |
| OE5DRO-10 | 2026-09-03 03:16:09 | 46.61024 | 16.02547 | 143° | 9km/h | 19709m | 5.4m/s | -55.2°C | 4.3% | 0hPa | 2.6V | 00:00:00 | 00:00:00 | 00:00:00 | |
| OE8JPQ-2 | 2026-09-03 03:16:08 | 46.61025 | 16.02545 | 137° | 9km/h | 19704m | 5.2m/s | -55.2°C | 4.3% | 0hPa | 2.6V | 00:00:00 | 00:00:00 | 00:00:00 | |
| PG1ADW-2 | 2026-09-03 03:16:01 | 46.61042 | 16.02535 | 144° | 13km/h | 19665m | 4.3m/s | -54.8°C | 4.2% | 0hPa | 2.7V | 00:00:00 | 00:00:00 | 00:00:00 | |
| OE5DXL-15 | 2026-09-03 03:15:58 | 46.61048 | 16.02523 | 116° | 11km/h | 19650m | 3.6m/s | -54.7°C | 4.2% | 0hPa | 2.7V | 00:00:00 | 00:00:00 | 00:00:00 | |
| OE5DRO-10 | 2026-09-03 03:15:50 | 46.61054 | 16.02513 | 182° | 13km/h | 19606m | 4.7m/s | -54.8°C | 4.2% | 0hPa | 2.7V | 00:00:00 | 00:00:00 | 00:00:00 | |
| OE8JPQ-2 | 2026-09-03 03:15:48 | 46.61060 | 16.02511 | 149° | 13km/h | 19595m | 4.8m/s | -54.7°C | 4.2% | 0hPa | 2.7V | 00:00:00 | 00:00:00 | 00:00:00 | |
| PG1ADW-2 | 2026-09-03 03:15:41 | 46.61083 | 16.02480 | 141° | 9km/h | 19554m | 5.8m/s | -54.5°C | 4.2% | 0hPa | 2.7V | 00:00:00 | 00:00:00 | 00:00:00 | |
| OE3JTB-15 | 2026-09-03 03:15:39 | 46.61087 | 16.02475 | 135° | 9km/h | 19543m | 6.9m/s | -54.4°C | 4.1% | 0hPa | 2.7V | 00:00:00 | 00:00:00 | 00:00:00 | |
| PETON7-10 | 2026-09-03 03:15:33 | 46.61094 | 16.02465 | 126° | 11km/h | 19508m | 5.4m/s | -54.4°C | 4.2% | 0hPa | 2.7V | 00:00:00 | 00:00:00 | 08:30:00 | |
| OE5DRO-10 | 2026-09-03 03:15:31 | 46.61098 | 16.02458 | 129° | 11km/h | 19497m | 4.1m/s | -54.4°C | 4.1% | 0hPa | 2.7V | 00:00:00 | 00:00:00 | 00:00:00 | |
| OE8JPQ-2 | 2026-09-03 03:15:28 | 46.61102 | 16.02446 | 102° | 9km/h | 19480m | 6.2m/s | -54.3°C | 4.1% | 0hPa | 2.7V | 00:00:00 | 01:28:59 | 00:00:00 | |
| PG1ADW-2 | 2026-09-03 03:15:21 | 46.61099 | 16.02424 | 87° | 9km/h | 19440m | 5.5m/s | -54.2°C | 4.1% | 0hPa | 2.7V | 00:00:00 | 00:00:00 | 00:00:00 | |
| PETON7-10 | 2026-09-03 03:15:18 | 46.61101 | 16.02414 | 134° | 9km/h | 19426m | 4.6m/s | -54.1°C | 4.2% | 0hPa | 2.6V | 00:00:00 | 00:00:00 | 00:00:00 | |
| OE5DRO-10 | 2026-09-03 03:15:12 | 46.61106 | 16.02395 | 58° | 9km/h | 19395m | 6.7m/s | -54.0°C | 4.1% | 0hPa | 2.6V | 00:00:00 | 00:00:00 | 00:00:00 | |
| OE3JTB-15 | 2026-09-03 03:15:10 | 46.61103 | 16.02390 | 43° | 13km/h | 19383m | 5.7m/s | -54.0°C | 4.0% | 0hPa | 2.6V | 00:00:00 | 01:28:41 | 00:00:00 | |
| OE8JPQ-2 | 2026-09-03 03:15:08 | 46.61101 | 16.02387 | 35° | 9km/h | 19372m | 4.4m/s | -54.0°C | 4.0% | 0hPa | 2.6V | 00:00:00 | 00:00:00 | 08:30:00 | |
| PETON7-10 | 2026-09-03 03:15:03 | 46.61102 | 16.02378 | 141° | 11km/h | 19344m | 6.1m/s | -53.8°C | 3.9% | 0hPa | 2.6V | 00:00:00 | 01:28:34 | 00:00:00 | |
| PG1ADW-2 | 2026-09-03 03:15:01 | 46.61104 | 16.02372 | 103° | 15km/h | 19331m | 4.9m/s | -53.6°C | 3.9% | 0hPa | 2.6V | 00:00:00 | 01:28:32 | 00:00:00 | |
| OE5DXL-15 | 2026-09-03 03:14:58 | 46.61106 | 16.02360 | 95° | 18km/h | 19313m | 6.7m/s | -53.5°C | 3.9% | 0hPa | 2.6V | 00:00:00 | 00:00:00 | 00:00:00 | |
| OE5DRO-10 | 2026-09-03 03:14:53 | 46.61111 | 16.02340 | 128° | 18km/h | 19282m | 7.2m/s | -53.7°C | 3.9% | 0hPa | 2.6V | 00:00:00 | 00:00:00 | 08:30:00 | |
| OE8JPQ-2 | 2026-09-03 03:14:48 | 46.61121 | 16.02325 | 124° | 22km/h | 19253m | 6.4m/s | -54.2°C | 4.0% | 0hPa | 2.7V | 00:00:00 | 00:00:00 | 00:00:00 | |
| PG1ADW-2 | 2026-09-03 03:14:41 | 46.61138 | 16.02281 | 114° | 24km/h | 19210m | 7.0m/s | -54.2°C | 4.0% | 0hPa | 2.7V | 00:00:00 | 00:00:00 | 00:00:00 | |
| OE5DRO-10 | 2026-09-03 03:14:34 | 46.61157 | 16.02227 | 120° | 26km/h | 19167m | 5.6m/s | -54.0°C | 3.9% | 0hPa | 2.7V | 00:00:00 | 00:00:00 | 00:00:00 | |
| PETON7-10 | 2026-09-03 03:14:33 | 46.61160 | 16.02219 | 126° | 26km/h | 19162m | 5.0m/s | -54.0°C | 4.0% | 0hPa | 2.7V | 00:00:00 | 00:00:00 | 00:00:00 | |
| OE8JPQ-2 | 2026-09-03 03:14:28 | 46.61178 | 16.02188 | 131° | 31km/h | 19135m | 5.6m/s | -54.3°C | 4.0% | 0hPa | 2.7V | 00:00:00 | 01:27:59 | 00:00:00 | |
| PG1ADW-2 | 2026-09-03 03:14:21 | 46.61210 | 16.02141 | 137° | 35km/h | 19095m | 5.5m/s | -54.6°C | 4.2% | 0hPa | 2.7V | 00:00:00 | 00:00:00 | 00:00:00 | |
| PETON7-10 | 2026-09-03 03:14:18 | 46.61225 | 16.02117 | 137° | 35km/h | 19077m | 6.7m/s | -54.7°C | 4.2% | 0hPa | 2.6V | 00:00:00 | 01:27:49 | 00:00:00 | |
| OE5DRO-10 | 2026-09-03 03:14:15 | 46.61244 | 16.02093 | 138° | 37km/h | 19060m | 6.3m/s | -54.7°C | 4.2% | 0hPa | 2.6V | 00:00:00 | 00:00:00 | 00:00:00 | |
| OE3JTB-15 | 2026-09-03 03:14:12 | 46.61265 | 16.02065 | 138° | 37km/h | 19042m | 4.9m/s | -54.6°C | 4.2% | 0hPa | 2.6V | 00:00:00 | 00:00:00 | 00:00:00 | |
| OE8JPQ-2 | 2026-09-03 03:14:08 | 46.61287 | 16.02027 | 131° | 37km/h | 19020m | 5.9m/s | -54.6°C | 4.2% | 0hPa | 2.6V | 00:00:00 | 00:00:00 | 00:00:00 | |
| PETON7-10 | 2026-09-03 03:14:03 | 46.61317 | 16.01976 | 133° | 37km/h | 18990m | 5.5m/s | -54.4°C | 4.1% | 0hPa | 2.6V | 00:00:00 | 00:00:00 | 00:00:00 | |
| OE5DXL-15 | 2026-09-03 03:13:58 | 46.61347 | 16.01922 | 126° | 37km/h | 18961m | 5.3m/s | -54.2°C | 4.1% | 0hPa | 2.6V | 00:00:00 | 00:00:00 | 00:00:00 | |
| OE5DRO-10 | 2026-09-03 03:13:56 | 46.61355 | 16.01903 | 115° | 38km/h | 18950m | 6.9m/s | -54.2°C | 4.1% | 0hPa | 2.6V | 00:00:00 | 00:00:00 | 00:00:00 | |
| PETON7-10 | 2026-09-03 03:13:48 | 46.61391 | 16.01807 | 125° | 37km/h | 18906m | 6.9m/s | -54.3°C | 4.1% | 0hPa | 2.7V | 00:00:00 | 00:00:00 | 00:00:00 | |
| OE3JTB-15 | 2026-09-03 03:13:43 | 46.61421 | 16.01745 | 128° | 37km/h | 18877m | 6.5m/s | -54.2°C | 4.1% | 0hPa | 2.7V | 00:00:00 | 01:27:14 | 00:00:00 | |
| PG1ADW-2 | 2026-09-03 03:13:41 | 46.61432 | 16.01722 | 121° | 35km/h | 18864m | 6.2m/s | -54.2°C | 4.1% | 0hPa | 2.7V | 00:00:00 | 01:27:12 | 00:00:00 | |
| OE5DRO-10 | 2026-09-03 03:13:37 | 46.61450 | 16.01681 | 122° | 35km/h | 18841m | 6.4m/s | -54.0°C | 4.0% | 0hPa | 2.7V | 00:00:00 | 00:00:00 | 00:00:00 | |
| PETON7-10 | 2026-09-03 03:13:33 | 46.61469 | 16.01641 | 125° | 37km/h | 18818m | 5.2m/s | -53.9°C | 4.0% | 0hPa | 2.7V | 00:00:00 | 01:27:04 | 00:00:00 | |
| OE8JPQ-2 | 2026-09-03 03:13:28 | 46.61492 | 16.01586 | 122° | 37km/h | 18790m | 4.8m/s | -53.8°C | 3.9% | 0hPa | 2.7V | 00:00:00 | 01:26:59 | 00:00:00 | |
| PG1ADW-2 | 2026-09-03 03:13:21 | 46.61523 | 16.01501 | 117° | 35km/h | 18748m | 4.8m/s | -53.7°C | 3.9% | 0hPa | 2.7V | 00:00:00 | 00:00:00 | 08:30:00 | |
| OE5DRO-10 | 2026-09-03 03:13:18 | 46.61535 | 16.01464 | 118° | 35km/h | 18731m | 6.6m/s | -53.8°C | 3.8% | 0hPa | 2.6V | 00:00:00 | 00:00:00 | 00:00:00 | |
| OE3JTB-15 | 2026-09-03 03:13:14 | 46.61554 | 16.01418 | 114° | 35km/h | 18709m | 5.6m/s | -54.1°C | 3.9% | 0hPa | 2.6V | 00:00:00 | 00:00:00 | 00:00:00 | |
| OE8JPQ-2 | 2026-09-03 03:13:08 | 46.61568 | 16.01341 | 101° | 35km/h | 18676m | 6.6m/s | -54.5°C | 4.1% | 0hPa | 2.6V | 00:00:00 | 00:00:00 | 00:00:00 | |
| PETON7-10 | 2026-09-03 03:13:03 | 46.61577 | 16.01280 | 105° | 33km/h | 18647m | 6.9m/s | -54.6°C | 4.2% | 0hPa | 2.7V | 00:00:00 | 00:00:00 | 00:00:00 | |
| PG1ADW-2 | 2026-09-03 03:13:01 | 46.61579 | 16.01258 | 98° | 35km/h | 18635m | 6.2m/s | -54.5°C | 4.2% | 0hPa | 2.7V | 00:00:00 | 00:00:00 | 00:00:00 | |
| OE5DRO-10 | 2026-09-03 03:12:59 | 46.61582 | 16.01235 | 102° | 35km/h | 18625m | 5.7m/s | -54.5°C | 4.2% | 0hPa | 2.7V | 00:00:00 | 00:00:00 | 00:00:00 | |
| OE5DXL-15 | 2026-09-03 03:12:58 | 46.61583 | 16.01223 | 103° | 37km/h | 18619m | 4.8m/s | -54.4°C | 4.2% | 0hPa | 2.7V | 00:00:00 | 00:00:00 | 00:00:00 | |
| OE8JPQ-2 | 2026-09-03 03:12:48 | 46.61594 | 16.01098 | 96° | 38km/h | 18564m | 5.9m/s | -54.0°C | 4.0% | 0hPa | 2.7V | 00:00:00 | 00:00:00 | 00:00:00 | |
| OE3JTB-15 | 2026-09-03 03:12:45 | 46.61595 | 16.01061 | 99° | 38km/h | 18548m | 5.6m/s | -54.2°C | 4.1% | 0hPa | 2.7V | 00:00:00 | 00:00:00 | 00:00:00 | |
| PG1ADW-2 | 2026-09-03 03:12:41 | 46.61600 | 16.01012 | 104° | 40km/h | 18525m | 6.5m/s | -54.3°C | 4.1% | 0hPa | 2.7V | 00:00:00 | 00:00:00 | 00:00:00 | |
| OE5DRO-10 | 2026-09-03 03:12:40 | 46.61603 | 16.00999 | 108° | 42km/h | 18520m | 4.3m/s | -54.2°C | 4.1% | 0hPa | 2.7V | 00:00:00 | 00:00:00 | 00:00:00 | |
| PETON7-10 | 2026-09-03 03:12:33 | 46.61619 | 16.00904 | 101° | 40km/h | 18482m | 6.1m/s | -54.0°C | 4.0% | 0hPa | 2.7V | 00:00:00 | 00:00:00 | 00:00:00 | |
| OE8JPQ-2 | 2026-09-03 03:12:28 | 46.61630 | 16.00825 | 105° | 38km/h | 18455m | 4.9m/s | -53.8°C | 3.9% | 0hPa | 2.7V | 00:00:00 | 01:25:59 | 00:00:00 | |
| PG1ADW-2 | 2026-09-03 03:12:21 | 46.61650 | 16.00727 | 100° | 37km/h | 18417m | 4.9m/s | -53.7°C | 3.9% | 0hPa | 2.7V | 00:00:00 | 01:25:52 | 00:00:00 | |
| PETON7-10 | 2026-09-03 03:12:18 | 46.61653 | 16.00689 | 98° | 35km/h | 18400m | 5.8m/s | -53.7°C | 3.9% | 0hPa | 2.6V | 00:00:00 | 00:00:00 | 00:00:00 | |
| OE3JTB-15 | 2026-09-03 03:12:16 | 46.61656 | 16.00662 | 96° | 38km/h | 18391m | 5.4m/s | -53.8°C | 3.9% | 0hPa | 2.6V | 00:00:00 | 01:25:47 | 00:00:00 | |
| OE8JPQ-2 | 2026-09-03 03:12:08 | 46.61669 | 16.00558 | 117° | 38km/h | 18348m | 4.6m/s | -54.3°C | 4.0% | 0hPa | 2.6V | 00:00:00 | 00:00:00 | 08:30:00 | |
| PETON7-10 | 2026-09-03 03:12:03 | 46.61684 | 16.00501 | 104° | 40km/h | 18323m | 4.1m/s | -54.3°C | 4.0% | 0hPa | 2.6V | 00:00:00 | 01:25:34 | 00:00:00 | |
| OE5DRO-10 | 2026-09-03 03:12:02 | 46.61686 | 16.00486 | 100° | 40km/h | 18318m | 6.0m/s | -54.3°C | 4.0% | 0hPa | 2.6V | 00:00:00 | 00:00:00 | 08:30:00 | |
| PG1ADW-2 | 2026-09-03 03:12:01 | 46.61688 | 16.00470 | 100° | 38km/h | 18313m | 4.0m/s | -54.3°C | 3.9% | 0hPa | 2.6V | 00:00:00 | 00:00:00 | 00:00:00 | |
| OE5DXL-15 | 2026-09-03 03:11:58 | 46.61693 | 16.00426 | 99° | 42km/h | 18297m | 6.2m/s | -54.3°C | 4.0% | 0hPa | 2.6V | 00:00:00 | 00:00:00 | 08:30:00 | |
| OE8JPQ-2 | 2026-09-03 03:11:48 | 46.61730 | 16.00294 | 113° | 42km/h | 18243m | 4.4m/s | -54.8°C | 4.2% | 0hPa | 2.6V | 00:00:00 | 00:00:00 | 00:00:00 | |
| OE3JTB-15 | 2026-09-03 03:11:47 | 46.61734 | 16.00282 | 117° | 42km/h | 18238m | 5.9m/s | -54.8°C | 4.1% | 0hPa | 2.6V | 00:00:00 | 00:00:00 | 08:30:00 | |
| OE5DRO-10 | 2026-09-03 03:11:43 | 46.61751 | 16.00232 | 109° | 46km/h | 18218m | 5.0m/s | -54.8°C | 4.1% | 0hPa | 2.6V | 00:00:00 | 00:00:00 | 00:00:00 | |
| PG1ADW-2 | 2026-09-03 03:11:41 | 46.61757 | 16.00204 | 109° | 46km/h | 18208m | 5.7m/s | -54.8°C | 4.2% | 0hPa | 2.6V | 00:00:00 | 00:00:00 | 00:00:00 | |
| PETON7-10 | 2026-09-03 03:11:33 | 46.61788 | 16.00083 | 112° | 46km/h | 18165m | 5.0m/s | -55.1°C | 4.3% | 0hPa | 2.6V | 00:00:00 | 00:00:00 | 00:00:00 | |
| OE8JPQ-2 | 2026-09-03 03:11:28 | 46.61807 | 16.00002 | 105° | 44km/h | 18139m | 7.0m/s | -55.0°C | 4.2% | 0hPa | 2.6V | 00:00:00 | 01:24:59 | 00:00:00 | |
| OE5DRO-10 | 2026-09-03 03:11:24 | 46.61816 | 15.99934 | 98° | 44km/h | 18116m | 3.7m/s | -55.0°C | 4.2% | 0hPa | 2.6V | 00:00:00 | 00:00:00 | 00:00:00 | |
| PG1ADW-2 | 2026-09-03 03:11:21 | 46.61822 | 15.99886 | 102° | 44km/h | 18101m | 6.0m/s | -55.1°C | 4.2% | 0hPa | 2.6V | 00:00:00 | 00:00:00 | 00:00:00 | |
| PETON7-10 | 2026-09-03 03:11:18 | 46.61830 | 15.99842 | 111° | 44km/h | 18084m | 4.2m/s | -55.1°C | 4.3% | 0hPa | 2.7V | 00:00:00 | 01:24:49 | 00:00:00 | |
| OE8JPQ-2 | 2026-09-03 03:11:08 | 46.61862 | 15.99694 | 108° | 47km/h | 18030m | 4.1m/s | -55.0°C | 4.2% | 0hPa | 2.7V | 00:00:00 | 00:00:00 | 00:00:00 | |
| OE5DRO-10 | 2026-09-03 03:11:05 | 46.61873 | 15.99644 | 110° | 46km/h | 18015m | 6.2m/s | -55.0°C | 4.2% | 0hPa | 2.6V | 00:00:00 | 00:00:00 | 00:00:00 | |
| PG1ADW-2 | 2026-09-03 03:11:01 | 46.61887 | 15.99579 | 102° | 44km/h | 17994m | 4.2m/s | -54.9°C | 4.1% | 0hPa | 2.6V | 00:00:00 | 01:24:32 | 00:00:00 | |
| OE5DXL-15 | 2026-09-03 03:10:58 | 46.61894 | 15.99530 | 99° | 42km/h | 17977m | 6.7m/s | -55.0°C | 4.1% | 0hPa | 2.6V | 00:00:00 | 00:00:00 | 00:00:00 | |
| OE8JPQ-2 | 2026-09-03 03:10:48 | 46.61907 | 15.99362 | 89° | 38km/h | 17924m | 6.0m/s | -55.7°C | 4.4% | 0hPa | 2.6V | 00:00:00 | 00:00:00 | 00:00:00 | |
| OE5DRO-10 | 2026-09-03 03:10:46 | 46.61906 | 15.99332 | 92° | 38km/h | 17914m | 5.8m/s | -55.6°C | 4.4% | 0hPa | 2.6V | 00:00:00 | 00:00:00 | 00:00:00 | |
| PG1ADW-2 | 2026-09-03 03:10:41 | 46.61914 | 15.99262 | 103° | 38km/h | 17887m | 4.7m/s | -55.6°C | 4.3% | 0hPa | 2.6V | 00:00:00 | 00:00:00 | 00:00:00 | |
| PETON7-10 | 2026-09-03 03:10:33 | 46.61928 | 15.99155 | 102° | 40km/h | 17842m | 4.9m/s | -55.8°C | 4.5% | 0hPa | 2.6V | 00:00:00 | 01:24:04 | 00:00:00 | |
| OE8JPQ-2 | 2026-09-03 03:10:28 | 46.61942 | 15.99084 | 109° | 40km/h | 17815m | 5.9m/s | -55.9°C | 4.5% | 0hPa | 2.6V | 00:00:00 | 01:23:59 | 00:00:00 | |
| OE5DRO-10 | 2026-09-03 03:10:27 | 46.61945 | 15.99069 | 111° | 40km/h | 17809m | 6.0m/s | -55.9°C | 4.5% | 0hPa | 2.6V | 00:00:00 | 00:00:00 | 00:00:00 | |
| PG1ADW-2 | 2026-09-03 03:10:21 | 46.61966 | 15.98986 | 110° | 40km/h | 17773m | 5.1m/s | -55.9°C | 4.5% | 0hPa | 2.6V | 00:00:00 | 00:00:00 | 08:30:00 | |
| PETON7-10 | 2026-09-03 03:10:18 | 46.61978 | 15.98947 | 116° | 40km/h | 17756m | 4.3m/s | -55.8°C | 4.5% | 0hPa | 2.7V | 00:00:00 | 00:00:00 | 00:00:00 | |
| OE8JPQ-2 | 2026-09-03 03:10:08 | 46.62018 | 15.98812 | 108° | 46km/h | 17696m | 6.5m/s | -55.4°C | 4.4% | 0hPa | 2.7V | 00:00:00 | 00:00:00 | 00:00:00 | |
| PETON7-10 | 2026-09-03 03:10:03 | 46.62035 | 15.98742 | 104° | 46km/h | 17666m | 5.8m/s | -55.3°C | 4.3% | 0hPa | 2.6V | 00:00:00 | 00:00:00 | 00:00:00 | |
| PG1ADW-2 | 2026-09-03 03:10:01 | 46.62041 | 15.98712 | 108° | 47km/h | 17654m | 6.6m/s | -55.3°C | 4.3% | 0hPa | 2.6V | 00:00:00 | 00:00:00 | 00:00:00 | |
| OE5DXL-15 | 2026-09-03 03:09:58 | 46.62050 | 15.98669 | 108° | 46km/h | 17635m | 6.5m/s | -55.5°C | 4.3% | 0hPa | 2.6V | 00:00:00 | 00:00:00 | 00:00:00 | |
| OE5DRO-10 | 2026-09-03 03:09:49 | 46.62088 | 15.98515 | 106° | 46km/h | 17581m | 6.5m/s | -55.7°C | 4.5% | 0hPa | 2.6V | 00:00:00 | 00:00:00 | 00:00:00 | |
| PETON7-10 | 2026-09-03 03:09:48 | 46.62091 | 15.98499 | 108° | 46km/h | 17574m | 6.0m/s | -55.7°C | 4.5% | 0hPa | 2.6V | 00:00:00 | 01:23:19 | 00:00:00 | |
| PG1ADW-2 | 2026-09-03 03:09:41 | 46.62108 | 15.98381 | 93° | 42km/h | 17531m | 5.8m/s | -55.5°C | 4.5% | 0hPa | 2.6V | 00:00:00 | 01:23:12 | 00:00:00 | |
| PETON7-10 | 2026-09-03 03:09:33 | 46.62119 | 15.98250 | 97° | 38km/h | 17482m | 6.3m/s | -55.4°C | 4.4% | 0hPa | 2.6V | 00:00:00 | 00:00:00 | 00:00:00 | |
| OE5DRO-10 | 2026-09-03 03:09:30 | 46.62125 | 15.98206 | 103° | 35km/h | 17464m | 4.7m/s | -55.2°C | 4.4% | 0hPa | 2.7V | 00:00:00 | 00:00:00 | 00:00:00 | |
| OE8JPQ-2 | 2026-09-03 03:09:28 | 46.62127 | 15.98178 | 91° | 33km/h | 17453m | 5.2m/s | -55.2°C | 4.4% | 0hPa | 2.7V | 00:00:00 | 01:22:59 | 00:00:00 | |
| PG1ADW-2 | 2026-09-03 03:09:21 | 46.62126 | 15.98077 | 90° | 29km/h | 17410m | 5.9m/s | -54.9°C | 4.4% | 0hPa | 2.7V | 00:00:00 | 00:00:00 | 00:00:00 | |
| PETON7-10 | 2026-09-03 03:09:18 | 46.62127 | 15.98046 | 98° | 29km/h | 17393m | 6.1m/s | -54.8°C | 4.3% | 0hPa | 2.6V | 00:00:00 | 00:00:00 | 00:00:00 | |
| OE5DRO-10 | 2026-09-03 03:09:11 | 46.62126 | 15.97968 | 81° | 26km/h | 17355m | 6.1m/s | -54.4°C | 4.3% | 0hPa | 2.6V | 00:00:00 | 00:00:00 | 08:30:00 | |
| OE8JPQ-2 | 2026-09-03 03:09:08 | 46.62123 | 15.97935 | 88° | 24km/h | 17336m | 5.0m/s | -54.3°C | 4.2% | 0hPa | 2.7V | 00:00:00 | 00:00:00 | 08:30:00 | |
| PETON7-10 | 2026-09-03 03:09:03 | 46.62123 | 15.97890 | 90° | 24km/h | 17309m | 6.1m/s | -54.1°C | 4.2% | 0hPa | 2.6V | 00:00:00 | 01:22:34 | 00:00:00 | |
| PG1ADW-2 | 2026-09-03 03:09:01 | 46.62123 | 15.97870 | 91° | 24km/h | 17298m | 5.6m/s | -54.0°C | 4.1% | 0hPa | 2.6V | 00:00:00 | 00:00:00 | 00:00:00 | |
| OE5DXL-15 | 2026-09-03 03:08:58 | 46.62121 | 15.97841 | 79° | 24km/h | 17282m | 5.2m/s | -53.8°C | 4.1% | 0hPa | 2.6V | 00:00:00 | 00:00:00 | 00:00:00 | |
| OE5DRO-10 | 2026-09-03 03:08:52 | 46.62116 | 15.97794 | 81° | 22km/h | 17250m | 5.6m/s | -53.6°C | 4.0% | 0hPa | 2.7V | 00:00:00 | 00:00:00 | 00:00:00 | |
| OE8JPQ-2 | 2026-09-03 03:08:48 | 46.62112 | 15.97761 | 81° | 24km/h | 17229m | 6.4m/s | -53.4°C | 4.0% | 0hPa | 2.7V | 00:00:00 | 00:00:00 | 00:00:00 | |
| PETON7-10 | 2026-09-03 03:08:47 | 46.62111 | 15.97752 | 80° | 22km/h | 17222m | 5.0m/s | -53.4°C | 4.0% | 0hPa | 2.7V | 00:00:00 | 00:00:00 | 08:30:00 | |
| PG1ADW-2 | 2026-09-03 03:08:41 | 46.62101 | 15.97701 | 63° | 26km/h | 17190m | 5.3m/s | -53.4°C | 4.0% | 0hPa | 2.6V | 00:00:00 | 00:00:00 | 00:00:00 | |
| OE5DRO-10 | 2026-09-03 03:08:33 | 46.62093 | 15.97644 | 93° | 31km/h | 17147m | 4.8m/s | -53.5°C | 4.0% | 0hPa | 2.6V | 00:00:00 | 00:00:00 | 00:00:00 | |
| PETON7-10 | 2026-09-03 03:08:32 | 46.62093 | 15.97635 | 91° | 31km/h | 17141m | 6.2m/s | -53.4°C | 4.0% | 0hPa | 2.6V | 00:00:00 | 00:00:00 | 00:00:00 | |
| OE8JPQ-2 | 2026-09-03 03:08:28 | 46.62094 | 15.97593 | 93° | 33km/h | 17119m | 6.4m/s | -53.4°C | 3.9% | 0hPa | 2.6V | 00:00:00 | 01:21:59 | 00:00:00 | |
| PG1ADW-2 | 2026-09-03 03:08:21 | 46.62099 | 15.97514 | 105° | 38km/h | 17085m | 6.2m/s | -53.3°C | 3.9% | 0hPa | 2.6V | 00:00:00 | 01:21:52 | 00:00:00 | |
| PETON7-10 | 2026-09-03 03:08:17 | 46.62105 | 15.97467 | 103° | 40km/h | 17065m | 5.2m/s | -53.3°C | 3.9% | 0hPa | 2.7V | 00:00:00 | 01:21:48 | 00:00:00 | |
| OE5DRO-10 | 2026-09-03 03:08:14 | 46.62111 | 15.97428 | 100° | 44km/h | 17050m | 3.3m/s | -53.3°C | 3.9% | 0hPa | 2.7V | 00:00:00 | 00:00:00 | 00:00:00 | |
| OE8JPQ-2 | 2026-09-03 03:08:08 | 46.62121 | 15.97351 | 103° | 47km/h | 17021m | 3.8m/s | -53.6°C | 4.1% | 0hPa | 2.7V | 00:00:00 | 00:00:00 | 00:00:00 | |
| PETON7-10 | 2026-09-03 03:08:02 | 46.62134 | 15.97254 | 98° | 49km/h | 16993m | 4.5m/s | -53.5°C | 4.1% | 0hPa | 2.7V | 00:00:00 | 00:00:00 | 00:00:00 | |
| PG1ADW-2 | 2026-09-03 03:08:01 | 46.62136 | 15.97237 | 97° | 51km/h | 16987m | 5.5m/s | -53.5°C | 4.0% | 0hPa | 2.7V | 00:00:00 | 00:00:00 | 00:00:00 | |
| OE5DXL-15 | 2026-09-03 03:07:58 | 46.62141 | 15.97183 | 100° | 51km/h | 16972m | 5.8m/s | -53.4°C | 4.0% | 0hPa | 2.7V | 00:00:00 | 00:00:00 | 00:00:00 | |
| OE5DRO-10 | 2026-09-03 03:07:55 | 46.62147 | 15.97129 | 98° | 51km/h | 16958m | 4.8m/s | -53.3°C | 4.0% | 0hPa | 2.7V | 00:00:00 | 00:00:00 | 00:00:00 | |
| OE8JPQ-2 | 2026-09-03 03:07:48 | 46.62151 | 15.97002 | 92° | 51km/h | 16924m | 4.9m/s | -53.2°C | 3.9% | 0hPa | 2.7V | 00:00:00 | 00:00:00 | 00:00:00 | |
| PETON7-10 | 2026-09-03 03:07:47 | 46.62152 | 15.96983 | 93° | 53km/h | 16919m | 4.7m/s | -53.2°C | 4.0% | 0hPa | 2.7V | 00:00:00 | 00:00:00 | 00:00:00 | |
| PG1ADW-2 | 2026-09-03 03:07:41 | 46.62159 | 15.96869 | 93° | 49km/h | 16891m | 6.1m/s | -53.5°C | 4.1% | 0hPa | 2.7V | 00:00:00 | 00:00:00 | 00:00:00 | |
| OE5DRO-10 | 2026-09-03 03:07:36 | 46.62150 | 15.96775 | 80° | 47km/h | 16866m | 4.9m/s | -53.3°C | 4.1% | 0hPa | 2.7V | 00:00:00 | 00:00:00 | 00:00:00 | |
| PETON7-10 | 2026-09-03 03:07:32 | 46.62145 | 15.96699 | 91° | 46km/h | 16848m | 4.8m/s | -53.2°C | 4.2% | 0hPa | 2.7V | 00:00:00 | 01:21:03 | 00:00:00 | |
| OE8JPQ-2 | 2026-09-03 03:07:28 | 46.62146 | 15.96629 | 93° | 46km/h | 16825m | 5.7m/s | -53.0°C | 4.0% | 0hPa | 2.7V | 00:00:00 | 01:20:59 | 00:00:00 | |
| PG1ADW-2 | 2026-09-03 03:07:21 | 46.62146 | 15.96512 | 95° | 44km/h | 16784m | 6.1m/s | -52.7°C | 3.9% | 0hPa | 2.7V | 00:00:00 | 00:00:00 | 08:30:00 | |
| PETON7-10 | 2026-09-03 03:07:17 | 46.62155 | 15.96451 | 109° | 44km/h | 16759m | 5.2m/s | -52.5°C | 3.9% | 0hPa | 2.6V | 00:00:00 | 00:00:00 | 00:00:00 | |
| OE8JPQ-2 | 2026-09-03 03:07:08 | 46.62188 | 15.96309 | 114° | 49km/h | 16702m | 4.7m/s | -52.2°C | 3.7% | 0hPa | 2.7V | 00:00:00 | 00:00:00 | 00:00:00 | |
| PETON7-10 | 2026-09-03 03:07:02 | 46.62213 | 15.96221 | 118° | 51km/h | 16666m | 6.4m/s | -52.4°C | 3.7% | 0hPa | 2.7V | 00:00:00 | 00:00:00 | 00:00:00 | |
| PG1ADW-2 | 2026-09-03 03:07:01 | 46.62219 | 15.96207 | 122° | 53km/h | 16661m | 3.5m/s | -52.7°C | 3.8% | 0hPa | 2.7V | 00:00:00 | 01:20:32 | 00:00:00 | |
| OE5DXL-15 | 2026-09-03 03:06:58 | 46.62241 | 15.96161 | 125° | 53km/h | 16644m | 5.9m/s | -53.1°C | 4.0% | 0hPa | 2.7V | 00:00:00 | 00:00:00 | 00:00:00 | |
| OE8JPQ-2 | 2026-09-03 03:06:48 | 46.62317 | 15.95998 | 119° | 53km/h | 16590m | 5.5m/s | -53.1°C | 3.9% | 0hPa | 2.7V | 00:00:00 | 00:00:00 | 00:00:00 | |
| PETON7-10 | 2026-09-03 03:06:47 | 46.62323 | 15.95982 | 120° | 53km/h | 16586m | 3.6m/s | -53.1°C | 3.9% | 0hPa | 2.7V | 00:00:00 | 01:20:18 | 00:00:00 | |
| PG1ADW-2 | 2026-09-03 03:06:41 | 46.62369 | 15.95879 | 124° | 55km/h | 16555m | 4.7m/s | -53.3°C | 4.0% | 0hPa | 2.7V | 00:00:00 | 00:00:00 | 00:00:00 | |
| OE5DRO-10 | 2026-09-03 03:06:39 | 46.62384 | 15.95845 | 127° | 55km/h | 16545m | 5.7m/s | -53.3°C | 4.0% | 0hPa | 2.7V | 00:00:00 | 00:00:00 | 00:00:00 | |
| PETON7-10 | 2026-09-03 03:06:32 | 46.62439 | 15.95741 | 127° | 58km/h | 16508m | 4.3m/s | -53.4°C | 4.0% | 0hPa | 2.7V | 00:00:00 | 00:00:00 | 08:30:00 | |
| OE8JPQ-2 | 2026-09-03 03:06:28 | 46.62474 | 15.95680 | 131° | 66km/h | 16487m | 6.3m/s | -53.5°C | 3.9% | 0hPa | 2.7V | 00:00:00 | 01:19:59 | 00:00:00 | |
| PG1ADW-2 | 2026-09-03 03:06:21 | 46.62538 | 15.95564 | 127° | 69km/h | 16449m | 3.2m/s | -53.9°C | 4.0% | 0hPa | 2.7V | 00:00:00 | 00:00:00 | 00:00:00 | |
| OE5DRO-10 | 2026-09-03 03:06:20 | 46.62547 | 15.95545 | 123° | 71km/h | 16445m | 5.6m/s | -53.9°C | 4.0% | 0hPa | 2.6V | 00:00:00 | 00:00:00 | 08:30:00 | |
| PETON7-10 | 2026-09-03 03:06:17 | 46.62573 | 15.95487 | 125° | 71km/h | 16428m | 3.6m/s | -54.0°C | 4.1% | 0hPa | 2.7V | 00:00:00 | 00:00:00 | 00:00:00 | |
| OE8JPQ-2 | 2026-09-03 03:06:08 | 46.62669 | 15.95294 | 127° | 75km/h | 16382m | 4.5m/s | -54.0°C | 4.0% | 0hPa | 2.7V | 00:00:00 | 00:00:00 | 08:30:00 | |
| PETON7-10 | 2026-09-03 03:06:02 | 46.62731 | 15.95162 | 126° | 77km/h | 16352m | 6.1m/s | -54.7°C | 4.2% | 0hPa | 2.6V | 00:00:00 | 01:19:33 | 00:00:00 | |
| PG1ADW-2 | 2026-09-03 03:06:01 | 46.62743 | 15.95138 | 127° | 75km/h | 16346m | 4.9m/s | -54.8°C | 4.2% | 0hPa | 2.6V | 00:00:00 | 00:00:00 | 00:00:00 | |
| OE5DXL-15 | 2026-09-03 03:05:58 | 46.62778 | 15.95066 | 124° | 73km/h | 16331m | 6.3m/s | -54.9°C | 4.2% | 0hPa | 2.6V | 00:00:00 | 00:00:00 | 00:00:00 | |
| OE3JTB-15 | 2026-09-03 03:05:50 | 46.62856 | 15.94873 | 124° | 69km/h | 16291m | 4.9m/s | -55.3°C | 4.4% | 0hPa | 2.6V | 00:00:00 | 01:19:21 | 00:00:00 | |
| OE8JPQ-2 | 2026-09-03 03:05:48 | 46.62876 | 15.94829 | 124° | 71km/h | 16280m | 4.8m/s | -55.4°C | 4.5% | 0hPa | 2.6V | 00:00:00 | 00:00:00 | 00:00:00 | |
| PETON7-10 | 2026-09-03 03:05:47 | 46.62886 | 15.94806 | 126° | 69km/h | 16276m | 4.1m/s | -55.4°C | 4.4% | 0hPa | 2.6V | 00:00:00 | 00:00:00 | 00:00:00 | |
| OE5DRO-10 | 2026-09-03 03:05:42 | 46.62936 | 15.94696 | 124° | 71km/h | 16250m | 5.1m/s | -55.5°C | 4.5% | 0hPa | 2.7V | 00:00:00 | 00:00:00 | 00:00:00 | |
| PG1ADW-2 | 2026-09-03 03:05:41 | 46.62946 | 15.94675 | 122° | 71km/h | 16246m | 3.9m/s | -55.6°C | 4.5% | 0hPa | 2.7V | 00:00:00 | 01:19:12 | 00:00:00 | |
| PETON7-10 | 2026-09-03 03:05:32 | 46.63025 | 15.94481 | 119° | 69km/h | 16201m | 5.1m/s | -56.0°C | 4.7% | 0hPa | 2.7V | 00:00:00 | 00:00:00 | 00:00:00 | |
| OE8JPQ-2 | 2026-09-03 03:05:28 | 46.63062 | 15.94384 | 119° | 64km/h | 16181m | 4.7m/s | -56.1°C | 4.7% | 0hPa | 2.7V | 00:00:00 | 01:18:59 | 00:00:00 | |
| OE5DRO-10 | 2026-09-03 03:05:23 | 46.63106 | 15.94268 | 120° | 60km/h | 16157m | 5.7m/s | -56.2°C | 4.8% | 0hPa | 2.7V | 00:00:00 | 00:00:00 | 00:00:00 | |
| PG1ADW-2 | 2026-09-03 03:05:21 | 46.63123 | 15.94225 | 120° | 58km/h | 16147m | 5.6m/s | -56.3°C | 4.8% | 0hPa | 2.6V | 00:00:00 | 00:00:00 | 00:00:00 | |
| PETON7-10 | 2026-09-03 03:05:17 | 46.63151 | 15.94142 | 115° | 57km/h | 16126m | 6.5m/s | -56.2°C | 4.7% | 0hPa | 2.7V | 00:00:00 | 01:18:48 | 00:00:00 | |
| OE3JTB-15 | 2026-09-03 03:05:09 | 46.63201 | 15.93986 | 115° | 58km/h | 16085m | 3.8m/s | -56.2°C | 4.5% | 0hPa | 2.7V | 00:00:00 | 00:00:00 | 00:00:00 | |
| OE8JPQ-2 | 2026-09-03 03:05:08 | 46.63207 | 15.93967 | 115° | 55km/h | 16080m | 6.0m/s | -56.2°C | 4.6% | 0hPa | 2.6V | 00:00:00 | 00:00:00 | 00:00:00 | |
| OE5DRO-10 | 2026-09-03 03:05:04 | 46.63231 | 15.93894 | 117° | 57km/h | 16060m | 5.5m/s | -56.6°C | 4.7% | 0hPa | 2.6V | 00:00:00 | 00:00:00 | 00:00:00 | |
| PETON7-10 | 2026-09-03 03:05:02 | 46.63242 | 15.93859 | 116° | 57km/h | 16050m | 6.1m/s | -57.2°C | 4.9% | 0hPa | 2.6V | 00:00:00 | 00:00:00 | 00:00:00 | |
| PG1ADW-2 | 2026-09-03 03:05:01 | 46.63248 | 15.93842 | 118° | 58km/h | 16045m | 4.0m/s | -57.3°C | 5.0% | 0hPa | 2.7V | 00:00:00 | 00:00:00 | 00:00:00 | |
| OE5DXL-15 | 2026-09-03 03:04:58 | 46.63270 | 15.93793 | 125° | 60km/h | 16029m | 6.0m/s | -57.5°C | 5.0% | 0hPa | 2.7V | 00:00:00 | 00:00:00 | 00:00:00 | |
| OE8JPQ-2 | 2026-09-03 03:04:48 | 46.63352 | 15.93621 | 118° | 62km/h | 15979m | 4.0m/s | -58.4°C | 5.5% | 0hPa | 2.7V | 00:00:00 | 00:00:00 | 00:00:00 | |
| PETON7-10 | 2026-09-03 03:04:47 | 46.63359 | 15.93601 | 117° | 62km/h | 15974m | 6.1m/s | -58.5°C | 5.5% | 0hPa | 2.7V | 00:00:00 | 00:00:00 | 00:00:00 | |
| OE5DRO-10 | 2026-09-03 03:04:45 | 46.63373 | 15.93560 | 115° | 60km/h | 15963m | 6.3m/s | -58.5°C | 5.5% | 0hPa | 2.7V | 00:00:00 | 00:00:00 | 00:00:00 | |
| PG1ADW-2 | 2026-09-03 03:04:41 | 46.63400 | 15.93476 | 116° | 60km/h | 15942m | 6.0m/s | -58.3°C | 5.5% | 0hPa | 2.7V | 00:00:00 | 00:00:00 | 00:00:00 | |
| OE3JTB-15 | 2026-09-03 03:04:40 | 46.63407 | 15.93455 | 115° | 60km/h | 15937m | 4.4m/s | -58.3°C | 5.4% | 0hPa | 2.7V | 00:00:00 | 00:00:00 | 00:00:00 | |
| PETON7-10 | 2026-09-03 03:04:32 | 46.63454 | 15.93288 | 113° | 58km/h | 15893m | 4.6m/s | -58.2°C | 5.4% | 0hPa | 2.7V | 00:00:00 | 01:18:03 | 00:00:00 | |
| OE8JPQ-2 | 2026-09-03 03:04:28 | 46.63480 | 15.93212 | 118° | 58km/h | 15873m | 5.5m/s | -58.3°C | 5.4% | 0hPa | 2.7V | 00:00:00 | 01:17:59 | 00:00:00 | |
| OE5DRO-10 | 2026-09-03 03:04:26 | 46.63493 | 15.93173 | 117° | 58km/h | 15863m | 6.4m/s | -58.2°C | 5.4% | 0hPa | 2.7V | 00:00:00 | 00:00:00 | 00:00:00 | |
| PG1ADW-2 | 2026-09-03 03:04:21 | 46.63523 | 15.93075 | 113° | 57km/h | 15834m | 4.9m/s | -58.2°C | 5.5% | 0hPa | 2.7V | 00:00:00 | 01:17:52 | 08:30:00 | |
| PETON7-10 | 2026-09-03 03:04:17 | 46.63544 | 15.92995 | 113° | 55km/h | 15814m | 6.1m/s | -58.0°C | 5.4% | 0hPa | 2.7V | 00:00:00 | 00:00:00 | 08:30:00 | |
| OE3JTB-15 | 2026-09-03 03:04:11 | 46.63579 | 15.92874 | 112° | 51km/h | 15781m | 5.3m/s | -57.8°C | 5.4% | 0hPa | 2.6V | 00:00:00 | 01:17:42 | 00:00:00 | |
| OE8JPQ-2 | 2026-09-03 03:04:08 | 46.63597 | 15.92818 | 114° | 49km/h | 15765m | 6.3m/s | -57.7°C | 5.4% | 0hPa | 2.6V | 00:00:00 | 00:00:00 | 00:00:00 | |
| OE5DRO-10 | 2026-09-03 03:04:07 | 46.63602 | 15.92800 | 114° | 49km/h | 15758m | 5.2m/s | -57.7°C | 5.3% | 0hPa | 2.7V | 00:00:00 | 00:00:00 | 00:00:00 | |
| PETON7-10 | 2026-09-03 03:04:02 | 46.63629 | 15.92716 | 114° | 49km/h | 15731m | 4.6m/s | -57.5°C | 5.2% | 0hPa | 2.7V | 00:00:00 | 00:00:00 | 00:00:00 | |
| PG1ADW-2 | 2026-09-03 03:04:01 | 46.63634 | 15.92699 | 117° | 47km/h | 15726m | 5.9m/s | -57.4°C | 5.2% | 0hPa | 2.7V | 00:00:00 | 00:00:00 | 00:00:00 | |
| OE5DXL-15 | 2026-09-03 03:03:58 | 46.63651 | 15.92649 | 116° | 46km/h | 15708m | 4.0m/s | -57.3°C | 5.2% | 0hPa | 2.7V | 00:00:00 | 00:00:00 | 00:00:00 | |
| OE8JPQ-2 | 2026-09-03 03:03:48 | 46.63708 | 15.92495 | 120° | 46km/h | 15653m | 6.4m/s | -56.8°C | 5.1% | 0hPa | 2.7V | 00:00:00 | 00:00:00 | 00:00:00 | |
| PETON7-10 | 2026-09-03 03:03:47 | 46.63714 | 15.92481 | 120° | 46km/h | 15647m | 4.7m/s | -56.8°C | 5.0% | 0hPa | 2.7V | 00:00:00 | 01:17:18 | 00:00:00 | |
| OE3JTB-15 | 2026-09-03 03:03:41 | 46.63750 | 15.92390 | 121° | 49km/h | 15612m | 4.8m/s | -56.5°C | 5.0% | 0hPa | 2.7V | 00:00:00 | 00:00:00 | 00:00:00 | |
| PETON7-10 | 2026-09-03 03:03:32 | 46.63804 | 15.92266 | 125° | 44km/h | 15562m | 4.7m/s | -56.2°C | 4.9% | 0hPa | 2.7V | 00:00:00 | 00:00:00 | 00:00:00 | |
| OE5DRO-10 | 2026-09-03 03:03:29 | 46.63822 | 15.92226 | 123° | 42km/h | 15545m | 6.0m/s | -56.2°C | 4.9% | 0hPa | 2.6V | 00:00:00 | 00:00:00 | 08:30:00 | |
| OE8JPQ-2 | 2026-09-03 03:03:28 | 46.63828 | 15.92213 | 125° | 42km/h | 15539m | 5.3m/s | -56.2°C | 4.9% | 0hPa | 2.7V | 00:00:00 | 01:16:59 | 00:00:00 | |
| PG1ADW-2 | 2026-09-03 03:03:21 | 46.63875 | 15.92126 | 125° | 42km/h | 15498m | 4.1m/s | -56.3°C | 5.0% | 0hPa | 2.7V | 00:00:00 | 00:00:00 | 00:00:00 | |
| PETON7-10 | 2026-09-03 03:03:17 | 46.63900 | 15.92076 | 125° | 42km/h | 15477m | 6.2m/s | -56.1°C | 4.9% | 0hPa | 2.6V | 00:00:00 | 00:00:00 | 00:00:00 | |
| OE5DRO-10 | 2026-09-03 03:03:10 | 46.63947 | 15.91990 | 130° | 40km/h | 15438m | 4.8m/s | -55.8°C | 4.8% | 0hPa | 2.6V | 00:00:00 | 00:00:00 | 00:00:00 | |
| OE8JPQ-2 | 2026-09-03 03:03:08 | 46.63959 | 15.91966 | 125° | 42km/h | 15427m | 5.2m/s | -55.7°C | 4.8% | 0hPa | 2.6V | 00:00:00 | 00:00:00 | 08:30:00 | |
| PETON7-10 | 2026-09-03 03:03:02 | 46.63999 | 15.91901 | 136° | 44km/h | 15396m | 3.6m/s | -55.5°C | 4.7% | 0hPa | 2.7V | 00:00:00 | 01:16:33 | 00:00:00 | |
| PG1ADW-2 | 2026-09-03 03:03:01 | 46.64008 | 15.91889 | 138° | 47km/h | 15391m | 7.2m/s | -55.4°C | 4.7% | 0hPa | 2.7V | 00:00:00 | 01:16:32 | 00:00:00 | |
| OE5DXL-15 | 2026-09-03 03:02:58 | 46.64031 | 15.91856 | 134° | 53km/h | 15372m | 5.0m/s | -55.4°C | 4.7% | 0hPa | 2.7V | 00:00:00 | 00:00:00 | 08:30:00 | |
| OE5DRO-10 | 2026-09-03 03:02:51 | 46.64077 | 15.91778 | 131° | 58km/h | 15329m | 7.3m/s | -55.8°C | 5.0% | 0hPa | 2.7V | 00:00:00 | 00:00:00 | 00:00:00 | |
| OE8JPQ-2 | 2026-09-03 03:02:48 | 46.64103 | 15.91736 | 134° | 60km/h | 15310m | 6.8m/s | -55.8°C | 4.9% | 0hPa | 2.7V | 00:00:00 | 00:00:00 | 00:00:00 | |
| PETON7-10 | 2026-09-03 03:02:47 | 46.64114 | 15.91720 | 138° | 60km/h | 15304m | 7.2m/s | -55.8°C | 4.9% | 0hPa | 2.7V | 00:00:00 | 00:00:00 | 00:00:00 | |
| PG1ADW-2 | 2026-09-03 03:02:41 | 46.64182 | 15.91646 | 133° | 62km/h | 15253m | 6.2m/s | -55.4°C | 4.8% | 0hPa | 2.7V | 00:00:00 | 00:00:00 | 00:00:00 | |
| OE3JTB-15 | 2026-09-03 03:02:40 | 46.64192 | 15.91630 | 130° | 69km/h | 15246m | 6.9m/s | -55.4°C | 4.8% | 0hPa | 2.7V | 00:00:00 | 00:00:00 | 00:00:00 | |
| OE5DRO-10 | 2026-09-03 03:02:32 | 46.64282 | 15.91506 | 136° | 68km/h | 15185m | 8.2m/s | -55.2°C | 4.7% | 0hPa | 2.7V | 00:00:00 | 00:00:00 | 00:00:00 | |
| OE5DXL-15 | 2026-09-03 03:02:28 | 46.64329 | 15.91449 | 141° | 73km/h | 15156m | 7.0m/s | -55.1°C | 4.8% | 0hPa | 2.7V | 00:00:00 | 00:00:00 | 00:00:00 | |
| PG1ADW-2 | 2026-09-03 03:02:21 | 46.64421 | 15.91338 | 140° | 73km/h | 15114m | 7.2m/s | -55.3°C | 4.8% | 0hPa | 2.7V | 00:00:00 | 00:00:00 | 00:00:00 | |
| PETON7-10 | 2026-09-03 03:02:17 | 46.64473 | 15.91273 | 140° | 75km/h | 15090m | 7.2m/s | -55.2°C | 4.7% | 0hPa | 2.7V | 00:00:00 | 01:15:48 | 00:00:00 | |
| OE5DRO-10 | 2026-09-03 03:02:13 | 46.64528 | 15.91199 | 134° | 77km/h | 15065m | 5.2m/s | -55.0°C | 4.7% | 0hPa | 2.7V | 00:00:00 | 00:00:00 | 00:00:00 | |
| OE3JTB-15 | 2026-09-03 03:02:11 | 46.64555 | 15.91157 | 132° | 77km/h | 15052m | 5.3m/s | -54.9°C | 4.7% | 0hPa | 2.7V | 00:00:00 | 01:15:42 | 00:00:00 | |
| OE8JPQ-2 | 2026-09-03 03:02:08 | 46.64593 | 15.91093 | 132° | 75km/h | 15036m | 6.2m/s | -54.9°C | 4.7% | 0hPa | 2.7V | 00:00:00 | 00:00:00 | 00:00:00 | |
| PETON7-10 | 2026-09-03 03:02:02 | 46.64670 | 15.90973 | 133° | 77km/h | 15001m | 4.9m/s | -54.9°C | 4.8% | 0hPa | 2.7V | 00:00:00 | 00:00:00 | 08:30:00 | |
| PG1ADW-2 | 2026-09-03 03:02:01 | 46.64682 | 15.90953 | 132° | 77km/h | 14996m | 5.8m/s | -54.9°C | 4.8% | 0hPa | 2.7V | 00:00:00 | 00:00:00 | 00:00:00 | |
| OE5DXL-15 | 2026-09-03 03:01:58 | 46.64719 | 15.90888 | 128° | 75km/h | 14979m | 5.0m/s | -54.8°C | 4.7% | 0hPa | 2.7V | 00:00:00 | 00:00:00 | 00:00:00 | |
| OE5DRO-10 | 2026-09-03 03:01:54 | 46.64766 | 15.90798 | 127° | 75km/h | 14957m | 4.4m/s | -54.8°C | 4.7% | 0hPa | 2.7V | 00:00:00 | 00:00:00 | 00:00:00 | |
| OE8JPQ-2 | 2026-09-03 03:01:48 | 46.64834 | 15.90662 | 125° | 73km/h | 14925m | 4.6m/s | -55.1°C | 4.9% | 0hPa | 2.7V | 00:00:00 | 00:00:00 | 00:00:00 | |
| PETON7-10 | 2026-09-03 03:01:47 | 46.64845 | 15.90639 | 125° | 73km/h | 14919m | 6.7m/s | -55.1°C | 4.8% | 0hPa | 2.7V | 00:00:00 | 00:00:00 | 00:00:00 | |
| OE3JTB-15 | 2026-09-03 03:01:41 | 46.64908 | 15.90502 | 123° | 71km/h | 14886m | 6.4m/s | -54.9°C | 4.8% | 0hPa | 2.7V | 00:00:00 | 00:00:00 | 08:30:00 | |
| OE5DRO-10 | 2026-09-03 03:01:35 | 46.64965 | 15.90367 | 122° | 71km/h | 14852m | 6.4m/s | -54.7°C | 4.8% | 0hPa | 2.7V | 00:00:00 | 00:00:00 | 00:00:00 | |
| PETON7-10 | 2026-09-03 03:01:32 | 46.64993 | 15.90300 | 121° | 71km/h | 14836m | 4.5m/s | -54.7°C | 4.8% | 0hPa | 2.7V | 00:00:00 | 01:15:03 | 00:00:00 | |
| OE8JPQ-2 | 2026-09-03 03:01:28 | 46.65029 | 15.90209 | 119° | 71km/h | 14816m | 6.2m/s | -54.7°C | 4.8% | 0hPa | 2.7V | 00:00:00 | 01:14:59 | 00:00:00 | |
| PG1ADW-2 | 2026-09-03 03:01:21 | 46.65087 | 15.90052 | 120° | 75km/h | 14780m | 5.4m/s | -54.7°C | 4.9% | 0hPa | 2.7V | 00:00:00 | 00:00:00 | 08:30:00 | |
| PETON7-10 | 2026-09-03 03:01:17 | 46.65120 | 15.89956 | 116° | 75km/h | 14760m | 5.9m/s | -54.7°C | 4.9% | 0hPa | 2.7V | 00:00:00 | 00:00:00 | 00:00:00 | |
| OE5DRO-10 | 2026-09-03 03:01:16 | 46.65128 | 15.89930 | 116° | 75km/h | 14754m | 3.9m/s | -54.7°C | 4.9% | 0hPa | 2.6V | 00:00:00 | 00:00:00 | 00:00:00 | |
| OE3JTB-15 | 2026-09-03 03:01:10 | 46.65175 | 15.89786 | 115° | 75km/h | 14723m | 6.0m/s | -54.9°C | 4.9% | 0hPa | 2.6V | 00:00:00 | 00:00:00 | 00:00:00 | |
| OE8JPQ-2 | 2026-09-03 03:01:08 | 46.65190 | 15.89738 | 114° | 77km/h | 14712m | 6.4m/s | -55.0°C | 4.9% | 0hPa | 2.6V | 00:00:00 | 00:00:00 | 00:00:00 | |
| PETON7-10 | 2026-09-03 03:01:02 | 46.65232 | 15.89578 | 111° | 75km/h | 14682m | 5.8m/s | -55.0°C | 4.9% | 0hPa | 2.7V | 00:00:00 | 00:00:00 | 00:00:00 | |
| PG1ADW-2 | 2026-09-03 03:01:01 | 46.65239 | 15.89551 | 112° | 73km/h | 14676m | 4.2m/s | -54.9°C | 4.9% | 0hPa | 2.7V | 00:00:00 | 00:00:00 | 00:00:00 | |
| OE5DXL-15 | 2026-09-03 03:00:58 | 46.65263 | 15.89472 | 114° | 73km/h | 14661m | 5.9m/s | -54.9°C | 4.9% | 0hPa | 2.7V | 00:00:00 | 00:00:00 | 00:00:00 | |
| OE5DRO-10 | 2026-09-03 03:00:57 | 46.65270 | 15.89447 | 114° | 71km/h | 14656m | 3.8m/s | -54.9°C | 4.9% | 0hPa | 2.7V | 00:00:00 | 00:00:00 | 00:00:00 | |
| OE8JPQ-2 | 2026-09-03 03:00:48 | 46.65336 | 15.89223 | 112° | 73km/h | 14611m | 5.0m/s | -55.4°C | 5.2% | 0hPa | 2.7V | 00:00:00 | 00:00:00 | 00:00:00 | |
| PETON7-10 | 2026-09-03 03:00:47 | 46.65342 | 15.89200 | 112° | 71km/h | 14606m | 4.3m/s | -55.4°C | 5.2% | 0hPa | 2.7V | 00:00:00 | 01:14:18 | 00:00:00 | |
| PG1ADW-2 | 2026-09-03 03:00:41 | 46.65387 | 15.89059 | 119° | 75km/h | 14577m | 3.2m/s | -56.3°C | 5.8% | 0hPa | 2.7V | 00:00:00 | 00:00:00 | 00:00:00 | |
| OE5DRO-10 | 2026-09-03 03:00:38 | 46.65412 | 15.88992 | 117° | 75km/h | 14564m | 4.9m/s | -56.3°C | 5.7% | 0hPa | 2.7V | 00:00:00 | 00:00:00 | 08:30:00 | |
| PETON7-10 | 2026-09-03 03:00:32 | 46.65461 | 15.88847 | 118° | 75km/h | 14533m | 3.2m/s | -56.1°C | 5.7% | 0hPa | 2.7V | 00:00:00 | 00:00:00 | 00:00:00 | |
| OE5DXL-15 | 2026-09-03 03:00:28 | 46.65500 | 15.88746 | 121° | 77km/h | 14514m | 5.4m/s | -56.1°C | 5.8% | 0hPa | 2.7V | 00:00:00 | 00:00:00 | 00:00:00 | |
| PG1ADW-2 | 2026-09-03 03:00:21 | 46.65569 | 15.88582 | 122° | 77km/h | 14480m | 5.8m/s | -56.0°C | 5.6% | 0hPa | 2.7V | 00:00:00 | 01:13:52 | 00:00:00 | |
| OE5DRO-10 | 2026-09-03 03:00:19 | 46.65589 | 15.88538 | 123° | 77km/h | 14469m | 5.3m/s | -56.1°C | 5.6% | 0hPa | 2.7V | 00:00:00 | 00:00:00 | 00:00:00 | |
| PETON7-10 | 2026-09-03 03:00:17 | 46.65609 | 15.88493 | 125° | 77km/h | 14460m | 4.6m/s | -56.2°C | 5.8% | 0hPa | 2.7V | 00:00:00 | 00:00:00 | 00:00:00 | |
| OE8JPQ-2 | 2026-09-03 03:00:08 | 46.65708 | 15.88287 | 124° | 78km/h | 14418m | 4.0m/s | -56.1°C | 5.7% | 0hPa | 2.7V | 00:00:00 | 00:00:00 | 08:30:00 | |
| PG1ADW-2 | 2026-09-03 03:00:01 | 46.65790 | 15.88127 | 130° | 78km/h | 14386m | 4.4m/s | -56.3°C | 5.8% | 0hPa | 2.7V | 00:00:00 | 00:00:00 | 00:00:00 | |
| OE5DRO-10 | 2026-09-03 03:00:00 | 46.65803 | 15.88105 | 131° | 78km/h | 14381m | 5.9m/s | -56.3°C | 5.8% | 0hPa | 2.7V | 00:00:00 | 00:00:00 | 00:00:00 | |
| OE5DXL-15 | 2026-09-03 02:59:58 | 46.65828 | 15.88063 | 133° | 80km/h | 14371m | 6.3m/s | -56.3°C | 5.9% | 0hPa | 2.7V | 00:00:00 | 00:00:00 | 00:00:00 | |
| OE8JPQ-2 | 2026-09-03 02:59:48 | 46.65960 | 15.87846 | 132° | 82km/h | 14324m | 4.3m/s | -56.5°C | 6.0% | 0hPa | 2.7V | 00:00:00 | 00:00:00 | 00:00:00 | |
| PETON7-10 | 2026-09-03 02:59:47 | 46.65973 | 15.87825 | 131° | 82km/h | 14320m | 4.6m/s | -56.6°C | 6.0% | 0hPa | 2.7V | 00:00:00 | 00:00:00 | 08:30:00 | |
| PG1ADW-2 | 2026-09-03 02:59:41 | 46.66050 | 15.87691 | 128° | 86km/h | 14292m | 5.1m/s | -56.8°C | 6.1% | 0hPa | 2.7V | 00:00:00 | 00:00:00 | 00:00:00 | |
| PETON7-10 | 2026-09-03 02:59:32 | 46.66168 | 15.87474 | 132° | 88km/h | 14251m | 5.8m/s | -56.7°C | 6.2% | 0hPa | 2.7V | 00:00:00 | 00:00:00 | 00:00:00 | |
| OE8JPQ-2 | 2026-09-03 02:59:28 | 46.66225 | 15.87381 | 131° | 86km/h | 14232m | 5.5m/s | -56.7°C | 6.2% | 0hPa | 2.7V | 00:00:00 | 01:12:59 | 00:00:00 | |
| OE5DRO-10 | 2026-09-03 02:59:22 | 46.66309 | 15.87230 | 130° | 84km/h | 14204m | 5.3m/s | -56.7°C | 6.2% | 0hPa | 2.7V | 00:00:00 | 00:00:00 | 00:00:00 | |
| PETON7-10 | 2026-09-03 02:59:17 | 46.66377 | 15.87104 | 129° | 82km/h | 14181m | 4.8m/s | -56.6°C | 6.0% | 0hPa | 2.7V | 00:00:00 | 01:12:48 | 00:00:00 | |
| OE8JPQ-2 | 2026-09-03 02:59:08 | 46.66493 | 15.86885 | 128° | 77km/h | 14137m | 4.1m/s | -56.5°C | 6.1% | 0hPa | 2.7V | 00:00:00 | 00:00:00 | 00:00:00 | |
| OE5DRO-10 | 2026-09-03 02:59:03 | 46.66552 | 15.86766 | 125° | 75km/h | 14112m | 5.2m/s | -56.5°C | 6.1% | 0hPa | 2.7V | 00:00:00 | 00:00:00 | 00:00:00 | |
| PETON7-10 | 2026-09-03 02:59:02 | 46.66563 | 15.86742 | 125° | 75km/h | 14107m | 3.7m/s | -56.5°C | 6.2% | 0hPa | 2.7V | 00:00:00 | 00:00:00 | 00:00:00 | |
| PG1ADW-2 | 2026-09-03 02:59:01 | 46.66575 | 15.86718 | 125° | 75km/h | 14102m | 5.7m/s | -56.5°C | 6.2% | 0hPa | 2.7V | 00:00:00 | 01:12:32 | 00:00:00 | |
| OE5DXL-15 | 2026-09-03 02:58:58 | 46.66608 | 15.86645 | 122° | 75km/h | 14089m | 4.2m/s | -56.5°C | 6.3% | 0hPa | 2.7V | 00:00:00 | 00:00:00 | 00:00:00 | |
| OE8JPQ-2 | 2026-09-03 02:58:48 | 46.66712 | 15.86421 | 128° | 75km/h | 14041m | 3.6m/s | -56.3°C | 6.3% | 0hPa | 2.7V | 00:00:00 | 00:00:00 | 00:00:00 | |
| PETON7-10 | 2026-09-03 02:58:47 | 46.66723 | 15.86400 | 127° | 75km/h | 14036m | 5.2m/s | -56.3°C | 6.2% | 0hPa | 2.7V | 00:00:00 | 00:00:00 | 00:00:00 | |
| OE5DRO-10 | 2026-09-03 02:58:44 | 46.66756 | 15.86337 | 128° | 75km/h | 14022m | 4.4m/s | -56.2°C | 6.3% | 0hPa | 2.7V | 00:00:00 | 00:00:00 | 00:00:00 | |
| PG1ADW-2 | 2026-09-03 02:58:41 | 46.66790 | 15.86272 | 128° | 75km/h | 14008m | 5.1m/s | -56.2°C | 6.3% | 0hPa | 2.7V | 00:00:00 | 00:00:00 | 00:00:00 | |
| PETON7-10 | 2026-09-03 02:58:32 | 46.66901 | 15.86083 | 133° | 77km/h | 13963m | 6.2m/s | -55.9°C | 6.3% | 0hPa | 2.7V | 00:00:00 | 01:12:03 | 00:00:00 | |
| OE3JTB-15 | 2026-09-03 02:58:30 | 46.66927 | 15.86041 | 132° | 77km/h | 13952m | 6.6m/s | -55.8°C | 6.2% | 0hPa | 2.7V | 00:00:00 | 01:12:01 | 00:00:00 | |
| OE8JPQ-2 | 2026-09-03 02:58:28 | 46.66954 | 15.86000 | 134° | 80km/h | 13942m | 6.5m/s | -55.7°C | 6.2% | 0hPa | 2.7V | 00:00:00 | 01:11:59 | 00:00:00 | |
| OE5DRO-10 | 2026-09-03 02:58:25 | 46.66992 | 15.85940 | 133° | 80km/h | 13927m | 3.2m/s | -55.6°C | 6.2% | 0hPa | 2.7V | 00:00:00 | 00:00:00 | 00:00:00 | |
| PG1ADW-2 | 2026-09-03 02:58:21 | 46.67044 | 15.85857 | 133° | 84km/h | 13905m | 4.4m/s | -55.5°C | 6.2% | 0hPa | 2.7V | 00:00:00 | 00:00:00 | 08:30:00 | |
| PETON7-10 | 2026-09-03 02:58:17 | 46.67101 | 15.85770 | 134° | 84km/h | 13884m | 3.7m/s | -55.5°C | 6.3% | 0hPa | 2.7V | 00:00:00 | 00:00:00 | 00:00:00 | |
| OE8JPQ-2 | 2026-09-03 02:58:08 | 46.67230 | 15.85571 | 133° | 84km/h | 13836m | 5.9m/s | -55.5°C | 6.5% | 0hPa | 2.7V | 00:00:00 | 00:00:00 | 00:00:00 | |
| OE5DRO-10 | 2026-09-03 02:58:06 | 46.67259 | 15.85527 | 134° | 86km/h | 13827m | 4.3m/s | -55.5°C | 6.5% | 0hPa | 2.7V | 00:00:00 | 00:00:00 | 00:00:00 | |
| PETON7-10 | 2026-09-03 02:58:02 | 46.67318 | 15.85435 | 133° | 86km/h | 13807m | 4.4m/s | -55.4°C | 6.5% | 0hPa | 2.7V | 00:00:00 | 00:00:00 | 00:00:00 | |
| PG1ADW-2 | 2026-09-03 02:58:01 | 46.67333 | 15.85412 | 133° | 84km/h | 13802m | 5.9m/s | -55.4°C | 6.5% | 0hPa | 2.7V | 00:00:00 | 00:00:00 | 00:00:00 | |
| OE3JTB-15 | 2026-09-03 02:58:00 | 46.67347 | 15.85390 | 134° | 84km/h | 13797m | 4.3m/s | -55.4°C | 6.5% | 0hPa | 2.7V | 00:00:00 | 00:00:00 | 00:00:00 | |
| OE5DXL-15 | 2026-09-03 02:57:58 | 46.67377 | 15.85344 | 134° | 84km/h | 13787m | 5.7m/s | -55.4°C | 6.5% | 0hPa | 2.7V | 00:00:00 | 00:00:00 | 00:00:00 | |
| OE8JPQ-2 | 2026-09-03 02:57:48 | 46.67521 | 15.85114 | 134° | 84km/h | 13735m | 5.6m/s | -55.3°C | 6.6% | 0hPa | 2.7V | 00:00:00 | 00:00:00 | 00:00:00 | |
| PETON7-10 | 2026-09-03 02:57:47 | 46.67536 | 15.85091 | 134° | 82km/h | 13731m | 3.9m/s | -55.4°C | 6.6% | 0hPa | 2.7V | 00:00:00 | 01:11:18 | 00:00:00 | |
| PG1ADW-2 | 2026-09-03 02:57:41 | 46.67620 | 15.84960 | 133° | 82km/h | 13699m | 3.9m/s | -56.1°C | 7.1% | 0hPa | 2.7V | 00:00:00 | 01:11:12 | 00:00:00 | |
| PETON7-10 | 2026-09-03 02:57:32 | 46.67746 | 15.84753 | 131° | 80km/h | 13654m | 4.2m/s | -56.1°C | 7.3% | 0hPa | 2.7V | 00:00:00 | 00:00:00 | 08:30:00 | |
| OE5DRO-10 | 2026-09-03 02:57:29 | 46.67801 | 15.84660 | 131° | 82km/h | 13633m | 3.9m/s | -56.0°C | 7.3% | 0hPa | 2.7V | 00:00:00 | 00:00:00 | 00:00:00 | |
| OE8JPQ-2 | 2026-09-03 02:57:28 | 46.67801 | 15.84660 | 131° | 82km/h | 13633m | 3.9m/s | -56.0°C | 7.3% | 0hPa | 2.7V | 00:00:00 | 01:10:59 | 00:00:00 | |
| OE3JTB-15 | 2026-09-03 02:57:27 | 46.67814 | 15.84636 | 129° | 82km/h | 13628m | 6.4m/s | -56.0°C | 7.3% | 0hPa | 2.7V | 00:00:00 | 00:00:00 | 00:00:00 | |
| PG1ADW-2 | 2026-09-03 02:57:21 | 46.67895 | 15.84504 | 134° | 82km/h | 13597m | 6.0m/s | -56.0°C | 7.6% | 0hPa | 2.7V | 00:00:00 | 00:00:00 | 00:00:00 | |
| PETON7-10 | 2026-09-03 02:57:17 | 46.67950 | 15.84420 | 136° | 82km/h | 13577m | 6.0m/s | -55.8°C | 7.7% | 0hPa | 2.7V | 00:00:00 | 00:00:00 | 00:00:00 | |
| OE5DRO-10 | 2026-09-03 02:57:09 | 46.68068 | 15.84247 | 136° | 86km/h | 13534m | 5.2m/s | -55.5°C | 7.5% | 0hPa | 2.7V | 00:00:00 | 00:00:00 | 00:00:00 | |
| OE8JPQ-2 | 2026-09-03 02:57:08 | 46.68083 | 15.84227 | 137° | 86km/h | 13529m | 5.1m/s | -55.5°C | 7.5% | 0hPa | 2.7V | 00:00:00 | 00:00:00 | 08:30:00 | |
| PETON7-10 | 2026-09-03 02:57:02 | 46.68172 | 15.84099 | 138° | 88km/h | 13496m | 4.6m/s | -55.2°C | 7.5% | 0hPa | 2.7V | 00:00:00 | 01:10:33 | 00:00:00 | |
| PG1ADW-2 | 2026-09-03 02:57:01 | 46.68188 | 15.84078 | 139° | 88km/h | 13490m | 6.2m/s | -55.2°C | 7.4% | 0hPa | 2.7V | 00:00:00 | 00:00:00 | 00:00:00 | |
| OE3JTB-15 | 2026-09-03 02:56:58 | 46.68240 | 15.84014 | 140° | 89km/h | 13473m | 4.2m/s | -55.0°C | 7.6% | 0hPa | 2.7V | 00:00:00 | 01:10:29 | 00:00:00 | |
| OE5DRO-10 | 2026-09-03 02:56:50 | 46.68373 | 15.83847 | 138° | 89km/h | 13430m | 5.0m/s | -54.8°C | 7.5% | 0hPa | 2.7V | 00:00:00 | 00:00:00 | 00:00:00 | |
| OE8JPQ-2 | 2026-09-03 02:56:48 | 46.68405 | 15.83806 | 140° | 91km/h | 13419m | 5.1m/s | -54.7°C | 7.6% | 0hPa | 2.7V | 00:00:00 | 00:00:00 | 00:00:00 | |
| PETON7-10 | 2026-09-03 02:56:46 | 46.68439 | 15.83766 | 142° | 91km/h | 13409m | 5.6m/s | -54.6°C | 7.5% | 0hPa | 2.7V | 00:00:00 | 00:00:00 | 00:00:00 | |
| PG1ADW-2 | 2026-09-03 02:56:41 | 46.68532 | 15.83663 | 141° | 95km/h | 13377m | 6.1m/s | -54.3°C | 7.3% | 0hPa | 2.7V | 00:00:00 | 00:00:00 | 00:00:00 | |
| PETON7-10 | 2026-09-03 02:56:31 | 46.68715 | 15.83463 | 143° | 100km/h | 13316m | 8.3m/s | -54.5°C | 7.7% | 0hPa | 2.7V | 00:00:00 | 00:00:00 | 00:00:00 | |
| OE3JTB-15 | 2026-09-03 02:56:29 | 46.68753 | 15.83419 | 142° | 104km/h | 13303m | 7.2m/s | -54.5°C | 7.9% | 0hPa | 2.7V | 00:00:00 | 00:00:00 | 00:00:00 | |
| OE8JPQ-2 | 2026-09-03 02:56:28 | 46.68773 | 15.83397 | 141° | 102km/h | 13297m | 5.2m/s | -54.5°C | 8.0% | 0hPa | 2.7V | 00:00:00 | 01:09:59 | 00:00:00 | |
| PG1ADW-2 | 2026-09-03 02:56:21 | 46.68909 | 15.83233 | 139° | 106km/h | 13259m | 4.9m/s | -54.4°C | 8.3% | 0hPa | 2.7V | 00:00:00 | 01:09:52 | 00:00:00 | |
| PETON7-10 | 2026-09-03 02:56:16 | 46.69007 | 15.83112 | 141° | 108km/h | 13231m | 7.8m/s | -54.3°C | 8.2% | 0hPa | 2.7V | 00:00:00 | 01:09:47 | 00:00:00 | |
| OE5DRO-10 | 2026-09-03 02:56:12 | 46.69088 | 15.83008 | 138° | 110km/h | 13207m | 6.2m/s | -54.5°C | 8.5% | 0hPa | 2.7V | 00:00:00 | 00:00:00 | 00:00:00 | |
| OE8JPQ-2 | 2026-09-03 02:56:08 | 46.69167 | 15.82904 | 137° | 110km/h | 13185m | 4.1m/s | -54.6°C | 8.7% | 0hPa | 2.7V | 00:00:00 | 00:00:00 | 00:00:00 | |
| PETON7-10 | 2026-09-03 02:56:01 | 46.69306 | 15.82700 | 133° | 110km/h | 13149m | 4.9m/s | -54.6°C | 8.5% | 0hPa | 2.7V | 00:00:00 | 00:00:00 | 00:00:00 | |
| OE3JTB-15 | 2026-09-03 02:56:00 | 46.69325 | 15.82670 | 134° | 108km/h | 13145m | 4.0m/s | -54.6°C | 8.4% | 0hPa | 2.7V | 00:00:00 | 00:00:00 | 00:00:00 | |
| OE5DXL-15 | 2026-09-03 02:55:58 | 46.69365 | 15.82613 | 136° | 106km/h | 13135m | 4.0m/s | -54.5°C | 8.2% | 0hPa | 2.7V | 00:00:00 | 00:00:00 | 00:00:00 | |
| OE5DRO-10 | 2026-09-03 02:55:53 | 46.69464 | 15.82470 | 135° | 106km/h | 13108m | 6.1m/s | -54.3°C | 7.9% | 0hPa | 2.7V | 00:00:00 | 00:00:00 | 00:00:00 | |
| OE8JPQ-2 | 2026-09-03 02:55:48 | 46.69561 | 15.82330 | 137° | 104km/h | 13082m | 5.2m/s | -54.2°C | 7.8% | 0hPa | 2.7V | 00:00:00 | 00:00:00 | 00:00:00 | |
| PETON7-10 | 2026-09-03 02:55:46 | 46.69601 | 15.82275 | 137° | 104km/h | 13073m | 4.8m/s | -54.2°C | 7.8% | 0hPa | 2.7V | 00:00:00 | 00:00:00 | 00:00:00 | |
| PG1ADW-2 | 2026-09-03 02:55:41 | 46.69697 | 15.82142 | 136° | 104km/h | 13048m | 6.0m/s | -54.0°C | 7.8% | 0hPa | 2.7V | 00:00:00 | 00:00:00 | 00:00:00 | |
| OE5DRO-10 | 2026-09-03 02:55:34 | 46.69828 | 15.81951 | 134° | 102km/h | 13013m | 5.3m/s | -53.9°C | 7.9% | 0hPa | 2.7V | 00:00:00 | 00:00:00 | 00:00:00 | |
| PETON7-10 | 2026-09-03 02:55:31 | 46.69883 | 15.81868 | 135° | 102km/h | 12997m | 4.2m/s | -53.8°C | 8.0% | 0hPa | 2.7V | 00:00:00 | 01:09:02 | 00:00:00 | |
| OE8JPQ-2 | 2026-09-03 02:55:28 | 46.69937 | 15.81786 | 135° | 100km/h | 12981m | 5.9m/s | -53.7°C | 8.0% | 0hPa | 2.7V | 00:00:00 | 01:08:59 | 00:00:00 | |
| PG1ADW-2 | 2026-09-03 02:55:21 | 46.70064 | 15.81592 | 133° | 99km/h | 12946m | 5.6m/s | -53.5°C | 8.3% | 0hPa | 2.7V | 00:00:00 | 00:00:00 | 08:30:00 | |
| PETON7-10 | 2026-09-03 02:55:16 | 46.70150 | 15.81460 | 137° | 99km/h | 12920m | 4.7m/s | -53.3°C | 8.6% | 0hPa | 2.7V | 00:00:00 | 00:00:00 | 08:30:00 | |
| OE5DRO-10 | 2026-09-03 02:55:15 | 46.70168 | 15.81436 | 137° | 100km/h | 12915m | 5.0m/s | -53.3°C | 8.7% | 0hPa | 2.7V | 00:00:00 | 00:00:00 | 00:00:00 | |
| OE8JPQ-2 | 2026-09-03 02:55:08 | 46.70289 | 15.81260 | 136° | 104km/h | 12881m | 5.6m/s | -53.2°C | 9.1% | 0hPa | 2.7V | 00:00:00 | 00:00:00 | 00:00:00 | |
| OE3JTB-15 | 2026-09-03 02:55:02 | 46.70401 | 15.81108 | 137° | 104km/h | 12853m | 3.1m/s | -53.3°C | 9.2% | 0hPa | 2.7V | 00:00:00 | 00:00:00 | 08:30:00 | |
| PETON7-10 | 2026-09-03 02:55:01 | 46.70421 | 15.81082 | 136° | 104km/h | 12849m | 5.5m/s | -53.3°C | 9.2% | 0hPa | 2.7V | 00:00:00 | 00:00:00 | 00:00:00 | |
| OE5DXL-15 | 2026-09-03 02:54:58 | 46.70479 | 15.80999 | 136° | 104km/h | 12832m | 5.3m/s | -53.2°C | 9.0% | 0hPa | 2.7V | 00:00:00 | 00:00:00 | 00:00:00 | |
| OE5DRO-10 | 2026-09-03 02:54:56 | 46.70518 | 15.80944 | 137° | 102km/h | 12822m | 5.3m/s | -53.1°C | 8.9% | 0hPa | 2.7V | 00:00:00 | 00:00:00 | 08:30:00 | |
| OE8JPQ-2 | 2026-09-03 02:54:48 | 46.70668 | 15.80732 | 135° | 104km/h | 12781m | 4.3m/s | -53.0°C | 9.1% | 0hPa | 2.7V | 00:00:00 | 00:00:00 | 00:00:00 | |
| PETON7-10 | 2026-09-03 02:54:46 | 46.70705 | 15.80678 | 136° | 104km/h | 12771m | 4.8m/s | -53.0°C | 8.8% | 0hPa | 2.7V | 00:00:00 | 01:08:17 | 00:00:00 | |
| PG1ADW-2 | 2026-09-03 02:54:41 | 46.70799 | 15.80548 | 137° | 106km/h | 12746m | 4.6m/s | -53.3°C | 9.1% | 0hPa | 2.7V | 00:00:00 | 00:00:00 | 00:00:00 | |
| OE5DRO-10 | 2026-09-03 02:54:37 | 46.70873 | 15.80444 | 136° | 108km/h | 12727m | 5.7m/s | -53.6°C | 9.8% | 0hPa | 2.7V | 00:00:00 | 00:00:00 | 00:00:00 | |
| OE3JTB-15 | 2026-09-03 02:54:33 | 46.70947 | 15.80334 | 135° | 111km/h | 12707m | 6.6m/s | -53.9°C | 10.9% | 0hPa | 2.7V | 00:00:00 | 00:00:00 | 00:00:00 | |
| PETON7-10 | 2026-09-03 02:54:31 | 46.70986 | 15.80278 | 135° | 110km/h | 12696m | 5.6m/s | -54.4°C | 11.9% | 0hPa | 2.7V | 00:00:00 | 00:00:00 | 00:00:00 | |
| OE8JPQ-2 | 2026-09-03 02:54:28 | 46.71043 | 15.80195 | 137° | 111km/h | 12682m | 4.2m/s | -55.5°C | 13.9% | 0hPa | 2.7V | 00:00:00 | 01:07:59 | 00:00:00 | |
| PG1ADW-2 | 2026-09-03 02:54:21 | 46.71180 | 15.80002 | 135° | 113km/h | 12649m | 6.0m/s | -55.9°C | 15.5% | 0hPa | 2.7V | 00:00:00 | 00:00:00 | 00:00:00 | |
| OE5DRO-10 | 2026-09-03 02:54:18 | 46.71240 | 15.79913 | 134° | 113km/h | 12635m | 4.3m/s | -56.0°C | 16.0% | 0hPa | 2.7V | 00:00:00 | 00:00:00 | 00:00:00 | |
| PETON7-10 | 2026-09-03 02:54:15 | 46.71300 | 15.79822 | 136° | 113km/h | 12621m | 5.1m/s | -56.0°C | 16.3% | 0hPa | 2.7V | 00:00:00 | 00:00:00 | 00:00:00 | |
| OE8JPQ-2 | 2026-09-03 02:54:08 | 46.71447 | 15.79621 | 138° | 111km/h | 12587m | 6.3m/s | -55.8°C | 16.8% | 0hPa | 2.7V | 00:00:00 | 00:00:00 | 08:30:00 | |
| OE3JTB-15 | 2026-09-03 02:54:04 | 46.71531 | 15.79508 | 138° | 111km/h | 12567m | 5.6m/s | -55.8°C | 17.2% | 0hPa | 2.7V | 00:00:00 | 01:07:35 | 00:00:00 | |
| PG1ADW-2 | 2026-09-03 02:54:01 | 46.71592 | 15.79424 | 138° | 111km/h | 12551m | 4.2m/s | -55.7°C | 17.7% | 0hPa | 2.7V | 00:00:00 | 00:00:00 | 00:00:00 | |
| PETON7-10 | 2026-09-03 02:54:00 | 46.71613 | 15.79397 | 139° | 111km/h | 12547m | 5.0m/s | -55.7°C | 18.0% | 0hPa | 2.7V | 00:00:00 | 01:07:31 | 00:00:00 | |
| OE5DRO-10 | 2026-09-03 02:53:59 | 46.71634 | 15.79370 | 139° | 111km/h | 12542m | 3.8m/s | -55.8°C | 18.2% | 0hPa | 2.7V | 00:00:00 | 00:00:00 | 00:00:00 | |
| OE5DXL-15 | 2026-09-03 02:53:58 | 46.71655 | 15.79343 | 139° | 113km/h | 12537m | 5.4m/s | -55.8°C | 18.5% | 0hPa | 2.7V | 00:00:00 | 00:00:00 | 08:30:00 | |
| OE8JPQ-2 | 2026-09-03 02:53:48 | 46.71870 | 15.79085 | 142° | 113km/h | 12490m | 4.7m/s | -56.1°C | 20.1% | 0hPa | 2.7V | 00:00:00 | 00:00:00 | 00:00:00 | |
| PETON7-10 | 2026-09-03 02:53:45 | 46.71937 | 15.79009 | 144° | 115km/h | 12475m | 5.7m/s | -56.1°C | 20.1% | 0hPa | 2.7V | 00:00:00 | 00:00:00 | 00:00:00 | |
| PG1ADW-2 | 2026-09-03 02:53:41 | 46.72030 | 15.78908 | 144° | 113km/h | 12456m | 6.0m/s | -56.1°C | 20.1% | 0hPa | 2.7V | 00:00:00 | 01:07:12 | 00:00:00 | |
| OE5DRO-10 | 2026-09-03 02:53:40 | 46.72053 | 15.78884 | 143° | 113km/h | 12451m | 3.6m/s | -56.1°C | 20.2% | 0hPa | 2.7V | 00:00:00 | 00:00:00 | 00:00:00 | |
| OE3JTB-15 | 2026-09-03 02:53:35 | 46.72167 | 15.78754 | 142° | 115km/h | 12427m | 4.8m/s | -56.1°C | 20.0% | 0hPa | 2.7V | 00:00:00 | 00:00:00 | 00:00:00 | |
| PETON7-10 | 2026-09-03 02:53:30 | 46.72281 | 15.78623 | 143° | 113km/h | 12402m | 5.8m/s | -56.2°C | 20.4% | 0hPa | 2.7V | 00:00:00 | 00:00:00 | 00:00:00 | |
| OE8JPQ-2 | 2026-09-03 02:53:28 | 46.72326 | 15.78573 | 143° | 115km/h | 12393m | 5.1m/s | -56.3°C | 20.7% | 0hPa | 2.7V | 00:00:00 | 01:06:59 | 00:00:00 | |
| PG1ADW-2 | 2026-09-03 02:53:21 | 46.72484 | 15.78400 | 143° | 117km/h | 12361m | 4.1m/s | -56.6°C | 21.7% | 0hPa | 2.7V | 00:00:00 | 00:00:00 | 00:00:00 | |
| PETON7-10 | 2026-09-03 02:53:15 | 46.72624 | 15.78250 | 145° | 119km/h | 12332m | 5.5m/s | -56.6°C | 22.1% | 0hPa | 2.7V | 00:00:00 | 01:06:46 | 00:00:00 | |
| OE8JPQ-2 | 2026-09-03 02:53:08 | 46.72792 | 15.78070 | 144° | 120km/h | 12300m | 4.3m/s | -56.4°C | 22.0% | 0hPa | 2.7V | 00:00:00 | 00:00:00 | 00:00:00 | |
| OE3JTB-15 | 2026-09-03 02:53:06 | 46.72840 | 15.78019 | 145° | 122km/h | 12290m | 3.8m/s | -56.3°C | 22.1% | 0hPa | 2.7V | 00:00:00 | 00:00:00 | 00:00:00 | |
| OE5DRO-10 | 2026-09-03 02:53:02 | 46.72940 | 15.77916 | 145° | 122km/h | 12270m | 4.2m/s | -56.2°C | 22.1% | 0hPa | 2.7V | 00:00:00 | 00:00:00 | 00:00:00 | |
| PG1ADW-2 | 2026-09-03 02:53:01 | 46.72965 | 15.77890 | 144° | 122km/h | 12265m | 4.8m/s | -56.2°C | 22.1% | 0hPa | 2.7V | 00:00:00 | 00:00:00 | 00:00:00 | |
| PETON7-10 | 2026-09-03 02:53:00 | 46.72990 | 15.77863 | 144° | 120km/h | 12260m | 5.5m/s | -56.2°C | 22.2% | 0hPa | 2.7V | 00:00:00 | 00:00:00 | 08:30:00 | |
| OE5DXL-15 | 2026-09-03 02:52:58 | 46.73040 | 15.77810 | 144° | 122km/h | 12250m | 5.8m/s | -56.3°C | 22.7% | 0hPa | 2.7V | 00:00:00 | 00:00:00 | 00:00:00 | |
| OE8JPQ-2 | 2026-09-03 02:52:48 | 46.73287 | 15.77549 | 145° | 122km/h | 12201m | 4.5m/s | -56.5°C | 24.4% | 0hPa | 2.7V | 00:00:00 | 00:00:00 | 00:00:00 | |
| PETON7-10 | 2026-09-03 02:52:45 | 46.73364 | 15.77470 | 146° | 122km/h | 12187m | 5.1m/s | -56.5°C | 24.5% | 0hPa | 2.7V | 00:00:00 | 00:00:00 | 00:00:00 | |
| OE5DRO-10 | 2026-09-03 02:52:43 | 46.73417 | 15.77419 | 148° | 120km/h | 12178m | 3.1m/s | -56.5°C | 24.7% | 0hPa | 2.7V | 00:00:00 | 00:00:00 | 00:00:00 | |
| PG1ADW-2 | 2026-09-03 02:52:41 | 46.73471 | 15.77370 | 149° | 120km/h | 12169m | 4.4m/s | -56.4°C | 24.8% | 0hPa | 2.7V | 00:00:00 | 00:00:00 | 00:00:00 | |
| OE3JTB-15 | 2026-09-03 02:52:37 | 46.73576 | 15.77275 | 147° | 119km/h | 12150m | 3.5m/s | -56.5°C | 25.8% | 0hPa | 2.7V | 00:00:00 | 01:06:08 | 00:00:00 | |
| PETON7-10 | 2026-09-03 02:52:30 | 46.73753 | 15.77103 | 147° | 119km/h | 12116m | 5.6m/s | -56.4°C | 26.5% | 0hPa | 2.7V | 00:00:00 | 01:06:01 | 00:00:00 | |
| OE8JPQ-2 | 2026-09-03 02:52:28 | 46.73803 | 15.77056 | 148° | 117km/h | 12106m | 4.7m/s | -56.4°C | 26.8% | 0hPa | 2.7V | 00:00:00 | 01:05:59 | 00:00:00 | |
| OE5DRO-10 | 2026-09-03 02:52:24 | 46.73904 | 15.76962 | 147° | 117km/h | 12087m | 4.0m/s | -56.4°C | 27.3% | 0hPa | 2.7V | 00:00:00 | 00:00:00 | 00:00:00 | |
| PG1ADW-2 | 2026-09-03 02:52:21 | 46.73979 | 15.76890 | 147° | 115km/h | 12071m | 6.0m/s | -56.3°C | 27.7% | 0hPa | 2.7V | 00:00:00 | 01:05:52 | 08:30:00 | |
| PETON7-10 | 2026-09-03 02:52:15 | 46.74128 | 15.76747 | 146° | 115km/h | 12042m | 5.2m/s | -56.3°C | 28.1% | 0hPa | 2.7V | 00:00:00 | 00:00:00 | 00:00:00 | |
| OE3JTB-15 | 2026-09-03 02:52:08 | 46.74296 | 15.76578 | 146° | 110km/h | 12008m | 5.2m/s | -56.2°C | 28.7% | 0hPa | 2.7V | 00:00:00 | 00:00:00 | 00:00:00 | |
| OE5DRO-10 | 2026-09-03 02:52:05 | 46.74366 | 15.76504 | 143° | 110km/h | 11993m | 4.8m/s | -56.1°C | 29.0% | 0hPa | 2.7V | 00:00:00 | 00:00:00 | 08:30:00 | |
| PG1ADW-2 | 2026-09-03 02:52:01 | 46.74456 | 15.76399 | 141° | 110km/h | 11973m | 4.8m/s | -56.0°C | 29.6% | 0hPa | 2.7V | 00:00:00 | 00:00:00 | 00:00:00 | |
| PETON7-10 | 2026-09-03 02:52:00 | 46.74478 | 15.76372 | 141° | 110km/h | 11968m | 4.4m/s | -56.0°C | 29.7% | 0hPa | 2.7V | 00:00:00 | 00:00:00 | 00:00:00 | |
| OE5DXL-15 | 2026-09-03 02:51:58 | 46.74521 | 15.76320 | 141° | 108km/h | 11958m | 4.3m/s | -56.0°C | 30.0% | 0hPa | 2.7V | 00:00:00 | 00:00:00 | 00:00:00 | |
| OE8JPQ-2 | 2026-09-03 02:51:48 | 46.74740 | 15.76076 | 143° | 108km/h | 11908m | 4.3m/s | -56.0°C | 31.7% | 0hPa | 2.7V | 00:00:00 | 00:00:00 | 00:00:00 | |
| OE5DRO-10 | 2026-09-03 02:51:46 | 46.74782 | 15.76029 | 143° | 108km/h | 11898m | 4.8m/s | -56.0°C | 31.9% | 0hPa | 2.7V | 00:00:00 | 00:00:00 | 00:00:00 | |
| PETON7-10 | 2026-09-03 02:51:45 | 46.74804 | 15.76005 | 144° | 108km/h | 11893m | 5.4m/s | -56.0°C | 32.4% | 0hPa | 2.7V | 00:00:00 | 01:05:16 | 00:00:00 | |
| PG1ADW-2 | 2026-09-03 02:51:41 | 46.74891 | 15.75910 | 145° | 108km/h | 11875m | 5.0m/s | -56.0°C | 33.2% | 0hPa | 2.7V | 00:00:00 | 00:00:00 | 00:00:00 | |
| OE3JTB-15 | 2026-09-03 02:51:39 | 46.74936 | 15.75864 | 145° | 108km/h | 11865m | 5.3m/s | -56.0°C | 33.7% | 0hPa | 2.7V | 00:00:00 | 00:00:00 | 00:00:00 | |
| PETON7-10 | 2026-09-03 02:51:30 | 46.75138 | 15.75664 | 146° | 108km/h | 11821m | 5.2m/s | -55.7°C | 35.2% | 0hPa | 2.7V | 00:00:00 | 00:00:00 | 00:00:00 | |
| OE8JPQ-2 | 2026-09-03 02:51:28 | 46.75184 | 15.75619 | 146° | 108km/h | 11812m | 5.3m/s | -55.6°C | 35.6% | 0hPa | 2.7V | 00:00:00 | 01:04:59 | 00:00:00 | |
| OE5DRO-10 | 2026-09-03 02:51:27 | 46.75207 | 15.75597 | 147° | 110km/h | 11806m | 4.6m/s | -55.6°C | 36.0% | 0hPa | 2.7V | 00:00:00 | 00:00:00 | 00:00:00 | |
| PG1ADW-2 | 2026-09-03 02:51:21 | 46.75343 | 15.75475 | 150° | 111km/h | 11777m | 5.0m/s | -55.5°C | 37.9% | 0hPa | 2.7V | 00:00:00 | 00:00:00 | 00:00:00 | |
| PETON7-10 | 2026-09-03 02:51:15 | 46.75484 | 15.75347 | 150° | 111km/h | 11749m | 4.2m/s | -55.5°C | 40.2% | 0hPa | 2.7V | 00:00:00 | 00:00:00 | 00:00:00 | |
| OE3JTB-15 | 2026-09-03 02:51:10 | 46.75607 | 15.75249 | 153° | 113km/h | 11723m | 5.9m/s | -55.6°C | 42.3% | 0hPa | 2.7V | 00:00:00 | 01:04:41 | 00:00:00 | |
| OE8JPQ-2 | 2026-09-03 02:51:08 | 46.75657 | 15.75210 | 152° | 113km/h | 11714m | 5.6m/s | -55.6°C | 42.8% | 0hPa | 2.7V | 00:00:00 | 00:00:00 | 08:30:00 | |
| PG1ADW-2 | 2026-09-03 02:51:01 | 46.75830 | 15.75073 | 152° | 115km/h | 11678m | 3.7m/s | -55.6°C | 44.6% | 0hPa | 2.7V | 00:00:00 | 01:04:32 | 00:00:00 | |
| PETON7-10 | 2026-09-03 02:51:00 | 46.75855 | 15.75053 | 152° | 115km/h | 11674m | 5.8m/s | -55.6°C | 44.9% | 0hPa | 2.7V | 00:00:00 | 01:04:31 | 00:00:00 | |
| OE5DXL-15 | 2026-09-03 02:50:58 | 46.75906 | 15.75013 | 152° | 117km/h | 11664m | 5.0m/s | -55.5°C | 45.6% | 0hPa | 2.7V | 00:00:00 | 00:00:00 | 00:00:00 | |
| OE5DRO-10 | 2026-09-03 02:50:49 | 46.76138 | 15.74840 | 152° | 117km/h | 11620m | 5.1m/s | -55.4°C | 49.4% | 0hPa | 2.7V | 00:00:00 | 00:00:00 | 00:00:00 | |
| OE8JPQ-2 | 2026-09-03 02:50:48 | 46.76164 | 15.74819 | 151° | 117km/h | 11615m | 4.7m/s | -55.4°C | 50.0% | 0hPa | 2.7V | 00:00:00 | 00:00:00 | 00:00:00 | |
| PETON7-10 | 2026-09-03 02:50:45 | 46.76241 | 15.74756 | 152° | 117km/h | 11599m | 4.2m/s | -55.3°C | 51.1% | 0hPa | 2.7V | 00:00:00 | 00:00:00 | 08:30:00 | |
| PG1ADW-2 | 2026-09-03 02:50:41 | 46.76345 | 15.74681 | 155° | 117km/h | 11579m | 4.2m/s | -55.3°C | 52.8% | 0hPa | 2.7V | 00:00:00 | 00:00:00 | 00:00:00 | |
| OE5DRO-10 | 2026-09-03 02:50:30 | 46.76638 | 15.74476 | 155° | 119km/h | 11524m | 3.5m/s | -55.0°C | 56.2% | 0hPa | 2.7V | 00:00:00 | 00:00:00 | 00:00:00 | |
| PG1ADW-2 | 2026-09-03 02:50:21 | 46.76880 | 15.74303 | 154° | 119km/h | 11481m | 4.3m/s | -54.8°C | 57.0% | 0hPa | 2.7V | 00:00:00 | 00:00:00 | 00:00:00 | |
| OE3JTB-15 | 2026-09-03 02:50:12 | 46.77121 | 15.74127 | 153° | 117km/h | 11436m | 5.1m/s | -54.4°C | 53.2% | 0hPa | 2.7V | 00:00:00 | 00:00:00 | 00:00:00 | |
| OE5DRO-10 | 2026-09-03 02:50:11 | 46.77147 | 15.74107 | 153° | 117km/h | 11431m | 3.9m/s | -54.3°C | 53.0% | 0hPa | 2.7V | 00:00:00 | 00:00:00 | 00:00:00 | |
| OE8JPQ-2 | 2026-09-03 02:50:08 | 46.77227 | 15.74049 | 155° | 117km/h | 11416m | 5.2m/s | -54.2°C | 52.4% | 0hPa | 2.7V | 00:00:00 | 00:00:00 | 00:00:00 | |
| PG1ADW-2 | 2026-09-03 02:50:01 | 46.77416 | 15.73923 | 155° | 117km/h | 11383m | 4.3m/s | -53.9°C | 50.8% | 0hPa | 2.7V | 00:00:00 | 00:00:00 | 00:00:00 | |
| PETON7-10 | 2026-09-03 02:50:00 | 46.77442 | 15.73904 | 155° | 117km/h | 11378m | 5.5m/s | -53.8°C | 50.3% | 0hPa | 2.7V | 00:00:00 | 00:00:00 | 00:00:00 | |
| OE5DXL-15 | 2026-09-03 02:49:58 | 46.77495 | 15.73866 | 154° | 117km/h | 11367m | 5.7m/s | -53.7°C | 49.6% | 0hPa | 2.7V | 00:00:00 | 00:00:00 | 00:00:00 | |
| OE5DRO-10 | 2026-09-03 02:49:52 | 46.77653 | 15.73749 | 154° | 117km/h | 11338m | 4.2m/s | -53.5°C | 48.3% | 0hPa | 2.7V | 00:00:00 | 00:00:00 | 00:00:00 | |
| PETON7-10 | 2026-09-03 02:49:45 | 46.77840 | 15.73622 | 156° | 115km/h | 11305m | 4.6m/s | -53.1°C | 45.7% | 0hPa | 2.7V | 00:00:00 | 00:00:00 | 00:00:00 | |
| OE3JTB-15 | 2026-09-03 02:49:43 | 46.77892 | 15.73587 | 155° | 117km/h | 11295m | 4.8m/s | -53.0°C | 45.7% | 0hPa | 2.7V | 00:00:00 | 01:03:14 | 00:00:00 | |
| OE8JPQ-2 | 2026-09-03 02:49:41 | 46.77945 | 15.73550 | 155° | 115km/h | 11285m | 3.9m/s | -52.9°C | 45.3% | 0hPa | 2.7V | 00:00:00 | 00:00:00 | 00:00:00 | |
| OE5DRO-10 | 2026-09-03 02:49:33 | 46.78157 | 15.73396 | 152° | 115km/h | 11246m | 3.9m/s | -52.6°C | 43.4% | 0hPa | 2.7V | 00:00:00 | 00:00:00 | 00:00:00 | |
| PETON7-10 | 2026-09-03 02:49:30 | 46.78234 | 15.73339 | 154° | 115km/h | 11231m | 6.4m/s | -52.4°C | 42.9% | 0hPa | 2.7V | 00:00:00 | 01:03:01 | 00:00:00 | |
| OE5DXL-15 | 2026-09-03 02:49:28 | 46.78287 | 15.73303 | 156° | 117km/h | 11221m | 5.5m/s | -52.4°C | 42.5% | 0hPa | 2.7V | 00:00:00 | 00:00:00 | 08:30:00 | |
| OE8JPQ-2 | 2026-09-03 02:49:21 | 46.78469 | 15.73176 | 154° | 119km/h | 11186m | 5.4m/s | -52.1°C | 42.5% | 0hPa | 2.7V | 00:00:00 | 01:02:52 | 00:00:00 | |
| PETON7-10 | 2026-09-03 02:49:15 | 46.78631 | 15.73060 | 154° | 117km/h | 11158m | 4.6m/s | -51.9°C | 43.4% | 0hPa | 2.7V | 00:00:00 | 00:00:00 | 00:00:00 | |
| OE3JTB-15 | 2026-09-03 02:49:14 | 46.78658 | 15.73041 | 155° | 117km/h | 11152m | 5.1m/s | -51.8°C | 43.4% | 0hPa | 2.7V | 00:00:00 | 00:00:00 | 00:00:00 | |
| OE3OSB-13 | 2026-09-03 02:49:13 | 46.78685 | 15.73023 | 154° | 115km/h | 11148m | 4.0m/s | -51.9°C | 38.1% | -1.0hPa | 2.7V | 00:00:00 | 00:00:00 | 00:00:00 | |
| PG1ADW-2 | 2026-09-03 02:49:01 | 46.79005 | 15.72792 | 155° | 117km/h | 11094m | 4.0m/s | -51.4°C | 46.9% | 0hPa | 2.7V | 00:00:00 | 00:00:00 | 00:00:00 | |
| PETON7-10 | 2026-09-03 02:49:00 | 46.79032 | 15.72773 | 154° | 117km/h | 11090m | 5.2m/s | -51.4°C | 47.2% | 0hPa | 2.7V | 00:00:00 | 00:00:00 | 00:00:00 | |
| OE5DXL-15 | 2026-09-03 02:48:58 | 46.79084 | 15.72734 | 154° | 119km/h | 11081m | 5.3m/s | -51.3°C | 47.4% | 0hPa | 2.7V | 00:00:00 | 00:00:00 | 00:00:00 | |
| OE5DRO-10 | 2026-09-03 02:48:55 | 46.79164 | 15.72676 | 153° | 117km/h | 11068m | 4.3m/s | -51.3°C | 47.8% | 0hPa | 2.7V | 00:00:00 | 00:00:00 | 00:00:00 | |
| OE8JPQ-2 | 2026-09-03 02:48:54 | 46.79190 | 15.72656 | 153° | 119km/h | 11063m | 4.2m/s | -51.2°C | 47.8% | 0hPa | 2.7V | 00:00:00 | 00:00:00 | 00:00:00 | |
| OE3JTB-15 | 2026-09-03 02:48:45 | 46.79424 | 15.72479 | 153° | 120km/h | 11021m | 4.5m/s | -51.1°C | 46.6% | 0hPa | 2.7V | 00:00:00 | 00:00:00 | 00:00:00 | |
| PG1ADW-2 | 2026-09-03 02:48:41 | 46.79528 | 15.72401 | 153° | 122km/h | 11004m | 4.7m/s | -50.9°C | 45.5% | 0hPa | 2.7V | 00:00:00 | 00:00:00 | 00:00:00 | |
| OE5DRO-10 | 2026-09-03 02:48:36 | 46.79661 | 15.72297 | 153° | 122km/h | 10980m | 3.9m/s | -50.9°C | 43.9% | 0hPa | 2.7V | 00:00:00 | 00:00:00 | 00:00:00 | |
| PETON7-10 | 2026-09-03 02:48:30 | 46.79825 | 15.72173 | 154° | 122km/h | 10952m | 4.5m/s | -50.7°C | 44.7% | 0hPa | 2.7V | 00:00:00 | 00:00:00 | 08:30:00 | |
| OE5DXL-15 | 2026-09-03 02:48:28 | 46.79880 | 15.72132 | 154° | 120km/h | 10943m | 3.1m/s | -50.7°C | 45.1% | 0hPa | 2.7V | 00:00:00 | 00:00:00 | 00:00:00 | |
| PG1ADW-2 | 2026-09-03 02:48:21 | 46.80076 | 15.71994 | 154° | 120km/h | 10913m | 3.9m/s | -50.4°C | 45.1% | 0hPa | 2.7V | 00:00:00 | 01:01:52 | 00:00:00 | |
| OE5DRO-10 | 2026-09-03 02:48:17 | 46.80184 | 15.71915 | 152° | 120km/h | 10896m | 4.8m/s | -50.3°C | 45.4% | 0hPa | 2.7V | 00:00:00 | 00:00:00 | 00:00:00 | |
| OE3JTB-15 | 2026-09-03 02:48:16 | 46.80211 | 15.71895 | 152° | 119km/h | 10892m | 3.4m/s | -50.3°C | 45.4% | 0hPa | 2.7V | 00:00:00 | 01:01:47 | 00:00:00 | |
| PETON7-10 | 2026-09-03 02:48:15 | 46.80238 | 15.71874 | 153° | 120km/h | 10888m | 4.1m/s | -50.2°C | 45.1% | 0hPa | 2.7V | 00:00:00 | 00:00:00 | 00:00:00 | |
| OE8JPQ-2 | 2026-09-03 02:48:05 | 46.80509 | 15.71671 | 153° | 119km/h | 10843m | 3.4m/s | -49.9°C | 44.5% | 0hPa | 2.7V | 00:00:00 | 00:00:00 | 00:00:00 | |
| PG1ADW-2 | 2026-09-03 02:48:01 | 46.80618 | 15.71588 | 151° | 119km/h | 10827m | 4.3m/s | -49.7°C | 43.9% | 0hPa | 2.7V | 00:00:00 | 00:00:00 | 00:00:00 | |
| PETON7-10 | 2026-09-03 02:48:00 | 46.80644 | 15.71567 | 151° | 119km/h | 10823m | 4.0m/s | -49.7°C | 43.6% | 0hPa | 2.7V | 00:00:00 | 01:01:31 | 00:00:00 | |
| OE5DRO-10 | 2026-09-03 02:47:58 | 46.80695 | 15.71526 | 152° | 119km/h | 10812m | 4.1m/s | -49.6°C | 43.8% | 0hPa | 2.7V | 00:00:00 | 00:00:00 | 00:00:00 | |
| OE3JTB-15 | 2026-09-03 02:47:47 | 46.80984 | 15.71298 | 153° | 119km/h | 10764m | 3.6m/s | -49.2°C | 43.3% | 0hPa | 2.7V | 00:00:00 | 00:00:00 | 00:00:00 | |
| OE8JPQ-2 | 2026-09-03 02:47:45 | 46.81037 | 15.71257 | 153° | 119km/h | 10754m | 4.1m/s | -49.1°C | 43.0% | 0hPa | 2.9V | 00:00:00 | 01:01:16 | 00:00:00 | |
| PG1ADW-2 | 2026-09-03 02:47:41 | 46.81142 | 15.71175 | 152° | 119km/h | 10736m | 5.4m/s | -49.0°C | 42.6% | 0hPa | 2.9V | 00:00:00 | 00:00:00 | 00:00:00 | |
| OE5DRO-10 | 2026-09-03 02:47:39 | 46.81193 | 15.71134 | 152° | 119km/h | 10727m | 4.3m/s | -48.9°C | 42.6% | 0hPa | 2.9V | 00:00:00 | 00:00:00 | 00:00:00 | |
| PETON7-10 | 2026-09-03 02:47:30 | 46.81428 | 15.70942 | 151° | 119km/h | 10686m | 3.8m/s | -48.6°C | 41.9% | 0hPa | 2.9V | 00:00:00 | 00:00:00 | 00:00:00 | |
| OE5DXL-15 | 2026-09-03 02:47:28 | 46.81481 | 15.70897 | 150° | 119km/h | 10677m | 3.5m/s | -48.5°C | 41.8% | 0hPa | 2.9V | 00:00:00 | 00:00:00 | 00:00:00 | |
| PG1ADW-2 | 2026-09-03 02:47:21 | 46.81666 | 15.70745 | 150° | 117km/h | 10646m | 3.9m/s | -48.2°C | 41.9% | 0hPa | 2.9V | 00:00:00 | 00:00:00 | 00:00:00 | |
| OE5DRO-10 | 2026-09-03 02:47:20 | 46.81691 | 15.70724 | 150° | 117km/h | 10642m | 4.2m/s | -48.2°C | 41.9% | 0hPa | 2.9V | 00:00:00 | 00:00:00 | 00:00:00 | |
| OE8JPQ-2 | 2026-09-03 02:47:18 | 46.81742 | 15.70681 | 150° | 119km/h | 10634m | 3.5m/s | -48.1°C | 42.1% | 0hPa | 2.7V | 00:00:00 | 00:00:00 | 08:30:00 | |
| PETON7-10 | 2026-09-03 02:47:15 | 46.81818 | 15.70617 | 151° | 119km/h | 10621m | 5.0m/s | -48.0°C | 42.5% | 0hPa | 2.7V | 00:00:00 | 01:00:46 | 00:00:00 | |
| OE3OSB-13 | 2026-09-03 02:47:09 | 46.81973 | 15.70486 | 149° | 117km/h | 10595m | 4.9m/s | -47.9°C | 38.3% | -1.0hPa | 2.7V | 00:00:00 | 00:00:00 | 00:00:00 | |
| PG1ADW-2 | 2026-09-03 02:47:01 | 46.82179 | 15.70307 | 149° | 119km/h | 10559m | 3.6m/s | -47.7°C | 44.2% | 0hPa | 2.7V | 00:00:00 | 01:00:32 | 00:00:00 | |
| PETON7-10 | 2026-09-03 02:47:00 | 46.82205 | 15.70284 | 149° | 119km/h | 10555m | 4.2m/s | -47.6°C | 44.1% | 0hPa | 2.7V | 00:00:00 | 00:00:00 | 00:00:00 | |
| OE5DXL-15 | 2026-09-03 02:46:58 | 46.82256 | 15.70238 | 148° | 119km/h | 10546m | 4.0m/s | -47.6°C | 44.3% | 0hPa | 2.7V | 00:00:00 | 00:00:00 | 00:00:00 | |
| OE8JPQ-2 | 2026-09-03 02:46:55 | 46.82332 | 15.70169 | 149° | 119km/h | 10533m | 4.7m/s | -47.5°C | 44.9% | 0hPa | 2.7V | 00:00:00 | 00:00:00 | 00:00:00 | |
| OE3JTB-15 | 2026-09-03 02:46:46 | 46.82559 | 15.69951 | 146° | 122km/h | 10494m | 3.7m/s | -47.2°C | 46.9% | 0hPa | 2.7V | 00:00:00 | 01:00:17 | 00:00:00 | |
| PETON7-10 | 2026-09-03 02:46:45 | 46.82584 | 15.69926 | 146° | 119km/h | 10489m | 5.7m/s | -47.2°C | 47.5% | 0hPa | 2.7V | 00:00:00 | 00:00:00 | 00:00:00 | |
| OE5DRO-10 | 2026-09-03 02:46:42 | 46.82659 | 15.69851 | 146° | 120km/h | 10477m | 3.8m/s | -47.1°C | 49.2% | 0hPa | 2.7V | 00:00:00 | 00:00:00 | 00:00:00 | |
| PG1ADW-2 | 2026-09-03 02:46:41 | 46.82684 | 15.69826 | 146° | 120km/h | 10472m | 5.5m/s | -47.1°C | 49.5% | 0hPa | 2.7V | 00:00:00 | 00:00:00 | 00:00:00 | |
| OE8JPQ-2 | 2026-09-03 02:46:35 | 46.82834 | 15.69678 | 146° | 122km/h | 10447m | 5.0m/s | -47.0°C | 50.4% | 0hPa | 2.7V | 00:00:00 | 01:00:06 | 00:00:00 | |
| PETON7-10 | 2026-09-03 02:46:30 | 46.82958 | 15.69554 | 146° | 122km/h | 10424m | 3.3m/s | -46.8°C | 51.3% | 0hPa | 2.7V | 00:00:00 | 01:00:01 | 00:00:00 | |
| OE5DXL-15 | 2026-09-03 02:46:28 | 46.83009 | 15.69504 | 145° | 124km/h | 10416m | 3.8m/s | -46.8°C | 51.0% | 0hPa | 2.7V | 00:00:00 | 00:00:00 | 00:00:00 | |
| OE5DRO-10 | 2026-09-03 02:46:23 | 46.83134 | 15.69375 | 146° | 124km/h | 10392m | 2.9m/s | -46.6°C | 51.9% | 0hPa | 2.7V | 00:00:00 | 00:00:00 | 08:30:00 | |
| PG1ADW-2 | 2026-09-03 02:46:21 | 46.83186 | 15.69324 | 148° | 124km/h | 10383m | 3.1m/s | -46.5°C | 52.2% | 0hPa | 2.9V | 00:00:00 | 00:00:00 | 08:30:00 | |
| OE8JPQ-2 | 2026-09-03 02:46:15 | 46.83347 | 15.69178 | 148° | 124km/h | 10356m | 5.0m/s | -46.4°C | 52.1% | 0hPa | 2.9V | 00:00:00 | 00:00:00 | 00:00:00 | |
| OE5DRO-10 | 2026-09-03 02:46:04 | 46.83632 | 15.68890 | 145° | 124km/h | 10307m | 3.0m/s | -45.9°C | 51.7% | 0hPa | 2.7V | 00:00:00 | 00:00:00 | 00:00:00 | |
| PG1ADW-2 | 2026-09-03 02:46:01 | 46.83708 | 15.68810 | 145° | 126km/h | 10293m | 4.5m/s | -45.8°C | 51.2% | 0hPa | 2.7V | 00:00:00 | 00:00:00 | 00:00:00 | |
| PETON7-10 | 2026-09-03 02:46:00 | 46.83733 | 15.68784 | 144° | 124km/h | 10288m | 4.2m/s | -45.8°C | 51.2% | 0hPa | 2.7V | 00:00:00 | 00:00:00 | 00:00:00 | |
| OE5DXL-15 | 2026-09-03 02:45:58 | 46.83784 | 15.68730 | 145° | 126km/h | 10280m | 4.2m/s | -45.7°C | 51.2% | 0hPa | 2.7V | 00:00:00 | 00:00:00 | 00:00:00 | |
| OE3JTB-15 | 2026-09-03 02:45:56 | 46.83836 | 15.68677 | 145° | 126km/h | 10271m | 5.5m/s | -45.6°C | 51.0% | 0hPa | 2.7V | 00:00:00 | 00:00:00 | 08:30:00 | |
| OE8JPQ-2 | 2026-09-03 02:45:55 | 46.83861 | 15.68651 | 145° | 126km/h | 10266m | 3.9m/s | -45.6°C | 51.2% | 0hPa | 2.9V | 00:00:00 | 00:00:00 | 00:00:00 | |
| PETON7-10 | 2026-09-03 02:45:45 | 46.84120 | 15.68385 | 145° | 128km/h | 10221m | 6.5m/s | -45.2°C | 50.4% | 0hPa | 2.9V | 00:00:00 | 00:59:16 | 00:00:00 | |
| PG1ADW-2 | 2026-09-03 02:45:41 | 46.84227 | 15.68276 | 145° | 128km/h | 10202m | 4.2m/s | -45.1°C | 50.9% | 0hPa | 2.9V | 00:00:00 | 00:59:12 | 00:00:00 | |
| OE8JPQ-2 | 2026-09-03 02:45:35 | 46.84383 | 15.68113 | 145° | 133km/h | 10175m | 5.9m/s | -44.8°C | 50.8% | 0hPa | 2.9V | 00:00:00 | 00:59:06 | 00:00:00 | |
| PETON7-10 | 2026-09-03 02:45:30 | 46.84515 | 15.67973 | 145° | 130km/h | 10154m | 2.6m/s | -44.7°C | 51.0% | 0hPa | 2.9V | 00:00:00 | 00:00:00 | 00:00:00 | |
| OE5DXL-15 | 2026-09-03 02:45:28 | 46.84568 | 15.67918 | 145° | 131km/h | 10145m | 4.5m/s | -44.6°C | 50.5% | 0hPa | 2.7V | 00:00:00 | 00:00:00 | 00:00:00 | |
| OE3JTB-15 | 2026-09-03 02:45:27 | 46.84595 | 15.67890 | 145° | 131km/h | 10141m | 3.8m/s | -44.6°C | 50.7% | 0hPa | 2.7V | 00:00:00 | 00:00:00 | 00:00:00 | |
| OE5DRO-10 | 2026-09-03 02:45:26 | 46.84621 | 15.67862 | 144° | 131km/h | 10136m | 5.6m/s | -44.5°C | 50.4% | 0hPa | 2.7V | 00:00:00 | 00:00:00 | 00:00:00 | |
| PG1ADW-2 | 2026-09-03 02:45:21 | 46.84755 | 15.67721 | 145° | 133km/h | 10115m | 3.3m/s | -44.3°C | 50.3% | 0hPa | 2.9V | 00:00:00 | 00:00:00 | 00:00:00 | |
| PETON7-10 | 2026-09-03 02:45:15 | 46.84918 | 15.67552 | 146° | 133km/h | 10090m | 4.4m/s | -44.1°C | 47.5% | 0hPa | 2.9V | 00:00:00 | 00:00:00 | 00:00:00 | |
| OE5DRO-10 | 2026-09-03 02:45:07 | 46.85136 | 15.67323 | 144° | 135km/h | 10053m | 5.7m/s | -43.8°C | 37.2% | 0hPa | 2.9V | 00:00:00 | 00:00:00 | 00:00:00 | |
| OE3OSB-13 | 2026-09-03 02:45:05 | 46.85191 | 15.67265 | 144° | 131km/h | 10043m | 4.7m/s | -43.8°C | 31.2% | -1.0hPa | 2.9V | 00:00:00 | 00:00:00 | 00:00:00 | |
| PG1ADW-2 | 2026-09-03 02:45:01 | 46.85302 | 15.67150 | 146° | 133km/h | 10025m | 4.5m/s | -43.6°C | 31.6% | 0hPa | 2.9V | 00:00:00 | 00:00:00 | 00:00:00 | |
| PETON7-10 | 2026-09-03 02:45:00 | 46.85330 | 15.67122 | 146° | 135km/h | 10019m | 5.6m/s | -43.6°C | 30.6% | 0hPa | 2.9V | 00:00:00 | 00:58:31 | 00:00:00 | |
| OE3JTB-15 | 2026-09-03 02:44:58 | 46.85385 | 15.67065 | 145° | 133km/h | 10010m | 5.4m/s | -43.5°C | 29.6% | 0hPa | 2.9V | 00:00:00 | 00:58:29 | 00:00:00 | |
| OE8JPQ-2 | 2026-09-03 02:44:55 | 46.85469 | 15.66980 | 146° | 133km/h | 9996m | 3.3m/s | -43.4°C | 28.7% | 0hPa | 2.9V | 00:00:00 | 00:00:00 | 00:00:00 | |
| OE5DRO-10 | 2026-09-03 02:44:48 | 46.85664 | 15.66779 | 146° | 131km/h | 9962m | 4.7m/s | -43.2°C | 25.2% | 0hPa | 2.9V | 00:00:00 | 00:00:00 | 00:00:00 | |
| PETON7-10 | 2026-09-03 02:44:45 | 46.85749 | 15.66697 | 148° | 131km/h | 9949m | 4.1m/s | -43.1°C | 24.3% | 0hPa | 2.9V | 00:00:00 | 00:00:00 | 00:00:00 | |
| PG1ADW-2 | 2026-09-03 02:44:41 | 46.85862 | 15.66590 | 147° | 128km/h | 9929m | 3.6m/s | -42.9°C | 23.6% | 0hPa | 2.9V | 00:00:00 | 00:00:00 | 00:00:00 | |
| OE8JPQ-2 | 2026-09-03 02:44:35 | 46.86028 | 15.66429 | 148° | 126km/h | 9899m | 4.2m/s | -42.7°C | 22.3% | 0hPa | 2.9V | 00:00:00 | 00:00:00 | 00:00:00 | |
| PETON7-10 | 2026-09-03 02:44:30 | 46.86166 | 15.66303 | 149° | 124km/h | 9874m | 5.3m/s | -42.5°C | 20.6% | 0hPa | 2.9V | 00:00:00 | 00:00:00 | 00:00:00 | |
| OE3JTB-15 | 2026-09-03 02:44:29 | 46.86193 | 15.66278 | 148° | 124km/h | 9869m | 5.5m/s | -42.5°C | 20.4% | 0hPa | 2.9V | 00:00:00 | 00:00:00 | 00:00:00 | |
| OE5DXL-15 | 2026-09-03 02:44:28 | 46.86221 | 15.66253 | 148° | 124km/h | 9863m | 4.5m/s | -42.5°C | 20.3% | 0hPa | 2.7V | 00:00:00 | 00:00:00 | 00:00:00 | |
| PG1ADW-2 | 2026-09-03 02:44:21 | 46.86409 | 15.66084 | 149° | 124km/h | 9828m | 6.0m/s | -42.2°C | 19.4% | 0hPa | 2.7V | 00:00:00 | 00:57:52 | 00:00:00 | |
| OE8JPQ-2 | 2026-09-03 02:44:15 | 46.86564 | 15.65936 | 148° | 124km/h | 9801m | 4.2m/s | -42.0°C | 18.6% | 0hPa | 2.9V | 00:00:00 | 00:57:46 | 00:00:00 | |
| OE5DRO-10 | 2026-09-03 02:44:10 | 46.86699 | 15.65818 | 149° | 122km/h | 9780m | 4.0m/s | -42.2°C | 20.4% | 0hPa | 2.9V | 00:00:00 | 00:00:00 | 00:00:00 | |
| OE3OSB-13 | 2026-09-03 02:44:03 | 46.86913 | 15.65612 | 146° | 122km/h | 9737m | 3.4m/s | -42.2°C | 24.2% | -1.0hPa | 2.9V | 00:00:00 | 00:00:00 | 00:00:00 | |
| PG1ADW-2 | 2026-09-03 02:44:01 | 46.86940 | 15.65588 | 149° | 113km/h | 9732m | 8.6m/s | -42.2°C | 28.8% | 0hPa | 2.9V | 00:00:00 | 00:00:00 | 00:00:00 | |
| PETON7-10 | 2026-09-03 02:44:00 | 46.86967 | 15.65566 | 154° | 115km/h | 9724m | 6.6m/s | -42.2°C | 30.8% | 0hPa | 2.9V | 00:00:00 | 00:00:00 | 08:30:00 | |
| OE5DXL-15 | 2026-09-03 02:43:58 | 46.87023 | 15.65529 | 157° | 106km/h | 9713m | 4.1m/s | -42.2°C | 35.8% | 0hPa | 2.9V | 00:00:00 | 00:00:00 | 00:00:00 | |
| OE8JPQ-2 | 2026-09-03 02:43:55 | 46.87101 | 15.65471 | 150° | 108km/h | 9695m | 9.2m/s | -42.2°C | 42.2% | 0hPa | 2.9V | 00:00:00 | 00:00:00 | 08:30:00 | |
| OE5DRO-10 | 2026-09-03 02:43:51 | 46.87201 | 15.65373 | 148° | 104km/h | 9666m | 4.3m/s | -42.2°C | 51.0% | 0hPa | 2.9V | 00:00:00 | 00:00:00 | 00:00:00 | |
| PETON7-10 | 2026-09-03 02:43:45 | 46.87335 | 15.65242 | 146° | 102km/h | 9624m | 4.8m/s | -42.0°C | 57.3% | 0hPa | 2.9V | 00:00:00 | 00:00:00 | 00:00:00 | |
| PG1ADW-2 | 2026-09-03 02:43:41 | 46.87421 | 15.65157 | 147° | 100km/h | 9606m | 4.0m/s | -41.9°C | 60.6% | 0hPa | 2.9V | 00:00:00 | 00:00:00 | 00:00:00 | |
| OE8JPQ-2 | 2026-09-03 02:43:35 | 46.87551 | 15.65032 | 147° | 97km/h | 9576m | 5.4m/s | -41.8°C | 68.1% | 0hPa | 2.9V | 00:00:00 | 00:00:00 | 00:00:00 | |
| OE5DRO-10 | 2026-09-03 02:43:32 | 46.87614 | 15.64972 | 146° | 95km/h | 9562m | 4.2m/s | -41.7°C | 69.5% | 0hPa | 2.9V | 00:00:00 | 00:00:00 | 08:30:00 | |
| OE3JTB-15 | 2026-09-03 02:43:31 | 46.87634 | 15.64952 | 147° | 93km/h | 9556m | 6.0m/s | -41.6°C | 69.3% | 0hPa | 2.7V | 00:00:00 | 00:57:02 | 00:00:00 | |
| PETON7-10 | 2026-09-03 02:43:30 | 46.87655 | 15.64932 | 147° | 97km/h | 9551m | 4.4m/s | -41.6°C | 69.9% | 0hPa | 2.7V | 00:00:00 | 00:57:01 | 00:00:00 | |
| OE5DXL-15 | 2026-09-03 02:43:28 | 46.87695 | 15.64892 | 146° | 93km/h | 9541m | 3.4m/s | -41.5°C | 70.6% | 0hPa | 2.7V | 00:00:00 | 00:00:00 | 00:00:00 | |
| PG1ADW-2 | 2026-09-03 02:43:21 | 46.87840 | 15.64746 | 145° | 91km/h | 9505m | 5.5m/s | -41.2°C | 67.2% | 0hPa | 2.7V | 00:00:00 | 00:00:00 | 08:30:00 | |
| OE8JPQ-2 | 2026-09-03 02:43:15 | 46.87952 | 15.64626 | 145° | 91km/h | 9470m | 5.2m/s | -40.9°C | 65.4% | 0hPa | 2.9V | 00:00:00 | 00:56:46 | 00:00:00 | |
| OE5DRO-10 | 2026-09-03 02:43:13 | 46.87989 | 15.64589 | 146° | 91km/h | 9461m | 4.8m/s | -40.8°C | 64.9% | 0hPa | 2.9V | 00:00:00 | 00:00:00 | 00:00:00 | |
| PG1ADW-2 | 2026-09-03 02:43:01 | 46.88217 | 15.64351 | 145° | 89km/h | 9404m | 4.5m/s | -40.2°C | 62.3% | 0hPa | 2.9V | 00:00:00 | 00:56:32 | 00:00:00 | |
| PETON7-10 | 2026-09-03 02:43:00 | 46.88235 | 15.64332 | 144° | 89km/h | 9399m | 5.6m/s | -40.2°C | 61.6% | 0hPa | 2.9V | 00:00:00 | 00:00:00 | 00:00:00 | |
| OE5DXL-15 | 2026-09-03 02:42:58 | 46.88271 | 15.64292 | 145° | 86km/h | 9388m | 7.1m/s | -40.1°C | 60.6% | 0hPa | 2.9V | 00:00:00 | 00:00:00 | 00:00:00 | |
| OE8JPQ-2 | 2026-09-03 02:42:55 | 46.88327 | 15.64233 | 145° | 89km/h | 9371m | 5.0m/s | -40.0°C | 60.2% | 0hPa | 2.9V | 00:00:00 | 00:00:00 | 00:00:00 | |
| OE5DRO-10 | 2026-09-03 02:42:54 | 46.88345 | 15.64214 | 145° | 89km/h | 9366m | 5.2m/s | -39.9°C | 60.1% | 0hPa | 2.9V | 00:00:00 | 00:00:00 | 00:00:00 | |
| PETON7-10 | 2026-09-03 02:42:45 | 46.88509 | 15.64038 | 142° | 84km/h | 9320m | 5.6m/s | -39.5°C | 58.7% | 0hPa | 2.9V | 00:00:00 | 00:56:16 | 00:00:00 | |
| PG1ADW-2 | 2026-09-03 02:42:41 | 46.88578 | 15.63959 | 143° | 82km/h | 9299m | 4.8m/s | -39.3°C | 59.0% | 0hPa | 2.9V | 00:00:00 | 00:00:00 | 00:00:00 | |
| OE8JPQ-2 | 2026-09-03 02:42:35 | 46.88684 | 15.63841 | 145° | 80km/h | 9267m | 4.6m/s | -39.0°C | 58.4% | 0hPa | 2.9V | 00:00:00 | 00:00:00 | 00:00:00 | |
| PETON7-10 | 2026-09-03 02:42:30 | 46.88764 | 15.63762 | 145° | 82km/h | 9242m | 7.3m/s | -38.8°C | 55.6% | 0hPa | 2.9V | 00:00:00 | 00:00:00 | 00:00:00 | |
| OE5DXL-15 | 2026-09-03 02:42:28 | 46.88794 | 15.63727 | 141° | 82km/h | 9227m | 5.2m/s | -38.7°C | 54.7% | 0hPa | 2.7V | 00:00:00 | 00:00:00 | 00:00:00 | |
| PG1ADW-2 | 2026-09-03 02:42:21 | 46.88908 | 15.63587 | 142° | 82km/h | 9182m | 4.9m/s | -38.3°C | 53.0% | 0hPa | 2.7V | 00:00:00 | 00:00:00 | 00:00:00 | |
| OE5DRO-10 | 2026-09-03 02:42:16 | 46.88988 | 15.63490 | 140° | 82km/h | 9158m | 5.2m/s | -38.1°C | 53.5% | 0hPa | 2.9V | 00:00:00 | 00:00:00 | 00:00:00 | |
| OE8JPQ-2 | 2026-09-03 02:42:15 | 46.89004 | 15.63470 | 139° | 82km/h | 9152m | 5.5m/s | -38.0°C | 54.0% | 0hPa | 2.9V | 00:00:00 | 00:55:46 | 00:00:00 | |
| OE3JTB-15 | 2026-09-03 02:42:06 | 46.89147 | 15.63295 | 141° | 82km/h | 9107m | 5.7m/s | -37.7°C | 57.9% | 0hPa | 2.9V | 00:00:00 | 00:00:00 | 00:00:00 | |
| PG1ADW-2 | 2026-09-03 02:42:01 | 46.89227 | 15.63201 | 142° | 84km/h | 9082m | 4.7m/s | -37.5°C | 60.8% | 0hPa | 2.9V | 00:00:00 | 00:00:00 | 00:00:00 | |
| PETON7-10 | 2026-09-03 02:42:00 | 46.89243 | 15.63182 | 142° | 82km/h | 9078m | 4.7m/s | -37.5°C | 61.6% | 0hPa | 2.9V | 00:00:00 | 00:55:31 | 00:00:00 | |
| OE5DXL-15 | 2026-09-03 02:41:58 | 46.89275 | 15.63145 | 142° | 84km/h | 9068m | 5.0m/s | -37.5°C | 64.5% | 0hPa | 2.9V | 00:00:00 | 00:00:00 | 00:00:00 | |
| OE5DRO-10 | 2026-09-03 02:41:57 | 46.89292 | 15.63126 | 141° | 84km/h | 9064m | 3.7m/s | -37.4°C | 64.7% | 0hPa | 2.7V | 00:00:00 | 00:00:00 | 00:00:00 | |
| OE8JPQ-2 | 2026-09-03 02:41:55 | 46.89323 | 15.63089 | 142° | 84km/h | 9054m | 4.5m/s | -37.3°C | 65.1% | 0hPa | 2.7V | 00:00:00 | 00:00:00 | 00:00:00 | |
| PETON7-10 | 2026-09-03 02:41:45 | 46.89488 | 15.62895 | 144° | 82km/h | 8995m | 5.1m/s | -37.0°C | 69.1% | 0hPa | 2.9V | 00:00:00 | 00:00:00 | 08:30:00 | |
| PG1ADW-2 | 2026-09-03 02:41:40 | 46.89573 | 15.62805 | 145° | 84km/h | 8964m | 4.1m/s | -36.7°C | 68.6% | 0hPa | 2.9V | 00:00:00 | 00:55:11 | 00:00:00 | |
| OE5DRO-10 | 2026-09-03 02:41:38 | 46.89608 | 15.62771 | 146° | 84km/h | 8954m | 4.0m/s | -36.6°C | 69.6% | 0hPa | 2.9V | 00:00:00 | 00:00:00 | 00:00:00 | |
| OE8JPQ-2 | 2026-09-03 02:41:35 | 46.89658 | 15.62717 | 144° | 86km/h | 8939m | 4.0m/s | -36.6°C | 71.0% | 0hPa | 2.9V | 00:00:00 | 00:00:00 | 00:00:00 | |
| PETON7-10 | 2026-09-03 02:41:30 | 46.89743 | 15.62627 | 145° | 86km/h | 8914m | 4.5m/s | -36.4°C | 74.8% | 0hPa | 2.9V | 00:00:00 | 00:00:00 | 00:00:00 | |
| OE5DXL-15 | 2026-09-03 02:41:28 | 46.89778 | 15.62590 | 145° | 86km/h | 8904m | 4.0m/s | -36.4°C | 76.2% | 0hPa | 2.9V | 00:00:00 | 00:00:00 | 00:00:00 | |
| OE3JTB-15 | 2026-09-03 02:41:26 | 46.89815 | 15.62552 | 145° | 86km/h | 8894m | 4.1m/s | -36.3°C | 76.8% | 0hPa | 2.9V | 00:00:00 | 00:54:57 | 00:00:00 | |
| PG1ADW-2 | 2026-09-03 02:41:20 | 46.89919 | 15.62436 | 143° | 86km/h | 8863m | 4.2m/s | -36.1°C | 79.3% | 0hPa | 2.9V | 00:00:00 | 00:00:00 | 00:00:00 | |
| OE5DRO-10 | 2026-09-03 02:41:19 | 46.89936 | 15.62418 | 144° | 86km/h | 8858m | 5.8m/s | -36.1°C | 79.1% | 0hPa | 2.9V | 00:00:00 | 00:00:00 | 00:00:00 | |
| OE8JPQ-2 | 2026-09-03 02:41:15 | 46.90003 | 15.62340 | 140° | 86km/h | 8838m | 5.1m/s | -35.9°C | 76.2% | 0hPa | 2.9V | 00:00:00 | 00:54:46 | 00:00:00 | |
| PETON7-10 | 2026-09-03 02:41:00 | 46.90257 | 15.62036 | 143° | 86km/h | 8760m | 4.8m/s | -35.2°C | 52.7% | 0hPa | 2.9V | 00:00:00 | 00:00:00 | 00:00:00 | |
| OE5DXL-15 | 2026-09-03 02:40:58 | 46.90291 | 15.61998 | 143° | 86km/h | 8750m | 5.1m/s | -35.1°C | 49.7% | 0hPa | 2.7V | 00:00:00 | 00:00:00 | 00:00:00 | |
| OE8JPQ-2 | 2026-09-03 02:40:55 | 46.90340 | 15.61941 | 140° | 86km/h | 8733m | 6.1m/s | -34.9°C | 37.9% | 0hPa | 2.7V | 00:00:00 | 00:00:00 | 08:30:00 | |
| OE3JTB-15 | 2026-09-03 02:40:46 | 46.90493 | 15.61758 | 145° | 86km/h | 8684m | 5.1m/s | -34.5°C | 35.2% | 0hPa | 2.9V | 00:00:00 | 00:00:00 | 08:30:00 | |
| PETON7-10 | 2026-09-03 02:40:45 | 46.90511 | 15.61740 | 144° | 86km/h | 8679m | 5.0m/s | -34.4°C | 35.1% | 0hPa | 2.7V | 00:00:00 | 00:00:00 | 00:00:00 | |
| OE5DRO-10 | 2026-09-03 02:40:41 | 46.90580 | 15.61664 | 143° | 86km/h | 8659m | 6.4m/s | -34.2°C | 34.4% | 0hPa | 2.7V | 00:00:00 | 00:00:00 | 08:30:00 | |
| PG1ADW-2 | 2026-09-03 02:40:40 | 46.90597 | 15.61644 | 141° | 86km/h | 8654m | 3.8m/s | -34.2°C | 34.5% | 0hPa | 2.7V | 00:00:00 | 00:00:00 | 00:00:00 | |
| OE8JPQ-2 | 2026-09-03 02:40:35 | 46.90679 | 15.61544 | 138° | 86km/h | 8629m | 6.3m/s | -33.9°C | 33.0% | 0hPa | 2.7V | 00:00:00 | 00:00:00 | 00:00:00 | |
| PETON7-10 | 2026-09-03 02:40:30 | 46.90764 | 15.61443 | 145° | 86km/h | 8603m | 4.5m/s | -33.7°C | 32.2% | 0hPa | 2.7V | 00:00:00 | 00:54:01 | 00:00:00 | |
| OE5DRO-10 | 2026-09-03 02:40:22 | 46.90904 | 15.61288 | 141° | 84km/h | 8562m | 4.8m/s | -33.3°C | 31.2% | 0hPa | 2.7V | 00:00:00 | 00:00:00 | 00:00:00 | |
| PG1ADW-2 | 2026-09-03 02:40:20 | 46.90938 | 15.61247 | 142° | 84km/h | 8552m | 4.6m/s | -33.2°C | 31.0% | 0hPa | 2.7V | 00:00:00 | 00:53:51 | 08:30:00 | |
| OE3JTB-15 | 2026-09-03 02:40:17 | 46.90989 | 15.61189 | 143° | 84km/h | 8537m | 4.8m/s | -33.0°C | 30.8% | 0hPa | 2.9V | 00:00:00 | 00:00:00 | 00:00:00 | |
| PETON7-10 | 2026-09-03 02:40:15 | 46.91024 | 15.61152 | 144° | 84km/h | 8527m | 3.7m/s | -32.9°C | 30.7% | 0hPa | 2.9V | 00:00:00 | 00:00:00 | 00:00:00 | |
| OE5DRO-10 | 2026-09-03 02:40:03 | 46.91220 | 15.60917 | 141° | 84km/h | 8472m | 3.8m/s | -32.4°C | 35.7% | 0hPa | 2.9V | 00:00:00 | 00:00:00 | 00:00:00 | |
| OE5DXL-15 | 2026-09-03 02:39:58 | 46.91305 | 15.60814 | 142° | 82km/h | 8448m | 5.2m/s | -32.2°C | 35.1% | 0hPa | 2.9V | 00:00:00 | 00:00:00 | 00:00:00 | |
| OE8JPQ-2 | 2026-09-03 02:39:55 | 46.91356 | 15.60756 | 144° | 82km/h | 8430m | 5.7m/s | -32.0°C | 34.6% | 0hPa | 2.9V | 00:00:00 | 00:00:00 | 00:00:00 | |
| OE3JTB-15 | 2026-09-03 02:39:47 | 46.91491 | 15.60612 | 144° | 82km/h | 8388m | 4.9m/s | -31.7°C | 33.9% | 0hPa | 2.7V | 00:00:00 | 00:53:18 | 00:00:00 | |
| PETON7-10 | 2026-09-03 02:39:45 | 46.91523 | 15.60575 | 143° | 82km/h | 8379m | 4.6m/s | -31.6°C | 33.8% | 0hPa | 2.7V | 00:00:00 | 00:53:16 | 00:00:00 | |
| OE5DRO-10 | 2026-09-03 02:39:44 | 46.91541 | 15.60556 | 144° | 82km/h | 8374m | 5.3m/s | -31.5°C | 33.8% | 0hPa | 2.7V | 00:00:00 | 00:00:00 | 00:00:00 | |
| PG1ADW-2 | 2026-09-03 02:39:40 | 46.91609 | 15.60482 | 145° | 82km/h | 8355m | 4.6m/s | -31.4°C | 33.9% | 0hPa | 2.9V | 00:00:00 | 00:00:00 | 00:00:00 | |
| OE8JPQ-2 | 2026-09-03 02:39:35 | 46.91690 | 15.60391 | 141° | 82km/h | 8330m | 5.3m/s | -31.1°C | 33.5% | 0hPa | 2.9V | 00:00:00 | 00:00:00 | 00:00:00 | |
| PETON7-10 | 2026-09-03 02:39:30 | 46.91771 | 15.60301 | 145° | 82km/h | 8308m | 4.0m/s | -30.9°C | 31.1% | 0hPa | 2.9V | 00:00:00 | 00:00:00 | 08:30:00 | |
| OE5DXL-15 | 2026-09-03 02:39:28 | 46.91805 | 15.60266 | 144° | 84km/h | 8298m | 3.2m/s | -30.9°C | 29.3% | 0hPa | 2.7V | 00:00:00 | 00:00:00 | 00:00:00 | |
| OE5DRO-10 | 2026-09-03 02:39:25 | 46.91855 | 15.60212 | 143° | 82km/h | 8283m | 5.7m/s | -30.7°C | 26.0% | 0hPa | 2.7V | 00:00:00 | 00:00:00 | 00:00:00 | |
| PG1ADW-2 | 2026-09-03 02:39:20 | 46.91938 | 15.60117 | 140° | 82km/h | 8261m | 4.5m/s | -30.5°C | 22.4% | 0hPa | 2.7V | 00:00:00 | 00:00:00 | 00:00:00 | |
| OE3JTB-15 | 2026-09-03 02:39:18 | 46.91970 | 15.60079 | 143° | 82km/h | 8252m | 5.4m/s | -30.4°C | 21.6% | 0hPa | 2.9V | 00:00:00 | 00:00:00 | 00:00:00 | |
| PETON7-10 | 2026-09-03 02:39:15 | 46.92021 | 15.60023 | 143° | 84km/h | 8240m | 5.7m/s | -30.3°C | 20.6% | 0hPa | 2.9V | 00:00:00 | 00:00:00 | 00:00:00 | |
| OE5DRO-10 | 2026-09-03 02:39:06 | 46.92171 | 15.59857 | 143° | 82km/h | 8199m | 3.1m/s | -30.0°C | 23.3% | 0hPa | 2.9V | 00:00:00 | 00:00:00 | 00:00:00 | |
| PG1ADW-2 | 2026-09-03 02:39:00 | 46.92271 | 15.59742 | 139° | 82km/h | 8171m | 4.3m/s | -29.8°C | 23.9% | 0hPa | 2.9V | 00:00:00 | 00:52:31 | 00:00:00 | |
| OE5DXL-15 | 2026-09-03 02:38:58 | 46.92304 | 15.59700 | 139° | 82km/h | 8163m | 2.8m/s | -29.7°C | 24.7% | 0hPa | 2.9V | 00:00:00 | 00:00:00 | 00:00:00 | |
| OE8JPQ-2 | 2026-09-03 02:38:55 | 46.92354 | 15.59643 | 145° | 82km/h | 8149m | 3.7m/s | -29.6°C | 25.0% | 0hPa | 2.9V | 00:00:00 | 00:00:00 | 00:00:00 | |
| OE3JTB-15 | 2026-09-03 02:38:49 | 46.92452 | 15.59536 | 143° | 78km/h | 8124m | 4.9m/s | -29.4°C | 23.9% | 0hPa | 2.9V | 00:00:00 | 00:00:00 | 00:00:00 | |
| OE5DRO-10 | 2026-09-03 02:38:47 | 46.92485 | 15.59500 | 145° | 84km/h | 8116m | 5.1m/s | -29.4°C | 23.1% | 0hPa | 2.9V | 00:00:00 | 00:00:00 | 00:00:00 | |
| PETON7-10 | 2026-09-03 02:38:45 | 46.92519 | 15.59464 | 145° | 82km/h | 8107m | 4.2m/s | -29.3°C | 23.4% | 0hPa | 2.7V | 00:00:00 | 00:00:00 | 00:00:00 | |
| PG1ADW-2 | 2026-09-03 02:38:38 | 46.92633 | 15.59333 | 140° | 84km/h | 8076m | 4.9m/s | -29.1°C | 23.1% | 0hPa | 2.9V | 00:00:00 | 00:00:00 | 00:00:00 | |
| OE8JPQ-2 | 2026-09-03 02:38:35 | 46.92683 | 15.59274 | 144° | 82km/h | 8064m | 3.1m/s | -29.1°C | 23.3% | 0hPa | 2.9V | 00:00:00 | 00:00:00 | 00:00:00 | |
| PETON7-10 | 2026-09-03 02:38:30 | 46.92768 | 15.59182 | 144° | 78km/h | 8042m | 5.5m/s | -29.0°C | 21.5% | 0hPa | 2.9V | 00:00:00 | 00:00:00 | 00:00:00 | |
| OE5DXL-15 | 2026-09-03 02:38:28 | 46.92802 | 15.59144 | 143° | 77km/h | 8034m | 4.4m/s | -28.9°C | 21.5% | 0hPa | 2.9V | 00:00:00 | 00:00:00 | 00:00:00 | |
| PG1ADW-2 | 2026-09-03 02:38:18 | 46.92960 | 15.58958 | 140° | 73km/h | 7988m | 6.4m/s | -28.8°C | 20.5% | 0hPa | 2.9V | 00:00:00 | 00:00:00 | 00:00:00 | |
| OE8JPQ-2 | 2026-09-03 02:38:15 | 46.93006 | 15.58903 | 140° | 71km/h | 7975m | 5.1m/s | -28.7°C | 20.5% | 0hPa | 2.9V | 00:00:00 | 00:51:46 | 00:00:00 | |
| PETON7-10 | 2026-09-03 02:38:14 | 46.93020 | 15.58885 | 139° | 73km/h | 7970m | 4.4m/s | -28.7°C | 20.4% | 0hPa | 2.9V | 00:00:00 | 00:51:45 | 00:00:00 | |
| OE5DRO-10 | 2026-09-03 02:38:09 | 46.93090 | 15.58794 | 138° | 71km/h | 7947m | 4.9m/s | -28.5°C | 20.4% | 0hPa | 2.9V | 00:00:00 | 00:00:00 | 00:00:00 | |
| OE3JTB-15 | 2026-09-03 02:38:06 | 46.93131 | 15.58740 | 137° | 64km/h | 7932m | 4.2m/s | -28.5°C | 21.1% | 0hPa | 2.9V | 00:00:00 | 00:51:37 | 00:00:00 | |
| PETON7-10 | 2026-09-03 02:37:59 | 46.93225 | 15.58612 | 141° | 68km/h | 7902m | 5.0m/s | -28.4°C | 22.0% | 0hPa | 2.9V | 00:00:00 | 00:00:00 | 00:00:00 | |
| OE5DXL-15 | 2026-09-03 02:37:58 | 46.93239 | 15.58597 | 144° | 62km/h | 7898m | 2.8m/s | -28.4°C | 22.1% | 0hPa | 2.9V | 00:00:00 | 00:00:00 | 00:00:00 | |
| OE8JPQ-2 | 2026-09-03 02:37:55 | 46.93280 | 15.58557 | 146° | 64km/h | 7886m | 3.3m/s | -28.4°C | 23.6% | 0hPa | 2.9V | 00:00:00 | 00:00:00 | 08:30:00 | |
| OE5DRO-10 | 2026-09-03 02:37:50 | 46.93345 | 15.58467 | 135° | 60km/h | 7857m | 9.7m/s | -28.4°C | 26.9% | 0hPa | 2.9V | 00:00:00 | 00:00:00 | 08:30:00 | |
| PG1ADW-2 | 2026-09-03 02:37:48 | 46.93369 | 15.58432 | 135° | 60km/h | 7843m | 6.4m/s | -28.4°C | 29.0% | 0hPa | 2.9V | 00:00:00 | 00:00:00 | 00:00:00 | |
| PETON7-10 | 2026-09-03 02:37:44 | 46.93414 | 15.58369 | 135° | 58km/h | 7823m | 4.2m/s | -28.4°C | 31.7% | 0hPa | 2.9V | 00:00:00 | 00:00:00 | 00:00:00 | |
| OE3JTB-15 | 2026-09-03 02:37:35 | 46.93503 | 15.58226 | 134° | 60km/h | 7784m | 2.9m/s | -28.2°C | 35.4% | 0hPa | 2.9V | 00:00:00 | 00:00:00 | 00:00:00 | |
| OE5DRO-10 | 2026-09-03 02:37:31 | 46.93545 | 15.58160 | 131° | 60km/h | 7768m | 3.5m/s | -28.1°C | 36.3% | 0hPa | 2.9V | 00:00:00 | 00:00:00 | 00:00:00 | |
| OE5DXL-15 | 2026-09-03 02:37:28 | 46.93572 | 15.58111 | 129° | 60km/h | 7756m | 4.0m/s | -28.0°C | 36.7% | 0hPa | 2.9V | 00:00:00 | 00:00:00 | 00:00:00 | |
| PETON7-10 | 2026-09-03 02:37:25 | 46.93601 | 15.58059 | 127° | 60km/h | 7742m | 5.1m/s | -27.9°C | 36.7% | 0hPa | 2.9V | 00:00:00 | 00:50:56 | 00:00:00 | |
| OE8JPQ-2 | 2026-09-03 02:37:15 | 46.93693 | 15.57884 | 128° | 60km/h | 7696m | 5.4m/s | -27.6°C | 40.9% | 0hPa | 2.9V | 00:00:00 | 00:50:46 | 00:00:00 | |
| OE5DRO-10 | 2026-09-03 02:37:12 | 46.93720 | 15.57827 | 125° | 58km/h | 7683m | 5.0m/s | -27.7°C | 45.4% | 0hPa | 2.9V | 00:00:00 | 00:00:00 | 00:00:00 | |
| PETON7-10 | 2026-09-03 02:37:10 | 46.93736 | 15.57791 | 122° | 58km/h | 7674m | 5.2m/s | -27.7°C | 47.9% | 0hPa | 2.9V | 00:00:00 | 00:00:00 | 08:30:00 | |
| PG1ADW-2 | 2026-09-03 02:37:08 | 46.93752 | 15.57753 | 124° | 57km/h | 7665m | 4.2m/s | -27.7°C | 48.9% | 0hPa | 2.9V | 00:00:00 | 00:00:00 | 08:30:00 | |
| OE5DXL-15 | 2026-09-03 02:36:58 | 46.93833 | 15.57570 | 123° | 51km/h | 7619m | 4.3m/s | -27.4°C | 45.1% | 0hPa | 2.9V | 00:00:00 | 00:00:00 | 00:00:00 | |
| OE3JTB-15 | 2026-09-03 02:36:57 | 46.93841 | 15.57552 | 125° | 51km/h | 7614m | 4.9m/s | -27.4°C | 46.4% | 0hPa | 2.9V | 00:00:00 | 00:00:00 | 00:00:00 | |
| PETON7-10 | 2026-09-03 02:36:55 | 46.93857 | 15.57519 | 124° | 53km/h | 7607m | 5.0m/s | -27.3°C | 46.5% | 0hPa | 2.9V | 00:00:00 | 00:00:00 | 00:00:00 | |
| OE5DRO-10 | 2026-09-03 02:36:53 | 46.93871 | 15.57485 | 119° | 51km/h | 7595m | 4.6m/s | -27.2°C | 46.7% | 0hPa | 2.9V | 00:00:00 | 00:00:00 | 00:00:00 | |
| PG1ADW-2 | 2026-09-03 02:36:48 | 46.93907 | 15.57398 | 124° | 49km/h | 7571m | 4.5m/s | 0°C | 0% | 0hPa | 2.9V | 00:00:00 | 00:00:00 | 00:00:00 | |
| PETON7-10 | 2026-09-03 02:36:40 | 46.93963 | 15.57265 | 125° | 49km/h | 7536m | 2.8m/s | -26.9°C | 54.5% | 0hPa | 2.9V | 00:00:00 | 00:50:11 | 00:00:00 | |
| OE8JPQ-2 | 2026-09-03 02:36:35 | 46.93997 | 15.57195 | 125° | 51km/h | 7512m | 4.7m/s | -26.8°C | 57.8% | 0hPa | 2.9V | 00:00:00 | 00:00:00 | 00:00:00 | |
| OE5DRO-10 | 2026-09-03 02:36:34 | 46.94004 | 15.57182 | 123° | 51km/h | 7509m | 2.3m/s | -26.8°C | 58.9% | 0hPa | 2.9V | 00:00:00 | 00:00:00 | 00:00:00 | |
| PG1ADW-2 | 2026-09-03 02:36:28 | 46.94047 | 15.57089 | 117° | 51km/h | 7475m | 5.6m/s | 0°C | 0% | 0hPa | 2.9V | 00:00:00 | 00:00:00 | 00:00:00 | |
| PETON7-10 | 2026-09-03 02:36:25 | 46.94063 | 15.57036 | 116° | 51km/h | 7461m | 2.9m/s | -26.4°C | 61.8% | 0hPa | 2.9V | 00:00:00 | 00:00:00 | 00:00:00 | |
| OE8JPQ-2 | 2026-09-03 02:36:15 | 46.94136 | 15.56877 | 126° | 53km/h | 7405m | 7.0m/s | -25.9°C | 63.2% | 0hPa | 2.9V | 00:00:00 | 00:49:46 | 00:00:00 | |
| PETON7-10 | 2026-09-03 02:36:10 | 46.94166 | 15.56794 | 116° | 53km/h | 7376m | 4.8m/s | -25.7°C | 66.9% | 0hPa | 2.9V | 00:00:00 | 00:00:00 | 00:00:00 | |
| PG1ADW-2 | 2026-09-03 02:36:08 | 46.94176 | 15.56762 | 116° | 53km/h | 7365m | 6.1m/s | 0°C | 0% | 0hPa | 2.9V | 00:00:00 | 00:49:39 | 00:00:00 | |
| OE5DXL-15 | 2026-09-03 02:35:58 | 46.94236 | 15.56586 | 117° | 53km/h | 7311m | 4.1m/s | 0°C | 0% | 0hPa | 2.9V | 00:00:00 | 00:00:00 | 00:00:00 | |
| OE5DRO-10 | 2026-09-03 02:35:56 | 46.94248 | 15.56551 | 117° | 55km/h | 7301m | 4.0m/s | -25.1°C | 68.0% | 0hPa | 2.9V | 00:00:00 | 00:00:00 | 00:00:00 | |
| PETON7-10 | 2026-09-03 02:35:55 | 46.94254 | 15.56533 | 115° | 55km/h | 7297m | 4.4m/s | -25.0°C | 67.6% | 0hPa | 2.9V | 00:00:00 | 00:49:26 | 00:00:00 | |
| OE8JPQ-2 | 2026-09-03 02:35:53 | 46.94264 | 15.56497 | 112° | 55km/h | 7289m | 2.9m/s | -24.9°C | 67.5% | 0hPa | 2.9V | 00:00:00 | 00:00:00 | 00:00:00 | |
| PG1ADW-2 | 2026-09-03 02:35:48 | 46.94296 | 15.56408 | 118° | 57km/h | 7269m | 4.4m/s | 0°C | 0% | 0hPa | 2.9V | 00:00:00 | 00:00:00 | 00:00:00 | |
| PETON7-10 | 2026-09-03 02:35:40 | 46.94346 | 15.56264 | 116° | 55km/h | 7237m | 4.9m/s | -24.5°C | 67.2% | 0hPa | 2.9V | 00:00:00 | 00:00:00 | 00:00:00 | |
| OE3JTB-15 | 2026-09-03 02:35:38 | 46.94359 | 15.56227 | 118° | 55km/h | 7229m | 3.5m/s | -24.4°C | 67.4% | 0hPa | 2.9V | 00:00:00 | 00:00:00 | 08:30:00 | |
| OE5DRO-10 | 2026-09-03 02:35:37 | 46.94365 | 15.56209 | 119° | 55km/h | 7225m | 5.7m/s | -24.4°C | 66.9% | 0hPa | 2.9V | 00:00:00 | 00:00:00 | 00:00:00 | |
| OE8JPQ-2 | 2026-09-03 02:35:33 | 46.94393 | 15.56141 | 122° | 55km/h | 7207m | 5.8m/s | -24.2°C | 64.9% | 0hPa | 2.9V | 00:00:00 | 00:00:00 | 00:00:00 | |
| PETON7-10 | 2026-09-03 02:35:25 | 46.94450 | 15.56004 | 123° | 55km/h | 7171m | 4.0m/s | -23.9°C | 61.7% | 0hPa | 2.9V | 00:00:00 | 00:00:00 | 00:00:00 | |
| OE5DRO-10 | 2026-09-03 02:35:18 | 46.94503 | 15.55884 | 124° | 55km/h | 7141m | 3.3m/s | -23.6°C | 60.5% | 0hPa | 2.9V | 00:00:00 | 00:00:00 | 00:00:00 | |
| OE8JPQ-2 | 2026-09-03 02:35:13 | 46.94540 | 15.55796 | 117° | 55km/h | 7120m | 3.1m/s | -23.4°C | 59.6% | 0hPa | 2.9V | 00:00:00 | 00:48:44 | 00:00:00 | |
| PETON7-10 | 2026-09-03 02:35:10 | 46.94559 | 15.55742 | 121° | 55km/h | 7107m | 2.6m/s | -23.3°C | 59.4% | 0hPa | 2.9V | 00:00:00 | 00:48:41 | 00:00:00 | |
| OE3JTB-15 | 2026-09-03 02:35:09 | 46.94566 | 15.55725 | 122° | 55km/h | 7104m | 4.9m/s | -23.2°C | 58.8% | 0hPa | 2.9V | 00:00:00 | 00:00:00 | 00:00:00 | |
| OE5DRO-10 | 2026-09-03 02:34:59 | 46.94642 | 15.55557 | 123° | 55km/h | 7059m | 4.6m/s | -22.8°C | 55.7% | 0hPa | 2.9V | 00:00:00 | 00:00:00 | 08:30:00 | |
| PETON7-10 | 2026-09-03 02:34:55 | 46.94671 | 15.55486 | 117° | 55km/h | 7042m | 4.2m/s | -22.7°C | 54.2% | 0hPa | 2.9V | 00:00:00 | 00:00:00 | 08:30:00 | |
| OE8JPQ-2 | 2026-09-03 02:34:53 | 46.94682 | 15.55449 | 111° | 55km/h | 7035m | 4.9m/s | -22.6°C | 53.3% | 0hPa | 2.9V | 00:00:00 | 00:00:00 | 08:30:00 | |
| PG1ADW-2 | 2026-09-03 02:34:47 | 46.94719 | 15.55346 | 122° | 57km/h | 7002m | 7.1m/s | 0°C | 0% | 0hPa | 2.7V | 00:00:00 | 00:00:00 | 00:00:00 | |
| PETON7-10 | 2026-09-03 02:34:40 | 46.94775 | 15.55226 | 124° | 55km/h | 6963m | 5.1m/s | -22.2°C | 60.1% | 0hPa | 2.7V | 00:00:00 | 00:00:00 | 00:00:00 | |
| OE3JTB-15 | 2026-09-03 02:34:39 | 46.94783 | 15.55209 | 124° | 55km/h | 6958m | 4.4m/s | -22.2°C | 60.2% | 0hPa | 2.7V | 00:00:00 | 00:48:10 | 00:00:00 | |
| OE8JPQ-2 | 2026-09-03 02:34:32 | 46.94842 | 15.55097 | 129° | 55km/h | 6927m | 4.6m/s | -21.9°C | 61.1% | 0hPa | 2.7V | 00:00:00 | 00:00:00 | 00:00:00 | |
| PG1ADW-2 | 2026-09-03 02:34:26 | 46.94893 | 15.55002 | 125° | 53km/h | 6898m | 2.1m/s | 0°C | 0% | 0hPa | 2.7V | 00:00:00 | 00:47:57 | 00:00:00 | |
| PETON7-10 | 2026-09-03 02:34:25 | 46.94901 | 15.54986 | 124° | 53km/h | 6895m | 4.9m/s | -21.6°C | 59.8% | 0hPa | 2.7V | 00:00:00 | 00:47:56 | 00:00:00 | |
| OE5DRO-10 | 2026-09-03 02:34:21 | 46.94934 | 15.54919 | 127° | 51km/h | 6878m | 3.9m/s | -21.5°C | 59.3% | 0hPa | 2.7V | 00:00:00 | 00:00:00 | 00:00:00 | |
| OE8JPQ-2 | 2026-09-03 02:34:12 | 46.95009 | 15.54779 | 131° | 47km/h | 6842m | 4.4m/s | -21.2°C | 59.4% | 0hPa | 2.7V | 00:00:00 | 00:47:43 | 00:00:00 | |
| PETON7-10 | 2026-09-03 02:34:10 | 46.95025 | 15.54749 | 129° | 47km/h | 6834m | 2.9m/s | -21.3°C | 65.2% | 0hPa | 2.7V | 00:00:00 | 00:00:00 | 00:00:00 | |
| PG1ADW-2 | 2026-09-03 02:34:04 | 46.95077 | 15.54668 | 120° | 46km/h | 6808m | 4.4m/s | 0°C | 0% | 0hPa | 2.7V | 00:00:00 | 00:00:00 | 00:00:00 | |
| PETON7-10 | 2026-09-03 02:33:55 | 46.95131 | 15.54540 | 122° | 40km/h | 6763m | 6.9m/s | -20.8°C | 65.6% | 0hPa | 2.7V | 00:00:00 | 00:00:00 | 00:00:00 | |
| OE8JPQ-2 | 2026-09-03 02:33:52 | 46.95149 | 15.54501 | 127° | 42km/h | 6744m | 6.8m/s | -20.6°C | 65.4% | 0hPa | 2.7V | 00:00:00 | 00:00:00 | 00:00:00 | |
| OE5DRO-10 | 2026-09-03 02:33:43 | 46.95194 | 15.54398 | 119° | 42km/h | 6684m | 4.9m/s | -20.3°C | 69.7% | 0hPa | 2.9V | 00:00:00 | 00:00:00 | 00:00:00 | |
| OE3JTB-15 | 2026-09-03 02:33:41 | 46.95206 | 15.54367 | 120° | 40km/h | 6673m | 4.9m/s | -20.2°C | 69.4% | 0hPa | 2.9V | 00:00:00 | 00:00:00 | 00:00:00 | |
| PETON7-10 | 2026-09-03 02:33:40 | 46.95212 | 15.54350 | 119° | 40km/h | 6667m | 8.6m/s | -20.2°C | 69.2% | 0hPa | 2.9V | 00:00:00 | 00:47:11 | 00:00:00 | |
| OE8JPQ-2 | 2026-09-03 02:33:32 | 46.95260 | 15.54246 | 118° | 37km/h | 6614m | 6.7m/s | -19.9°C | 69.5% | 0hPa | 2.9V | 00:00:00 | 00:00:00 | 00:00:00 | |
| PETON7-10 | 2026-09-03 02:33:25 | 46.95291 | 15.54158 | 115° | 37km/h | 6578m | 7.1m/s | -19.7°C | 71.3% | 0hPa | 2.9V | 00:00:00 | 00:00:00 | 00:00:00 | |
| OE5DRO-10 | 2026-09-03 02:33:24 | 46.95296 | 15.54143 | 124° | 35km/h | 6572m | 3.8m/s | -19.7°C | 72.6% | 0hPa | 2.9V | 00:00:00 | 00:00:00 | 00:00:00 | |
| OE3JTB-15 | 2026-09-03 02:33:12 | 46.95330 | 15.53998 | 112° | 35km/h | 6507m | 5.1m/s | -19.8°C | 83.5% | 0hPa | 2.9V | 00:00:00 | 00:46:43 | 00:00:00 | |
| PETON7-10 | 2026-09-03 02:33:10 | 46.95337 | 15.53976 | 114° | 33km/h | 6493m | 8.8m/s | -19.7°C | 83.3% | 0hPa | 2.9V | 00:00:00 | 00:00:00 | 00:00:00 | |
| OE5DRO-10 | 2026-09-03 02:33:05 | 46.95357 | 15.53923 | 123° | 33km/h | 6464m | 5.8m/s | -19.6°C | 84.6% | 0hPa | 2.9V | 00:00:00 | 00:00:00 | 00:00:00 | |
| PETON7-10 | 2026-09-03 02:32:54 | 46.95407 | 15.53806 | 126° | 35km/h | 6402m | 4.6m/s | -19.1°C | 82.4% | 0hPa | 2.9V | 00:00:00 | 00:46:25 | 00:00:00 | |
| OE8JPQ-2 | 2026-09-03 02:32:52 | 46.95417 | 15.53787 | 127° | 35km/h | 6387m | 7.0m/s | -18.9°C | 80.9% | 0hPa | 2.9V | 00:00:00 | 00:00:00 | 00:00:00 | |
| OE5DRO-10 | 2026-09-03 02:32:46 | 46.95444 | 15.53727 | 118° | 38km/h | 6358m | 4.1m/s | -18.7°C | 81.3% | 0hPa | 2.9V | 00:00:00 | 00:00:00 | 00:00:00 | |
| OE3JTB-15 | 2026-09-03 02:32:43 | 46.95457 | 15.53692 | 117° | 38km/h | 6341m | 5.8m/s | -18.6°C | 81.4% | 0hPa | 2.9V | 00:00:00 | 00:00:00 | 00:00:00 | |
| PETON7-10 | 2026-09-03 02:32:39 | 46.95481 | 15.53643 | 139° | 37km/h | 6318m | 4.8m/s | 0°C | 0% | 0hPa | 2.9V | 00:00:00 | 00:00:00 | 08:30:00 | |
| OE8JPQ-2 | 2026-09-03 02:32:32 | 46.95523 | 15.53576 | 125° | 38km/h | 6278m | 4.7m/s | -18.0°C | 79.5% | 0hPa | 2.9V | 00:00:00 | 00:00:00 | 00:00:00 | |
| OE5DRO-10 | 2026-09-03 02:32:27 | 46.95551 | 15.53514 | 133° | 38km/h | 6250m | 4.5m/s | -17.8°C | 79.5% | 0hPa | 2.9V | 00:00:00 | 00:00:00 | 00:00:00 | |
| PETON7-10 | 2026-09-03 02:32:24 | 46.95568 | 15.53484 | 128° | 40km/h | 6227m | 7.0m/s | 0°C | 0% | 0hPa | 2.9V | 00:00:00 | 00:00:00 | 00:00:00 | |
| OE3JTB-15 | 2026-09-03 02:32:14 | 46.95624 | 15.53374 | 126° | 42km/h | 6175m | 5.2m/s | -17.2°C | 76.4% | 0hPa | 2.9V | 00:00:00 | 00:00:00 | 00:00:00 | |
| OE8JPQ-2 | 2026-09-03 02:32:12 | 46.95639 | 15.53349 | 133° | 42km/h | 6165m | 4.9m/s | -17.1°C | 76.7% | 0hPa | 2.9V | 00:00:00 | 00:45:43 | 00:00:00 | |
| PETON7-10 | 2026-09-03 02:32:09 | 46.95661 | 15.53310 | 126° | 40km/h | 6149m | 4.6m/s | 0°C | 0% | 0hPa | 2.9V | 00:00:00 | 00:45:40 | 00:00:00 | |
| OE5DRO-10 | 2026-09-03 02:32:08 | 46.95667 | 15.53298 | 129° | 42km/h | 6144m | 6.4m/s | -16.9°C | 76.9% | 0hPa | 2.9V | 00:00:00 | 00:00:00 | 08:30:00 | |
| PETON7-10 | 2026-09-03 02:31:54 | 46.95752 | 15.53128 | 131° | 44km/h | 6062m | 5.9m/s | 0°C | 0% | 0hPa | 2.9V | 00:00:00 | 00:00:00 | 00:00:00 | |
| OE8JPQ-2 | 2026-09-03 02:31:52 | 46.95767 | 15.53102 | 132° | 44km/h | 6050m | 6.0m/s | -16.0°C | 74.9% | 0hPa | 2.9V | 00:00:00 | 00:00:00 | 08:30:00 | |
| OE5DRO-10 | 2026-09-03 02:31:49 | 46.95788 | 15.53066 | 132° | 42km/h | 6034m | 4.7m/s | -15.9°C | 76.9% | 0hPa | 2.9V | 00:00:00 | 00:00:00 | 00:00:00 | |
| OE3JTB-15 | 2026-09-03 02:31:43 | 46.95827 | 15.52992 | 129° | 42km/h | 5999m | 6.0m/s | -15.6°C | 76.6% | 0hPa | 2.9V | 00:00:00 | 00:45:14 | 00:00:00 | |
| PETON7-10 | 2026-09-03 02:31:39 | 46.95855 | 15.52938 | 131° | 42km/h | 5977m | 5.2m/s | 0°C | 0% | 0hPa | 2.9V | 00:00:00 | 00:00:00 | 00:00:00 | |
| OE8JPQ-2 | 2026-09-03 02:31:32 | 46.95907 | 15.52859 | 150° | 40km/h | 5942m | 3.0m/s | -15.0°C | 74.8% | 0hPa | 2.9V | 00:00:00 | 00:00:00 | 00:00:00 | |
| OE5DRO-10 | 2026-09-03 02:31:30 | 46.95925 | 15.52842 | 143° | 40km/h | 5934m | 5.5m/s | -15.0°C | 74.5% | 0hPa | 2.9V | 00:00:00 | 00:00:00 | 00:00:00 | |
| PETON7-10 | 2026-09-03 02:31:24 | 46.95966 | 15.52773 | 137° | 38km/h | 5898m | 3.7m/s | 0°C | 0% | 0hPa | 2.9V | 00:00:00 | 00:44:55 | 00:00:00 | |
| OE3JTB-15 | 2026-09-03 02:31:14 | 46.96031 | 15.52670 | 123° | 42km/h | 5845m | 7.1m/s | -14.3°C | 78.7% | 0hPa | 2.9V | 00:00:00 | 00:00:00 | 08:30:00 | |
| OE8JPQ-2 | 2026-09-03 02:31:12 | 46.96042 | 15.52643 | 122° | 44km/h | 5833m | 5.2m/s | -14.2°C | 78.6% | 0hPa | 2.9V | 00:00:00 | 00:44:43 | 00:00:00 | |
| OE5DRO-10 | 2026-09-03 02:31:11 | 46.96047 | 15.52631 | 129° | 44km/h | 5829m | 3.7m/s | -14.2°C | 79.4% | 0hPa | 2.9V | 00:00:00 | 00:00:00 | 00:00:00 | |
| PETON7-10 | 2026-09-03 02:31:09 | 46.96061 | 15.52609 | 134° | 44km/h | 5819m | 5.6m/s | 0°C | 0% | 0hPa | 2.9V | 00:00:00 | 00:00:00 | 00:00:00 | |
| OE3OSB-13 | 2026-09-03 02:31:06 | 46.96092 | 15.52564 | 135° | 46km/h | 5798m | 4.8m/s | -13.9°C | 76.3% | -1.0hPa | 2.9V | 00:00:00 | 00:00:00 | 00:00:00 | |
| PETON7-10 | 2026-09-03 02:30:53 | 46.96195 | 15.52440 | 141° | 42km/h | 5745m | 5.0m/s | 0°C | 0% | 0hPa | 2.9V | 00:00:00 | 00:00:00 | 00:00:00 | |
| OE8JPQ-2 | 2026-09-03 02:30:52 | 46.96203 | 15.52429 | 137° | 42km/h | 5740m | 4.3m/s | -13.4°C | 76.7% | 0hPa | 2.9V | 00:00:00 | 00:00:00 | 00:00:00 | |
| PETON7-10 | 2026-09-03 02:30:38 | 46.96312 | 15.52280 | 133° | 40km/h | 5666m | 9.4m/s | 0°C | 0% | 0hPa | 2.9V | 00:00:00 | 00:44:09 | 00:00:00 | |
| OE5DRO-10 | 2026-09-03 02:30:33 | 46.96349 | 15.52234 | 142° | 38km/h | 5632m | 4.5m/s | -12.8°C | 78.6% | 0hPa | 2.9V | 00:00:00 | 00:00:00 | 00:00:00 | |
| OE8JPQ-2 | 2026-09-03 02:30:32 | 46.96357 | 15.52225 | 140° | 38km/h | 5627m | 5.3m/s | -12.8°C | 77.5% | 0hPa | 2.9V | 00:00:00 | 00:00:00 | 00:00:00 | |
| PETON7-10 | 2026-09-03 02:30:23 | 46.96425 | 15.52141 | 141° | 40km/h | 5581m | 4.7m/s | 0°C | 0% | 0hPa | 2.9V | 00:00:00 | 00:00:00 | 00:00:00 | |
| OE3JTB-15 | 2026-09-03 02:30:16 | 46.96483 | 15.52084 | 141° | 42km/h | 5547m | 2.8m/s | -12.4°C | 83.6% | 0hPa | 2.9V | 00:00:00 | 00:43:47 | 00:00:00 | |
| OE5DRO-10 | 2026-09-03 02:30:14 | 46.96495 | 15.52065 | 134° | 40km/h | 5539m | 3.9m/s | -12.5°C | 84.6% | 0hPa | 2.9V | 00:00:00 | 00:00:00 | 00:00:00 | |
| OE8JPQ-2 | 2026-09-03 02:30:12 | 46.96511 | 15.52042 | 136° | 42km/h | 5530m | 4.0m/s | -12.4°C | 84.7% | 0hPa | 2.9V | 00:00:00 | 00:43:43 | 00:00:00 | |
| OE3OSB-13 | 2026-09-03 02:30:04 | 46.96583 | 15.51962 | 135° | 37km/h | 5485m | 4.5m/s | -12.4°C | 87.6% | -1.0hPa | 2.9V | 00:00:00 | 00:00:00 | 00:00:00 | |
| OE5DRO-10 | 2026-09-03 02:29:55 | 46.96645 | 15.51882 | 138° | 38km/h | 5446m | 4.0m/s | 0°C | 0% | 0hPa | 2.9V | 00:00:00 | 00:00:00 | 00:00:00 | |
| OE8JPQ-2 | 2026-09-03 02:29:52 | 46.96670 | 15.51847 | 144° | 35km/h | 5433m | 4.1m/s | -12.2°C | 88.1% | 0hPa | 2.9V | 00:00:00 | 00:00:00 | 00:00:00 | |
| OE3JTB-15 | 2026-09-03 02:29:47 | 46.96707 | 15.51800 | 124° | 27km/h | 5405m | 4.3m/s | -12.2°C | 88.5% | 0hPa | 2.9V | 00:00:00 | 00:00:00 | 00:00:00 | |
| OE5DRO-10 | 2026-09-03 02:29:36 | 46.96781 | 15.51713 | 146° | 27km/h | 5352m | 5.4m/s | 0°C | 0% | 0hPa | 2.9V | 00:00:00 | 00:00:00 | 00:00:00 | |
| PG1ADW-2 | 2026-09-03 02:29:25 | 46.96835 | 15.51636 | 150° | 26km/h | 5290m | 5.3m/s | 0°C | 0% | 0hPa | 2.9V | 00:00:00 | 00:00:00 | 00:00:00 | |
| OE5DRO-10 | 2026-09-03 02:29:17 | 46.96877 | 15.51587 | 132° | 29km/h | 5237m | 5.4m/s | 0°C | 0% | 0hPa | 2.9V | 00:00:00 | 00:00:00 | 00:00:00 | |
| OE3JTB-15 | 2026-09-03 02:29:14 | 46.96892 | 15.51562 | 133° | 26km/h | 5219m | 4.2m/s | -10.5°C | 76.9% | 0hPa | 2.9V | 00:00:00 | 00:00:00 | 00:00:00 | |
| OM5KV | 2026-09-03 02:29:12 | 46.96901 | 15.51546 | 120° | 26km/h | 5210m | 4.9m/s | -10.4°C | 0% | 0hPa | 2.9V | 00:00:00 | 00:00:00 | 00:00:00 | |
| OM5KV | 2026-09-03 02:29:11 | 46.96903 | 15.51538 | 112° | 26km/h | 5206m | 3.8m/s | -10.4°C | 0% | 0hPa | 2.9V | 00:00:00 | 00:00:00 | 00:00:00 | |
| OM5KV | 2026-09-03 02:29:10 | 46.96906 | 15.51528 | 112° | 27km/h | 5200m | 6.5m/s | -10.3°C | 0% | 0hPa | 2.9V | 00:00:00 | 00:00:00 | 00:00:00 | |
| OE8JPQ-2 | 2026-09-03 02:28:52 | 46.96992 | 15.51399 | 113° | 26km/h | 5100m | 6.7m/s | -9.4°C | 71.8% | 0hPa | 2.9V | 00:00:00 | 00:00:00 | 08:30:00 | |
| OE3JTB-15 | 2026-09-03 02:28:45 | 46.97006 | 15.51351 | 120° | 29km/h | 5069m | 3.9m/s | -9.3°C | 73.9% | 0hPa | 2.9V | 00:00:00 | 00:42:16 | 00:00:00 | |
| OE8JPQ-2 | 2026-09-03 02:28:32 | 46.97053 | 15.51235 | 122° | 31km/h | 4991m | 4.8m/s | 0°C | 0% | 0hPa | 2.9V | 00:00:00 | 00:00:00 | 00:00:00 | |
| OE3JTB-15 | 2026-09-03 02:28:16 | 46.97104 | 15.51081 | 114° | 31km/h | 4907m | 2.9m/s | -9.2°C | 97.9% | 0hPa | 2.9V | 00:00:00 | 00:00:00 | 00:00:00 | |
| OE8JPQ-2 | 2026-09-03 02:28:12 | 46.97117 | 15.51037 | 106° | 31km/h | 4890m | 4.3m/s | 0°C | 0% | 0hPa | 0V | 00:00:00 | 00:41:43 | 00:00:00 | |
| OM5KV | 2026-09-03 02:28:09 | 46.97122 | 15.51017 | 111° | 31km/h | 4878m | 9.4m/s | 0°C | 0% | 0hPa | 0V | 00:00:00 | 00:00:00 | 00:00:00 | |
| OE3JTB-15 | 2026-09-03 02:27:47 | 46.97134 | 15.50761 | 101° | 29km/h | 4741m | 5.9m/s | -8.1°C | 86.0% | 0hPa | 0V | 00:00:00 | 00:00:00 | 00:00:00 | |
| OE8JPQ-2 | 2026-09-03 02:27:39 | 46.97145 | 15.50670 | 117° | 29km/h | 4689m | 7.4m/s | 0°C | 0% | 0hPa | 0V | 00:00:00 | 00:00:00 | 00:00:00 | |
| OE8JPQ-2 | 2026-09-03 02:27:19 | 46.97208 | 15.50479 | 126° | 27km/h | 4569m | 5.5m/s | 0°C | 0% | 0hPa | 0V | 00:00:00 | 00:00:00 | 00:00:00 | |
| OE3JTB-15 | 2026-09-03 02:27:18 | 46.97213 | 15.50471 | 135° | 31km/h | 4563m | 4.8m/s | 0°C | 0% | 0hPa | 0V | 00:00:00 | 00:40:49 | 00:00:00 | |
| OE8JPQ-2 | 2026-09-03 02:26:59 | 46.97281 | 15.50302 | 100° | 37km/h | 4449m | 4.8m/s | 0°C | 0% | 0hPa | 0V | 00:00:00 | 00:40:30 | 00:00:00 | |
| OE3JTB-15 | 2026-09-03 02:26:49 | 46.97314 | 15.50180 | 93° | 37km/h | 4391m | 5.4m/s | 0°C | 0% | 0hPa | 0V | 00:00:00 | 00:00:00 | 00:00:00 | |
| OE8JPQ-2 | 2026-09-03 02:26:36 | 46.97348 | 15.50021 | 106° | 33km/h | 4318m | 8.6m/s | 0°C | 0% | 0hPa | 0V | 00:00:00 | 00:00:00 | 00:00:00 | |
| OE8JPQ-2 | 2026-09-03 02:26:16 | 46.97417 | 15.49793 | 111° | 38km/h | 4191m | 6.8m/s | 0°C | 0% | 0hPa | 0V | 00:00:00 | 00:00:00 | 00:00:00 | |
| OE8JPQ-2 | 2026-09-03 02:25:56 | 46.97488 | 15.49527 | 114° | 40km/h | 4073m | 6.6m/s | 0°C | 0% | 0hPa | 0V | 00:00:00 | 00:39:27 | 00:00:00 | |
| S52SK | 2026-09-03 02:25:55 | 46.97492 | 15.49510 | 110° | 46km/h | 4068m | 3.8m/s | -3.7°C | 45.5% | 0hPa | 0V | 00:00:00 | 00:00:00 | 00:00:00 | |
| OE8JPQ-2 | 2026-09-03 02:25:36 | 46.97574 | 15.49263 | 106° | 40km/h | 3956m | 5.5m/s | 0°C | 0% | 0hPa | 0V | 00:00:00 | 00:00:00 | 08:30:00 | |
| S52SK | 2026-09-03 02:24:41 | 46.97797 | 15.48565 | 123° | 38km/h | 3629m | 5.9m/s | -0.5°C | 24.2% | 0hPa | 0V | 00:00:00 | 00:00:00 | 00:00:00 | |
| S52SK | 2026-09-03 02:24:35 | 46.97817 | 15.48489 | 113° | 29km/h | 3598m | 6.3m/s | -0.4°C | 25.2% | 0hPa | 0V | 00:00:00 | 00:00:00 | 00:00:00 | |
| S52SK | 2026-09-03 02:23:30 | 46.98077 | 15.47775 | 123° | 26km/h | 3224m | 4.6m/s | 1.4°C | 51.0% | 0hPa | 0V | 00:00:00 | 00:00:00 | 00:00:00 | |
| S52SK | 2026-09-03 02:23:25 | 46.98084 | 15.47712 | 79° | 18km/h | 3188m | 4.7m/s | 1.3°C | 66.0% | 0hPa | 0V | 00:00:00 | 00:00:00 | 00:00:00 | |
| S52SK | 2026-09-03 02:22:15 | 46.98208 | 15.47247 | 106° | 33km/h | 2784m | 5.6m/s | 4.4°C | 0% | 0hPa | 0V | 00:00:00 | 00:00:00 | 00:00:00 | |
| S52SK | 2026-09-03 02:21:17 | 46.98429 | 15.46695 | 122° | 27km/h | 2447m | 6.0m/s | 7.4°C | 0% | 0hPa | 0V | 00:00:00 | 00:00:00 | 00:00:00 | |
| S52SK | 2026-09-03 02:21:11 | 46.98451 | 15.46644 | 112° | 29km/h | 2418m | 6.0m/s | 7.6°C | 0% | 0hPa | 0V | 00:00:00 | 00:00:00 | 00:00:00 | |
| S52SK | 2026-09-03 02:21:06 | 46.98468 | 15.46591 | 115° | 27km/h | 2381m | 5.7m/s | 8.0°C | 0% | 0hPa | 0V | 00:00:00 | 00:00:00 | 00:00:00 | |
| S52SK | 2026-09-03 02:20:02 | 46.98709 | 15.46058 | 111° | 26km/h | 2026m | 3.8m/s | 11.3°C | 0% | 0hPa | 0V | 00:00:00 | 00:00:00 | 00:00:00 | |
| S52SK | 2026-09-03 02:19:57 | 46.98722 | 15.46025 | 126° | 27km/h | 2000m | 5.3m/s | 11.5°C | 0% | 0hPa | 0V | 00:00:00 | 00:00:00 | 00:00:00 | |
| S52SK | 2026-09-03 02:18:53 | 46.98851 | 15.45616 | 111° | 20km/h | 1670m | 6.8m/s | 0°C | 0% | 0hPa | 0V | 00:00:00 | 00:00:00 | 00:00:00 | |
| S52SK | 2026-09-03 02:18:48 | 46.98857 | 15.45601 | 122° | 5km/h | 1638m | 5.5m/s | 0°C | 0% | 0hPa | 0V | 00:00:00 | 00:00:00 | 00:00:00 | |
| S52SK | 2026-09-03 02:17:49 | 46.99007 | 15.45391 | 152° | 16km/h | 1332m | 8.3m/s | 0°C | 0% | 0hPa | 0V | 00:00:00 | 00:00:00 | 00:00:00 | |
| S52SK | 2026-09-03 02:17:44 | 46.99017 | 15.45373 | 139° | 22km/h | 1303m | 4.4m/s | 0°C | 0% | 0hPa | 0V | 00:00:00 | 00:00:00 | 00:00:00 | |
| S52SK | 2026-09-03 02:17:38 | 46.99040 | 15.45349 | 104° | 20km/h | 1270m | 3.3m/s | 0°C | 0% | 0hPa | 0V | 00:00:00 | 00:00:00 | 00:00:00 | |
| S52SK | 2026-09-03 02:16:34 | 46.99104 | 15.45143 | 107° | 15km/h | 941m | 6.4m/s | 0°C | 0% | 0hPa | 0V | 00:00:00 | 00:00:00 | 00:00:00 | |
| S52SK | 2026-09-03 02:16:28 | 46.99103 | 15.45117 | 125° | 20km/h | 910m | 5.3m/s | 0°C | 0% | 0hPa | 0V | 00:00:00 | 00:00:00 | 00:00:00 |